[[{"header":{"parameterUnit":"m.s-1","parameterCategory":1,"la1":30.6,"la2":28.766,"lo1":-90.7593,"lo2":-88.6598,"dy":0.0162,"dx":0.0183,"nx":116,"ny":114,"refTime":"2023-06-29T00:00:00:Z","depth":0,"parameterNumber":2,"parameterNumberName":"U-component_of_WINDS"},"data":[0.0,0.0,0.0,0.0,0.0,0.0,0.0,0.0,0.0,0.0,0.0,0.0,0.0,0.0,0.0,0.0,0.0,0.0,0.0,0.0,0.0,0.0,0.0,0.0,0.0,0.0,0.0,0.0,0.0,0.0,0.0,0.0,0.0,0.0,0.0,0.0,0.0,0.0,0.0,0.0,0.0,0.0,0.0,0.0,0.0,0.0,0.0,0.0,0.0,0.0,0.0,0.0,0.0,0.0,0.0,0.0,0.0,0.0,0.0,0.0,0.0,0.0,0.0,0.0,0.0,0.0,0.0,0.0,0.0,0.0,0.0,0.0,0.0,0.0,0.0,0.0,0.0,0.0,0.0,0.0,0.0,0.0,0.0,0.0,0.0,0.0,0.0,0.0,0.0,0.0,0.0,0.0,0.0,0.0,0.0,0.0,0.0,0.0,0.0,0.0,0.0,0.0,0.0,0.0,0.0,0.0,0.0,0.0,0.0,0.0,0.0,0.0,0.0,0.0,0.0,0.0,0.0,0.0,0.0,0.0,0.0,0.0,0.0,0.0,0.0,0.0,0.0,0.0,0.0,0.0,0.0,0.0,0.0,0.0,0.0,0.0,0.0,0.0,0.0,0.0,0.0,0.0,0.0,0.0,0.0,0.0,0.0,0.0,0.0,0.0,0.0,0.0,0.0,0.0,0.0,0.0,0.0,0.0,0.0,0.0,0.0,0.0,0.0,0.0,0.0,0.0,0.0,0.0,0.0,0.0,0.0,0.0,0.0,0.0,0.0,0.0,0.0,0.0,0.0,0.0,0.0,0.0,0.0,0.0,0.0,0.0,0.0,0.0,0.0,0.0,0.0,0.0,0.0,0.0,0.0,0.0,0.0,0.0,0.0,0.0,0.0,0.0,0.0,0.0,0.0,0.0,0.0,0.0,0.0,0.0,0.0,0.0,0.0,0.0,0.0,0.0,0.0,0.0,0.0,0.0,0.0,0.0,0.0,0.0,0.0,0.0,0.0,0.0,0.0,0.0,0.0,0.0,0.0,0.0,0.0,0.0,0.0,0.0,0.0,0.0,0.0,0.0,0.0,0.0,0.0,0.0,0.0,0.0,0.0,0.0,0.0,0.0,0.0,0.0,0.0,0.0,0.0,0.0,0.0,0.0,0.0,0.0,0.0,0.0,0.0,0.0,0.0,0.0,0.0,0.0,0.0,0.0,0.0,0.0,0.0,0.0,0.0,0.0,0.0,0.0,0.0,0.0,0.0,0.0,0.0,0.0,0.0,0.0,0.0,0.0,0.0,0.0,0.0,0.0,0.0,0.0,0.0,0.0,0.0,0.0,0.0,0.0,0.0,0.0,0.0,0.0,0.0,0.0,0.0,0.0,0.0,0.0,0.0,0.0,0.0,0.0,0.0,0.0,0.0,0.0,0.0,0.0,0.0,0.0,0.0,0.0,0.0,0.0,0.0,0.0,0.0,0.0,0.0,0.0,0.0,0.0,0.0,0.0,0.0,0.0,0.0,0.0,0.0,0.0,0.0,0.0,0.0,0.0,0.0,0.0,0.0,0.0,0.0,0.0,0.0,0.0,0.0,0.0,0.0,0.0,0.0,0.0,0.0,0.0,0.0,0.0,0.0,0.0,0.0,0.0,0.0,0.0,0.0,0.0,0.0,0.0,0.0,0.0,0.0,0.0,0.0,0.0,0.0,0.0,0.0,0.0,0.0,0.0,0.0,0.0,0.0,0.0,0.0,0.0,0.0,0.0,0.0,0.0,0.0,0.0,0.0,0.0,0.0,0.0,0.0,0.0,0.0,0.0,0.0,0.0,0.0,0.0,0.0,0.0,0.0,0.0,0.0,0.0,0.0,0.0,0.0,0.0,0.0,0.0,0.0,0.0,0.0,0.0,0.0,0.0,0.0,0.0,0.0,0.0,0.0,0.0,0.0,0.0,0.0,0.0,0.0,0.0,0.0,0.0,0.0,0.0,0.0,0.0,0.0,0.0,0.0,0.0,0.0,0.0,0.0,0.0,0.0,0.0,0.0,0.0,0.0,0.0,0.0,0.0,0.0,0.0,0.0,0.0,0.0,0.0,0.0,0.0,0.0,0.0,0.0,0.0,0.0,0.0,0.0,0.0,0.0,0.0,0.0,0.0,0.0,0.0,0.0,0.0,0.0,0.0,0.0,0.0,0.0,0.0,0.0,0.0,0.0,0.0,0.0,0.0,0.0,0.0,0.0,0.0,0.0,0.0,0.0,0.0,0.0,0.0,0.0,0.0,0.0,0.0,0.0,0.0,0.0,0.0,0.0,0.0,0.0,0.0,0.0,0.0,0.0,0.0,0.0,0.0,0.0,0.0,0.0,0.0,0.0,0.0,0.0,0.0,0.0,0.0,0.0,0.0,0.0,0.0,0.0,0.0,0.0,0.0,0.0,0.0,0.0,0.0,0.0,0.0,0.0,0.0,0.0,0.0,0.0,0.0,0.0,0.0,0.0,0.0,0.0,0.0,0.0,0.0,0.0,0.0,0.0,0.0,0.0,0.0,0.0,0.0,0.0,0.0,0.0,0.0,0.0,0.0,0.0,0.0,0.0,0.0,0.0,0.0,0.0,0.0,0.0,0.0,0.0,0.0,0.0,0.0,0.0,0.0,0.0,0.0,0.0,0.0,0.0,0.0,0.0,0.0,0.0,0.0,0.0,0.0,0.0,0.0,0.0,0.0,0.0,0.0,0.0,0.0,0.0,0.0,0.0,0.0,0.0,0.0,0.0,0.0,0.0,0.0,0.0,0.0,0.0,0.0,0.0,0.0,0.0,0.0,0.0,0.0,0.0,0.0,0.0,0.0,0.0,0.0,0.0,0.0,0.0,0.0,0.0,0.0,0.0,0.0,0.0,0.0,0.0,0.0,0.0,0.0,0.0,0.0,0.0,0.0,0.0,0.0,0.0,0.0,0.0,0.0,0.0,0.0,0.0,0.0,0.0,0.0,0.0,0.0,0.0,0.0,0.0,0.0,0.0,0.0,0.0,0.0,0.0,0.0,0.0,0.0,0.0,0.0,0.0,0.0,0.0,0.0,0.0,0.0,0.0,0.0,0.0,0.0,0.0,0.0,0.0,0.0,0.0,0.0,0.0,0.0,0.0,0.0,0.0,0.0,0.0,0.0,0.0,0.0,0.0,0.0,0.0,0.0,0.0,0.0,0.0,0.0,0.0,0.0,0.0,0.0,0.0,0.0,0.0,0.0,0.0,0.0,0.0,0.0,0.0,0.0,0.0,0.0,0.0,0.0,0.0,0.0,0.0,0.0,0.0,0.0,0.0,0.0,0.0,0.0,0.0,0.0,0.0,0.0,0.0,0.0,0.0,0.0,0.0,0.0,0.0,0.0,0.0,0.0,0.0,0.0,0.0,0.0,0.0,0.0,0.0,0.0,0.0,0.0,0.0,0.0,0.0,0.0,0.0,0.0,0.0,0.0,0.0,0.0,0.0,0.0,0.0,0.0,0.0,0.0,0.0,0.0,0.0,0.0,0.0,0.0,0.0,0.0,0.0,0.0,0.0,0.0,0.0,0.0,0.0,0.0,0.0,0.0,0.0,0.0,0.0,0.0,0.0,0.0,0.0,0.0,0.0,0.0,0.0,0.0,0.0,0.0,0.0,0.0,0.0,0.0,0.0,0.0,0.0,0.0,0.0,0.0,0.0,0.0,0.0,0.0,0.0,0.0,0.0,0.0,0.0,0.0,0.0,0.0,0.0,0.0,0.0,0.0,0.0,0.0,0.0,0.0,0.0,0.0,0.0,0.0,0.0,0.0,0.0,0.0,0.0,0.0,0.0,0.0,0.0,0.0,0.0,0.0,0.0,0.0,0.0,0.0,0.0,0.0,0.0,0.0,0.0,0.0,0.0,0.0,0.0,0.0,0.0,0.0,0.0,0.0,0.0,0.0,0.0,0.0,0.0,0.0,0.0,0.0,0.0,0.0,0.0,0.0,0.0,0.0,0.0,0.0,0.0,0.0,0.0,0.0,0.0,0.0,0.0,0.0,0.0,0.0,0.0,0.0,0.0,0.0,0.0,0.0,0.0,0.0,0.0,0.0,0.0,0.0,0.0,0.0,0.0,0.0,0.0,0.0,0.0,0.0,0.0,0.0,0.0,0.0,0.0,0.0,0.0,0.0,0.0,0.0,0.0,0.0,0.0,0.0,0.0,0.0,0.0,0.0,0.0,0.0,0.0,0.0,0.0,0.0,0.0,0.0,0.0,0.0,0.0,0.0,0.0,0.0,0.0,0.0,0.0,0.0,0.0,0.0,0.0,0.0,0.0,0.0,0.0,0.0,0.0,0.0,0.0,0.0,0.0,0.0,0.0,0.0,0.0,0.0,0.0,0.0,0.0,0.0,0.0,0.0,0.0,0.0,0.0,0.0,0.0,0.0,0.0,0.0,0.0,0.0,0.0,0.0,0.0,0.0,0.0,0.0,0.0,0.0,0.0,0.0,0.0,0.0,0.0,0.0,0.0,0.0,0.0,0.0,0.0,0.0,0.0,0.0,0.0,0.0,0.0,0.0,0.0,0.0,0.0,0.0,0.0,0.0,0.0,0.0,0.0,0.0,0.0,0.0,0.0,0.0,0.0,0.0,0.0,0.0,0.0,0.0,0.0,0.0,0.0,0.0,0.0,0.0,0.0,0.0,0.0,0.0,0.0,0.0,0.0,0.0,0.0,0.0,0.0,0.0,0.0,0.0,0.0,0.0,0.0,0.0,0.0,0.0,0.0,0.0,0.0,0.0,0.0,0.0,0.0,0.0,0.0,0.0,0.0,0.0,0.0,0.0,0.0,0.0,0.0,0.0,0.0,0.0,0.0,0.0,0.0,0.0,0.0,0.0,0.0,0.0,0.0,0.0,0.0,0.0,0.0,0.0,0.0,0.0,0.0,0.0,0.0,0.0,0.0,0.0,0.0,0.0,0.0,0.0,0.0,0.0,0.0,0.0,0.0,0.0,0.0,0.0,0.0,0.0,0.0,0.0,0.0,0.0,0.0,0.0,0.0,0.0,0.0,0.0,0.0,0.0,0.0,0.0,0.0,0.0,0.0,0.0,0.0,0.0,0.0,0.0,0.0,0.0,0.0,0.0,0.0,0.0,0.0,0.0,0.0,0.0,0.0,0.0,0.0,0.0,0.0,0.0,0.0,0.0,0.0,0.0,0.0,0.0,0.0,0.0,0.0,0.0,0.0,0.0,0.0,0.0,0.0,0.0,0.0,0.0,0.0,0.0,0.0,0.0,0.0,0.0,0.0,0.0,0.0,0.0,0.0,0.0,0.0,0.0,0.0,0.0,0.0,0.0,0.0,0.0,0.0,0.0,0.0,0.0,0.0,0.0,0.0,0.0,0.0,0.0,0.0,0.0,0.0,0.0,0.0,0.0,0.0,0.0,0.0,0.0,0.0,0.0,0.0,0.0,0.0,0.0,0.0,0.0,0.0,0.0,0.0,0.0,0.0,0.0,0.0,0.0,0.0,0.0,0.0,0.0,0.0,0.0,0.0,0.0,0.0,0.0,0.0,0.0,0.0,0.0,0.0,0.0,0.0,0.0,0.0,0.0,0.0,0.0,0.0,0.0,0.0,0.0,0.0,0.0,0.0,0.0,0.0,0.0,0.0,0.0,0.0,0.0,0.0,0.0,0.0,0.0,0.0,0.0,0.0,0.0,0.0,0.0,0.0,0.0,0.0,0.0,0.0,0.0,0.0,0.0,0.0,0.0,0.0,0.0,0.0,0.0,0.0,0.0,0.0,0.0,0.0,0.0,0.0,0.0,0.0,0.0,0.0,0.0,0.0,0.0,0.0,0.0,0.0,0.0,0.0,0.0,0.0,0.0,0.0,0.0,0.0,0.0,0.0,0.0,0.0,0.0,0.0,0.0,0.0,0.0,0.0,0.0,0.0,0.0,0.0,0.0,0.0,0.0,0.0,0.0,0.0,0.0,0.0,0.0,0.0,0.0,0.0,0.0,0.0,0.0,0.0,0.0,0.0,0.0,0.0,0.0,0.0,0.0,0.0,0.0,0.0,0.0,0.0,0.0,0.0,0.0,0.0,0.0,0.0,0.0,0.0,0.0,0.0,0.0,-1.9091,-1.8119,0.0,0.0,0.0,0.0,0.0,0.0,0.0,0.0,0.0,0.0,0.0,0.0,0.0,0.0,0.0,0.0,0.0,0.0,0.0,0.0,0.0,0.0,0.0,0.0,0.0,0.0,0.0,0.0,0.0,0.0,0.0,0.0,0.0,0.0,0.0,0.0,0.0,0.0,-1.534,-1.5974,-1.6421,-1.5593,-1.5341,-1.5596,0.0,0.0,0.0,0.0,0.0,0.0,0.0,0.0,0.0,0.0,0.0,0.0,0.0,0.0,0.0,0.0,0.0,0.0,0.0,0.0,0.0,0.0,0.0,0.0,0.0,0.0,0.0,0.0,0.0,0.0,0.0,0.0,0.0,0.0,0.0,0.0,0.0,0.0,0.0,0.0,0.0,0.0,0.0,0.0,0.0,0.0,0.0,0.0,0.0,0.0,0.0,0.0,0.0,0.0,0.0,0.0,0.0,0.0,0.0,0.0,0.0,0.0,0.0,0.0,0.0,0.0,0.0,0.0,0.0,0.0,-2.0733,-1.9965,0.0,0.0,0.0,0.0,0.0,0.0,0.0,0.0,0.0,0.0,0.0,0.0,0.0,0.0,0.0,0.0,0.0,0.0,0.0,0.0,0.0,0.0,0.0,0.0,-1.0668,-1.0881,-1.1405,-1.1822,0.0,0.0,0.0,0.0,0.0,0.0,0.0,0.0,0.0,0.0,-1.7456,-1.8042,-1.8221,-1.8332,-1.8299,-1.8096,-1.7454,0.0,0.0,0.0,0.0,0.0,0.0,0.0,0.0,0.0,0.0,0.0,0.0,0.0,0.0,0.0,0.0,0.0,0.0,0.0,0.0,0.0,0.0,0.0,0.0,0.0,0.0,0.0,0.0,0.0,0.0,0.0,0.0,0.0,0.0,0.0,0.0,0.0,0.0,0.0,0.0,0.0,0.0,0.0,0.0,0.0,0.0,0.0,0.0,0.0,0.0,0.0,0.0,0.0,0.0,0.0,0.0,0.0,0.0,0.0,0.0,0.0,0.0,0.0,-2.4066,-2.3892,-2.3717,-2.3541,-2.3418,-2.3294,-2.2892,-2.2352,-2.1748,-2.1154,0.0,0.0,0.0,0.0,0.0,0.0,0.0,0.0,0.0,0.0,0.0,0.0,0.0,0.0,0.0,0.0,0.0,0.0,0.0,0.0,0.0,-1.0442,-1.0946,-1.1989,-1.2218,-1.2569,0.0,0.0,0.0,0.0,0.0,0.0,0.0,-1.6136,-1.6664,-1.732,-1.8957,-1.98,-1.9899,-2.1057,-2.1516,-2.1277,-1.8624,-1.7349,-1.7183,0.0,0.0,0.0,0.0,0.0,0.0,0.0,0.0,0.0,0.0,0.0,0.0,0.0,0.0,0.0,0.0,0.0,0.0,0.0,0.0,0.0,0.0,0.0,0.0,0.0,0.0,0.0,0.0,0.0,0.0,0.0,0.0,0.0,0.0,0.0,0.0,0.0,0.0,0.0,0.0,0.0,-1.8283,-1.9051,0.0,0.0,0.0,0.0,0.0,0.0,0.0,0.0,0.0,0.0,0.0,0.0,0.0,-2.454,-2.5149,-2.5744,-2.6283,-2.6808,-2.6779,-2.6705,-2.6542,-2.6367,-2.6202,-2.6049,-2.5703,0.0,-2.2116,-2.1915,0.0,0.0,0.0,0.0,0.0,0.0,0.0,0.0,0.0,0.0,0.0,0.0,0.0,0.0,0.0,0.0,0.0,0.0,0.0,0.0,0.0,-1.0731,-1.1339,-1.2176,-1.2676,-1.3124,-1.3535,-1.3719,0.0,0.0,0.0,0.0,0.0,-1.7317,-1.8462,-1.9796,-2.0496,-2.1129,-2.1657,-2.2152,-2.2298,-2.2106,-2.0743,-1.9786,-1.9143,-1.894,0.0,0.0,0.0,0.0,0.0,0.0,0.0,0.0,0.0,0.0,0.0,0.0,0.0,0.0,0.0,0.0,0.0,0.0,0.0,0.0,0.0,0.0,0.0,0.0,0.0,0.0,0.0,0.0,0.0,0.0,0.0,0.0,0.0,0.0,0.0,0.0,0.0,0.0,0.0,-1.8964,-2.0203,-2.0683,-2.1332,-2.1814,0.0,0.0,0.0,0.0,0.0,0.0,0.0,0.0,0.0,-2.4919,-2.552,-2.6148,-2.6805,-2.7041,-2.7264,-2.7397,-2.7397,-2.7337,-2.7216,-2.7037,-2.6856,-2.6705,-2.6474,-2.5601,-2.4367,-2.4144,-2.3743,-2.3258,0.0,0.0,0.0,0.0,-2.2276,-2.2217,0.0,0.0,0.0,0.0,0.0,0.0,0.0,0.0,0.0,0.0,0.0,0.0,-1.0464,-1.1189,-1.1838,-1.2411,-1.3061,-1.351,-1.3678,-1.3931,0.0,0.0,0.0,-1.647,-1.7283,-1.8857,-2.0344,-2.1733,-2.2008,-2.2483,-2.3164,-2.3152,-2.3079,-2.2945,-2.2825,-2.2117,-2.0936,-2.0588,-1.971,-1.8512,0.0,0.0,0.0,0.0,0.0,0.0,0.0,0.0,0.0,0.0,0.0,0.0,0.0,0.0,0.0,0.0,0.0,0.0,0.0,0.0,0.0,0.0,0.0,0.0,0.0,0.0,0.0,0.0,0.0,0.0,0.0,0.0,0.0,0.0,0.0,0.0,0.0,-2.0445,-2.1586,-2.2106,-2.2979,-2.3592,0.0,0.0,0.0,0.0,0.0,0.0,-2.4899,-2.5493,-2.6029,-2.6454,-2.7089,-2.7639,-2.8162,-2.8317,-2.8285,-2.8108,-2.8108,-2.7989,-2.7839,-2.7746,-2.7563,-2.7305,-2.7178,-2.6948,-2.6595,-2.5973,-2.5345,-2.4772,-2.4635,-2.4287,-2.3852,-2.3687,-2.3613,-2.3595,0.0,0.0,0.0,0.0,0.0,0.0,0.0,0.0,0.0,0.0,0.0,-1.0563,-1.1098,-1.1819,-1.2506,-1.3093,-1.3361,-1.3611,-1.3858,-1.4138,-1.4759,-1.5789,-1.6198,-1.7183,-1.8853,-2.078,-2.1861,-2.2063,-2.3472,-2.4161,-2.4143,-2.4716,-2.4875,-2.4668,-2.4471,-2.3366,-2.1629,-2.1501,-2.0882,-1.9919,-1.908,0.0,0.0,0.0,0.0,0.0,0.0,0.0,0.0,0.0,0.0,0.0,0.0,0.0,0.0,0.0,0.0,0.0,0.0,0.0,0.0,0.0,0.0,0.0,0.0,0.0,0.0,0.0,0.0,0.0,0.0,0.0,0.0,0.0,0.0,0.0,0.0,0.0,0.0,-2.3269,-2.359,0.0,0.0,0.0,0.0,-2.5121,-2.6265,-2.6987,-2.7126,-2.7726,-2.804,-2.8068,-2.874,-2.9111,-2.914,-2.9695,-2.9875,-2.9678,-2.9678,-2.9538,-2.9286,-2.93,-2.9079,-2.8684,-2.857,-2.8395,-2.808,-2.6666,-2.5861,-2.5534,-2.5534,-2.5414,-2.5186,-2.504,-2.5008,-2.4976,0.0,0.0,0.0,0.0,0.0,0.0,0.0,0.0,-0.9564,-0.9564,-1.0093,-1.0672,-1.121,-1.1911,-1.2601,-1.3148,-1.3539,-1.3828,-1.4013,-1.4436,-1.5206,-1.6359,-1.7179,-1.8516,-2.0432,-2.1199,-2.2135,-2.3259,-2.3661,-2.434,-2.5287,-2.5287,-2.5224,-2.5119,-2.4906,-2.4324,-2.3442,-2.2611,-2.1752,-2.0852,-1.9879,-1.8968,0.0,0.0,0.0,0.0,0.0,0.0,0.0,0.0,0.0,0.0,0.0,0.0,0.0,0.0,0.0,0.0,0.0,0.0,0.0,0.0,0.0,0.0,0.0,0.0,0.0,0.0,0.0,0.0,0.0,0.0,0.0,0.0,0.0,0.0,0.0,0.0,0.0,-2.4788,-2.5286,0.0,-2.6468,-2.6736,-2.6919,-2.7128,-2.7555,-2.784,-2.7869,-2.8483,-2.884,-2.884,-2.9454,-2.9783,-2.9783,-2.9997,-3.008,-3.0005,-3.0005,-2.9867,-2.9637,-2.9571,-2.9383,-2.9162,-2.8844,-2.8651,-2.8449,-2.7779,-2.733,-2.6974,-2.6759,-2.666,-2.6561,-2.623,-2.613,-2.6097,0.0,0.0,0.0,0.0,0.0,0.0,0.0,0.0,-0.9678,-0.9874,-1.0446,-1.1045,-1.1607,-1.2312,-1.2922,-1.3365,-1.3745,-1.4062,-1.4308,-1.4828,-1.5637,-1.6819,-1.8251,-1.9776,-2.1432,-2.1815,-2.2548,-2.3619,-2.3753,-2.4312,-2.5302,-2.5,-2.48,-2.4687,-2.4738,-2.4599,-2.4247,-2.3585,-2.271,-2.17,-2.0913,-1.9944,-1.8863,0.0,0.0,0.0,0.0,0.0,0.0,0.0,0.0,0.0,0.0,0.0,0.0,0.0,0.0,0.0,0.0,0.0,0.0,0.0,0.0,0.0,0.0,0.0,0.0,0.0,0.0,0.0,0.0,0.0,0.0,0.0,0.0,0.0,0.0,-2.3875,-2.5094,-2.619,-2.6749,-2.7313,-2.7953,-2.8252,-2.8467,-2.8598,-2.8799,-2.8957,-2.9015,-2.9432,-2.9662,-2.9662,-3.0079,-3.0264,-3.0264,-3.0264,-3.0219,-3.0158,-3.0158,-3.0052,-2.9898,-2.9744,-2.9588,-2.9446,-2.9131,-2.8876,-2.8651,-2.8476,-2.8235,-2.7941,-2.759,-2.7436,-2.7335,-2.7032,-2.6863,-2.676,0.0,0.0,0.0,0.0,0.0,0.0,0.0,-0.9604,-0.9813,-1.0434,-1.1089,-1.1743,-1.2335,-1.3014,-1.351,-1.3788,-1.3997,-1.4324,-1.4793,-1.5269,-1.6039,-1.722,-1.9286,-2.086,-2.1811,-2.2701,-2.3162,-2.312,-2.384,-2.416,-2.4114,-2.3902,-2.3702,-2.3548,-2.4051,-2.4138,-2.3901,-2.4313,-2.3697,-2.2485,-2.214,-2.106,-1.963,0.0,0.0,0.0,0.0,0.0,0.0,0.0,0.0,0.0,0.0,0.0,0.0,0.0,0.0,0.0,0.0,0.0,0.0,0.0,0.0,0.0,0.0,0.0,0.0,0.0,0.0,0.0,0.0,0.0,0.0,0.0,0.0,0.0,-2.5107,-2.5439,-2.6035,-2.7374,-2.782,-2.8024,-2.8081,-2.8781,-2.9286,-2.9434,-3.0011,-3.0417,-3.0598,-3.0612,-3.0612,-3.0612,-3.0612,-3.0612,-3.0612,-3.0612,-3.0507,-3.0312,-3.0312,-3.0235,-3.008,-2.9884,-2.973,-2.9602,-2.9446,-2.9194,-2.8812,-2.8651,-2.8476,-2.8254,-2.7941,-2.7689,-2.749,-2.7335,-2.718,-2.6943,0.0,0.0,0.0,0.0,0.0,0.0,0.0,-0.9684,-0.9987,-1.0628,-1.1251,-1.1896,-1.2551,-1.3258,-1.3758,-1.3931,-1.4305,-1.4702,-1.5134,-1.5653,-1.6811,-1.8778,-2.0075,-2.122,-2.2203,-2.2479,-2.2909,-2.3461,-2.3623,-2.3938,-2.4385,-2.4178,-2.4016,-2.3852,-2.3762,-2.3563,-2.334,-2.3697,-2.3451,-2.2755,-2.2422,-2.1857,-2.1112,0.0,0.0,0.0,0.0,0.0,0.0,0.0,0.0,0.0,0.0,0.0,0.0,0.0,0.0,0.0,0.0,0.0,0.0,0.0,0.0,0.0,0.0,0.0,0.0,0.0,0.0,0.0,0.0,0.0,0.0,0.0,-2.3445,-2.4902,-2.5398,-2.5952,-2.6846,-2.8329,-2.8603,-2.8936,-2.9601,-2.9876,-3.0097,-3.041,-3.057,-3.0762,-3.0955,-3.0955,-3.0955,-3.0955,-3.0955,-3.0955,-3.0955,-3.0955,-3.0866,-3.0672,-3.0672,-3.0507,-3.0235,-3.019,-3.0007,-2.973,-2.9602,-2.9352,-2.9004,-2.8812,-2.8573,-2.8254,-2.7941,-2.7776,-2.7689,-2.7403,-2.7066,-2.676,0.0,0.0,0.0,0.0,0.0,0.0,0.0,-0.9775,-1.0154,-1.1055,-1.152,-1.2106,-1.3058,-1.3562,-1.3927,-1.4195,-1.461,-1.5058,-1.5477,-1.616,-1.7505,-1.9621,-2.0329,-2.1274,-2.2494,-2.2538,-2.2788,-2.323,-2.3161,-2.33,-2.3625,-2.3474,-2.3306,-2.3104,-2.3178,-2.3027,-2.2783,-2.3424,-2.3483,-2.3102,-2.302,-2.251,-2.1729,-2.1009,-2.0394,-1.9803,-1.9108,-1.8804,-1.8623,-1.7863,0.0,0.0,0.0,0.0,0.0,0.0,0.0,0.0,0.0,0.0,0.0,0.0,0.0,0.0,0.0,0.0,0.0,0.0,0.0,0.0,0.0,0.0,0.0,0.0,-2.4286,-2.5618,-2.6244,-2.6999,-2.7929,-2.9126,-2.9391,-2.9698,-3.0253,-3.0447,-3.0598,-3.0791,-3.0895,-3.0984,-3.1087,-3.1117,-3.1117,-3.1117,-3.1117,-3.1117,-3.1117,-3.1117,-3.1043,-3.0925,-3.0821,-3.0702,-3.0507,-3.0357,-3.016,-2.9929,-2.9744,-2.9495,-2.9194,-2.9004,-2.8916,-2.8828,0.0,0.0,0.0,0.0,-2.7237,-2.6794,0.0,0.0,0.0,0.0,0.0,0.0,0.0,-0.9867,-1.0347,-1.1543,-1.1784,-1.2342,-1.369,-1.3891,-1.4124,-1.4517,-1.4922,-1.5359,-1.5881,-1.6744,-1.8038,-1.9812,-2.0208,-2.1088,-2.2556,-2.2743,-2.2777,-2.2712,-2.2646,-2.2538,-2.2405,-2.2352,-2.2178,-2.193,-2.2462,-2.2475,-2.218,-2.3324,-2.3626,-2.3343,-2.3669,-2.3088,-2.1939,-2.1704,-2.1032,-2.0169,-1.9768,-1.953,-1.9326,-1.8804,0.0,0.0,0.0,0.0,0.0,0.0,0.0,0.0,0.0,0.0,0.0,0.0,0.0,0.0,0.0,0.0,0.0,0.0,0.0,0.0,0.0,0.0,0.0,0.0,-2.5053,-2.6174,-2.7459,-2.832,-2.9106,-2.9766,-3.0129,-3.0357,-3.0357,-3.0642,-3.0821,-3.0851,-3.1014,-3.1132,-3.1132,-3.1146,0.0,0.0,0.0,-3.1146,-3.1146,-3.1146,-3.1146,-3.1102,-3.0955,-3.0851,-3.0821,-3.0507,-3.0266,-3.0142,-2.9929,-2.9682,-2.9429,-2.9263,-2.9467,-2.9806,-2.9214,-2.8929,-2.871,-2.8191,-2.7661,-2.7135,0.0,0.0,0.0,0.0,0.0,0.0,0.0,-0.9905,-1.0401,-1.1616,-1.1919,-1.2528,-1.3831,-1.4173,-1.4479,-1.4875,-1.521,-1.5782,-1.6628,-1.7158,-1.7969,-1.9134,-2.0014,-2.092,-2.1873,-2.2492,-2.2803,-2.2777,-2.2712,-2.2605,-2.2487,-2.246,-2.2287,-2.1984,-2.199,-2.183,-2.1632,-2.2714,-2.2975,-2.2735,-2.3605,-2.3571,-2.2952,-2.2542,-2.207,-2.1509,-2.0666,-2.0226,-1.9917,-1.9037,-1.8686,-1.8559,-1.8275,-1.8014,0.0,0.0,0.0,0.0,0.0,0.0,0.0,0.0,0.0,0.0,0.0,0.0,0.0,0.0,0.0,0.0,0.0,0.0,0.0,-2.4721,-2.6042,-2.7313,-2.8304,-2.9254,-2.9877,-3.0036,-3.0341,-3.0568,-3.0702,-3.0925,-3.1102,-3.1205,-3.1234,-3.1322,-3.1424,-3.1424,-3.1424,-3.1424,-3.1424,-3.1424,-3.1424,-3.1424,-3.1351,-3.1263,-3.1234,0.0,-3.1014,-3.0791,-3.0642,-3.0492,-3.0158,-2.9851,-2.9582,-2.9753,-3.0179,-3.0683,-2.9907,-2.9455,-2.914,-2.8702,-2.8459,-2.8334,0.0,0.0,0.0,0.0,0.0,0.0,0.0,-1.0008,-1.0444,-1.1375,-1.1619,-1.209,-1.3145,-1.3465,-1.3875,-1.4586,-1.5516,-1.6351,-1.7048,-1.7415,-1.803,-1.9018,-1.9625,-2.0489,-2.1673,-2.2059,-2.2422,-2.2803,-2.2738,-2.2619,-2.2501,-2.2501,-2.2315,-2.1982,-2.1855,-2.1646,-2.1468,-2.254,-2.2859,-2.2677,-2.3646,-2.3803,-2.3392,-2.2859,-2.2379,-2.1931,-2.1321,-2.088,-2.0494,-1.9843,-1.951,-1.9339,-1.902,-1.8759,-1.8535,0.0,0.0,0.0,0.0,0.0,0.0,0.0,0.0,0.0,0.0,0.0,0.0,0.0,0.0,-2.1749,-2.2591,0.0,-2.4144,-2.5516,-2.661,-2.7649,-2.8667,-2.956,-3.0111,-3.0189,-3.0492,-3.0732,-3.0791,-3.1029,-3.1263,-3.1379,-3.1496,-3.1597,-3.1741,-3.1769,-3.1769,-3.1769,-3.1769,-3.1769,-3.1769,-3.1769,-3.1668,-3.1539,-3.1452,-3.1336,-3.1176,-3.1043,-3.0821,-3.0627,-3.0733,-3.0568,-3.0231,-3.0701,-3.1007,-3.1123,-3.0824,-3.0351,-2.98,-2.9295,-2.8933,-2.8654,0.0,0.0,0.0,0.0,0.0,0.0,0.0,-1.0123,-1.047,-1.1109,-1.1282,-1.1669,-1.2441,-1.2733,-1.3289,-1.4392,-1.5802,-1.6828,-1.7272,-1.7544,-1.8048,-1.8836,-1.9206,-1.9964,-2.121,-2.1539,-2.1972,-2.2565,-2.2643,-2.2605,-2.2487,-2.246,-2.2287,-2.1982,-2.184,-2.1713,-2.1663,-2.2621,-2.2957,-2.2973,-2.3774,-2.3894,-2.353,-2.2957,-2.2457,-2.1996,-2.1722,-2.135,-2.0934,-2.0573,-2.0321,-2.0131,-1.9734,-1.9512,-1.9282,-1.8701,-1.8499,0.0,0.0,0.0,0.0,0.0,0.0,0.0,0.0,-2.0958,-2.1219,-2.1304,-2.1804,-2.247,-2.33,-2.3753,-2.4603,-2.6292,-2.71,-2.7875,-2.8987,-2.9738,-3.0249,-3.0387,-3.0672,-3.0881,-3.0925,-3.1234,-3.1452,-3.1581,-3.1769,-3.1898,-3.1996,-3.1996,-3.1996,-3.1996,-3.1996,-3.1996,-3.1996,-3.1996,-3.194,-3.1841,-3.1682,-3.1538,-3.138,-3.1234,-3.1029,-3.0746,-3.128,-3.1358,-3.116,-3.1644,-3.1714,-3.1504,-3.1569,-3.1193,-3.05,-2.9912,-2.9407,-2.8974,0.0,0.0,0.0,0.0,0.0,0.0,0.0,0.0,-1.0508,-1.1122,-1.1415,-1.1858,-1.2595,-1.2899,-1.3613,-1.4982,-1.6119,-1.693,-1.7284,-1.7544,-1.7805,-1.8013,-1.8852,-1.9382,-1.9555,-2.0956,-2.1705,-2.1729,-2.2319,-2.2538,-2.2405,-2.2352,-2.2206,-2.1998,-2.1812,-2.1963,-2.2394,-2.2829,-2.3225,-2.3615,-2.3958,-2.3894,-2.3551,-2.3068,-2.2586,-2.2137,-2.1864,-2.1447,-2.0959,-2.0673,-2.0422,-2.0131,-1.9734,-1.9512,-1.933,-1.902,-1.912,-1.9302,-1.9128,-1.9418,-1.9794,-1.9912,-2.0133,-2.0332,0.0,-2.1093,-2.181,-2.181,-2.2682,-2.3537,-2.3939,-2.4678,-2.5649,-2.6982,-2.7813,-2.8668,-2.982,-3.0297,-3.0598,-3.0732,-3.0925,-3.1146,-3.1408,-3.1611,-3.1813,-3.1925,-3.1968,-3.1996,-3.1996,-3.1996,-3.1996,-3.1996,-3.1996,-3.1996,-3.1996,-3.1996,-3.1996,-3.1968,-3.1953,-3.1883,-3.1727,-3.1538,-3.1365,-3.1234,-3.1419,-3.1765,-3.2202,-3.2095,-3.2159,-3.2227,-3.179,-3.1445,-3.1143,-3.0531,-3.0265,-3.0138,0.0,0.0,0.0,0.0,0.0,0.0,0.0,0.0,0.0,0.0,-1.1009,-1.1255,-1.1718,-1.2763,-1.3793,-1.4609,-1.5934,-1.6876,-1.7211,-1.7467,-1.7653,-1.7816,-1.8256,-1.8899,-1.9796,-2.0472,-2.1262,-2.2116,-2.2401,-2.2474,-2.2338,-2.231,-2.2149,-2.1884,-2.1753,-2.1981,-2.2475,-2.2844,-2.3254,-2.3666,-2.3969,-2.3867,-2.3494,-2.3046,-2.2595,-2.2161,-2.1902,-2.1471,0.0,-2.0684,-2.0422,-2.0131,-1.9642,-1.9382,-1.9225,-1.8946,-1.9127,-1.9406,-1.9454,-1.9947,-2.0421,-2.0301,-2.0714,-2.1119,-2.1119,-2.1601,-2.2104,-2.2183,-2.2867,-2.3731,-2.4471,-2.5137,-2.6064,-2.7589,-2.8265,-2.8947,-3.0058,-3.0462,-3.0747,-3.1146,-3.1278,-3.1394,-3.1495,-3.1754,-3.1968,-3.2122,-3.2191,-3.2274,-3.2345,-3.2471,-3.2527,-3.2527,-3.2527,-3.2527,-3.2527,-3.2527,-3.2471,-3.2342,-3.2259,-3.2163,-3.2025,-3.1853,-3.2074,-3.2586,-3.2606,-3.2955,-3.3488,-3.2627,-3.2249,-3.2151,-3.1105,-3.077,-3.0737,-3.0505,-3.0254,-2.9998,0.0,0.0,0.0,0.0,0.0,0.0,0.0,0.0,0.0,0.0,-1.0777,-1.092,-1.1215,-1.2731,-1.3875,-1.4271,-1.5776,-1.6837,-1.7138,-1.7356,-1.7549,-1.7704,-1.7997,-1.8676,-1.9782,-2.0232,-2.0999,-2.2095,-2.23,-2.2349,-2.2223,-2.218,-2.2034,-2.1797,-2.1861,-2.2166,-2.2667,-2.3042,-2.3444,-2.3864,-2.402,-2.3839,-2.3466,-2.3061,-2.2517,-2.1992,-2.1856,-2.1471,-2.0959,-2.0684,-2.0397,-2.0054,-1.9577,-1.9277,-1.9081,-1.8813,-1.9014,-1.9414,-1.9805,-2.0293,-2.0661,-2.0525,-2.0999,-2.1498,-2.1561,-2.1843,-2.2173,-2.2359,-2.2939,-2.3718,-2.4797,-2.5532,-2.644,-2.8008,-2.8724,-2.9387,-3.0254,-3.0657,-3.0999,-3.1451,-3.1595,-3.1724,-3.1737,-3.1966,-3.2178,-3.2302,-3.2441,-3.2578,-3.2676,-3.2816,-3.2897,-3.2897,-3.2897,-3.2897,-3.2897,-3.2897,-3.2827,-3.2672,-3.2563,-3.2468,-3.2302,-3.2333,-3.2775,-3.3545,-3.3667,-3.3886,-3.4109,-3.299,-3.2286,-3.1735,-3.0561,-3.0077,-3.0063,-3.007,-2.9935,-2.9753,0.0,0.0,0.0,0.0,0.0,0.0,0.0,0.0,0.0,0.0,0.0,0.0,0.0,-1.2903,-1.394,-1.4271,-1.5776,-1.6796,-1.7101,-1.7284,-1.7432,-1.7509,-1.8318,-1.8798,-1.8848,-2.031,-2.1052,-2.1053,-2.1821,-2.2132,-2.2013,-2.1869,-2.1812,-2.1831,-2.2198,-2.2716,-2.3285,-2.3557,-2.3994,-2.4446,-2.413,-2.3812,-2.3466,-2.3061,-2.2326,-2.1549,-2.1727,-2.1471,-2.0959,-2.0684,-2.0346,-1.9939,-1.9525,-1.921,-1.896,-1.8667,-1.8969,-1.9569,-2.045,-2.0667,-2.0711,-2.0679,-2.0807,-2.0967,-2.1158,-2.1588,-2.2013,-2.2316,-2.2939,-2.3718,-2.4797,-2.5864,-2.6976,-2.8202,-2.9336,-3.0176,-3.0538,-3.1087,-3.1495,-3.1508,-3.1894,-3.2247,-3.237,-3.2398,-3.2425,-3.2594,-3.2773,-3.2897,-3.2897,-3.2897,-3.2897,-3.2897,-3.2897,-3.2897,-3.2897,-3.2897,-3.2897,-3.2897,-3.2897,-3.2784,-3.259,-3.3005,-3.3361,-3.3713,-3.425,-3.4186,-3.3685,-3.3111,-3.2235,-3.1146,-3.0412,-2.9754,-2.922,-2.9244,-2.9492,-2.9714,0.0,0.0,0.0,0.0,0.0,0.0,0.0,0.0,0.0,0.0,0.0,0.0,0.0,0.0,0.0,0.0,-1.5637,-1.6644,-1.6825,-1.7059,-1.7236,-1.7301,-1.8096,-1.8801,-1.9386,-2.0381,-2.1133,-2.1587,-2.1869,-2.1928,-2.1812,-2.1753,-2.1632,-2.1481,-2.1615,-2.2179,-2.3018,-2.3041,-2.3507,-2.4219,-2.4067,-2.3747,-2.3297,-2.2557,-2.1974,-2.1421,0.0,-2.0357,-2.001,-2.0002,-1.9804,-1.9572,-1.944,-1.921,-1.9024,-1.9101,-1.9251,-1.9531,-2.0144,-2.0399,-2.0443,-2.0237,-2.0367,-2.0593,-2.0658,-2.1063,-2.1526,-2.1882,-2.2531,-2.3548,-2.5125,-2.613,-2.7216,-2.8744,-2.9697,-3.0372,-3.0792,-3.1219,-3.1652,-3.2048,-3.2231,-3.2441,-3.2718,-3.2621,-3.2621,-3.2773,-3.3016,-3.3176,-3.3176,-3.3319,-3.3424,-3.3424,-3.3424,-3.3424,-3.3424,-3.3424,-3.3424,-3.344,-3.3836,-3.388,-3.3635,-3.4563,-3.495,-3.4927,-3.532,-3.5003,-3.4157,-3.3235,-3.2073,-3.0797,-2.9517,-2.8797,-2.8424,-2.811,-2.8073,-2.8264,0.0,0.0,0.0,0.0,0.0,0.0,0.0,0.0,0.0,0.0,0.0,0.0,0.0,0.0,0.0,0.0,0.0,-1.6501,-1.6659,-1.6869,-1.7025,-1.7125,-1.7898,-1.8723,-1.9541,-2.0312,-2.1054,-2.1781,-2.1781,-2.1753,-2.1664,-2.1603,-2.1481,-2.1309,-2.144,-2.1867,-2.2512,-2.253,-2.303,-2.3717,-2.3324,-2.3077,-2.2862,-2.1973,-2.1333,0.0,-2.0012,-1.94,-1.9049,-1.9634,-1.9581,-1.9342,-1.9443,-1.9158,-1.8817,-1.8971,-1.9081,-1.9245,-1.9648,-1.9933,-2.0074,-1.9846,-1.9933,-2.014,-2.027,-2.0646,-2.1126,-2.1588,-2.2347,-2.3396,-2.4993,-2.6165,-2.7399,-2.8901,-2.9895,-3.0657,-3.1102,-3.1466,-3.1866,-3.2342,-3.2425,-3.2605,-3.3005,-3.2935,-3.2893,-3.3032,-3.3546,-3.3831,-3.3831,-3.4239,-3.4472,-3.4567,-3.4567,-3.4593,-3.4619,-3.4619,-3.4619,-3.4619,-3.4979,-3.4999,-3.4727,-3.571,-3.6011,-3.5777,-3.6107,-3.5657,-3.4584,-3.338,-3.206,-3.0637,-2.91,-2.8319,-2.7987,-2.7494,-2.7262,-2.7348,0.0,0.0,0.0,0.0,0.0,0.0,0.0,0.0,0.0,0.0,0.0,0.0,0.0,0.0,0.0,0.0,0.0,0.0,-1.657,-1.6714,-1.6847,-1.6972,-1.7756,-1.8505,-1.9221,-2.0023,-2.0787,-2.1524,-2.1524,-2.1556,-2.1574,-2.1388,-2.1277,-2.1278,-2.1625,-2.1755,-2.1799,-2.213,-2.2567,-2.2964,-2.2049,-2.1923,-2.2163,-2.1295,-2.046,-1.9735,-1.9402,-1.8719,-1.8201,-1.9505,-1.9618,-1.927,-1.9506,-1.904,-1.8406,-1.8414,-1.8519,-1.8733,-1.908,-1.9383,-1.9551,-1.9572,-1.9572,-1.9671,-2.0009,-2.0334,-2.0796,-2.1526,-2.2316,-2.3253,-2.4468,-2.6002,-2.7515,-2.8699,-2.9968,-3.0955,-3.1422,-3.1796,-3.2122,-3.2398,-3.2551,-3.2796,-3.3282,-3.3367,-3.3382,-3.3409,-3.4277,-3.4835,-3.4867,-3.5476,-3.5926,-3.612,-3.612,-3.6174,-3.6307,-3.6307,-3.6307,-3.6307,-3.6222,-3.6088,-3.5909,-3.6446,-3.6537,-3.6295,-3.6611,-3.6091,-3.4926,-3.3645,-3.2215,-3.0729,-2.9201,-2.8352,-2.7943,-2.7336,-2.7057,-2.6995,0.0,0.0,0.0,0.0,0.0,0.0,0.0,0.0,0.0,0.0,0.0,0.0,0.0,0.0,0.0,0.0,0.0,0.0,-1.6289,-1.6477,-1.6607,-1.6704,-1.7479,-1.8035,-1.8335,-1.9116,-1.989,-2.0637,-2.0623,-2.087,-2.131,-2.1215,-2.1071,-2.0925,-2.1017,-2.1212,-2.1488,-2.1546,-2.1838,-2.2241,-2.1863,-2.1669,-2.153,-2.0653,-2.0105,-1.9698,-1.897,-1.8413,-1.8146,-1.903,-1.9396,-1.9456,-1.9228,-1.8813,-1.8406,-1.8414,-1.8304,-1.8297,-1.8836,-1.8945,-1.8986,-1.9191,-1.9308,-1.944,-1.9671,-2.0096,-2.0625,-2.1221,-2.2044,-2.3063,-2.4315,-2.5942,-2.7515,-2.8699,-3.0043,-3.1117,-3.1581,-3.2007,-3.2413,-3.2746,-3.2973,-3.3214,-3.3424,-3.4138,-3.4599,-3.4703,-3.4864,-3.5229,-3.5867,-3.6167,-3.6387,-3.6545,-3.6561,-3.6545,-3.6597,-3.6597,-3.6597,-3.6614,-3.7126,-3.7264,-3.7097,-3.7772,-3.787,-3.7456,-3.7458,-3.6712,-3.5475,-3.459,-3.333,-3.17,-3.0353,-2.9191,-2.8149,-2.7488,-2.6733,-2.6068,0.0,0.0,0.0,0.0,0.0,0.0,0.0,0.0,0.0,0.0,0.0,0.0,0.0,0.0,0.0,0.0,0.0,0.0,0.0,-1.6316,-1.6409,-1.6503,-1.7002,-1.7459,-1.7871,-1.8368,-1.8988,-1.9728,-1.973,-2.004,-2.067,-2.0607,-2.0655,-2.0794,-2.0712,-2.078,-2.0947,-2.0804,-2.1057,0.0,0.0,-2.0798,-2.0872,-1.9982,-1.9541,-1.9298,-1.8781,0.0,0.0,-1.8918,-1.9297,-1.9604,-1.9146,-1.8652,-1.8262,-1.8137,-1.7946,-1.7852,-1.8178,-1.827,-1.8301,-1.8455,-1.855,-1.8678,-1.8924,-1.9337,-1.9809,-2.0388,-2.1469,-2.2616,-2.3658,-2.547,-2.7232,-2.8495,-2.9828,-3.0965,-3.1807,-3.2203,-3.2578,-3.3016,-3.3203,-3.3525,-3.4116,-3.4709,-3.5418,-3.6149,-3.6145,-3.634,-3.6922,-3.7312,-3.7556,-3.7705,-3.7785,-3.789,-3.802,-3.802,-3.802,-3.802,-3.8372,-3.8473,-3.8296,-3.8625,-3.8528,-3.8103,-3.7873,-3.7196,-3.6163,-3.5109,-3.3902,-3.2475,-3.0916,-2.9623,-2.8546,-2.7536,-2.6673,-2.5995,0.0,0.0,0.0,0.0,0.0,0.0,0.0,0.0,0.0,0.0,0.0,0.0,0.0,0.0,0.0,0.0,0.0,0.0,0.0,0.0,0.0,0.0,-1.649,-1.6867,-1.7537,-1.7661,-1.8095,-1.8844,-1.8844,-1.9181,-1.984,-1.9795,-2.0067,-2.0619,-2.0437,-2.0365,-2.0371,-2.0111,-2.0339,-2.0773,-1.9797,-1.9752,-2.0175,0.0,0.0,0.0,0.0,0.0,0.0,0.0,-1.931,-1.9695,-1.9172,-1.8598,-1.803,-1.7767,-1.7562,-1.7416,-1.7469,-1.7548,-1.7626,-1.7688,-1.7699,-1.7791,-1.8129,-1.8464,-1.8887,-1.9502,-2.0776,-2.2023,-2.2889,-2.4808,-2.6735,-2.8139,-2.9486,-3.0731,-3.1893,-3.2296,-3.2687,-3.324,-3.3319,-3.3789,-3.487,-3.5214,-3.5971,-3.7421,-3.7644,-3.779,-3.7931,-3.8548,-3.8942,-3.9077,-3.9255,-3.9468,-3.9703,-3.9703,-3.9703,-3.9703,-3.959,-3.9475,-3.9352,-3.9148,-3.8849,-3.8448,-3.8103,-3.7578,-3.6828,-3.543,-3.4243,-3.314,-3.1261,-2.9992,-2.9013,-2.7636,-2.6835,-2.6279,0.0,0.0,0.0,0.0,0.0,0.0,0.0,0.0,0.0,0.0,0.0,0.0,0.0,0.0,0.0,0.0,0.0,0.0,0.0,0.0,0.0,0.0,-1.6301,-1.6456,-1.6701,-1.6783,-1.7212,-1.8012,-1.8012,-1.8392,-1.9077,-1.8973,-1.92,-1.9718,-1.9701,-1.9915,-2.0304,-2.0093,-2.0066,-2.0122,-1.9604,-1.9468,-1.9538,0.0,0.0,0.0,0.0,0.0,0.0,0.0,-1.931,-1.9695,-1.9172,-1.8598,-1.803,-1.7645,-1.7227,-1.6991,-1.7256,-1.7217,-1.7223,-1.7606,-1.7699,-1.7791,-1.8129,-1.8464,-1.8928,-1.9684,-2.056,-2.1574,-2.2924,-2.4541,-2.6106,-2.7463,-2.9304,-3.0736,-3.1296,-3.2183,-3.2935,-3.324,-3.3503,-3.3982,-3.4897,-3.5772,-3.6682,-3.7681,-3.8378,-3.8761,-3.8788,-3.9055,-3.9325,-3.9573,-3.9599,-3.9651,-3.9703,-3.9703,-3.9703,-3.9703,-3.9677,-3.9651,-3.9625,-3.9484,-3.9202,-3.886,-3.8488,-3.7873,-3.7072,-3.6105,-3.4993,-3.3796,-3.2337,-3.0882,-2.9438,-2.8148,-2.6982,-2.5895,0.0,0.0,0.0,0.0,0.0,0.0,0.0,0.0,0.0,0.0,0.0,0.0,0.0,0.0,0.0,0.0,0.0,0.0,0.0,0.0,0.0,0.0,0.0,0.0,-1.6342,-1.6436,-1.6703,-1.7128,0.0,-1.7519,-1.826,-1.8217,-1.8478,-1.8983,-1.9342,-1.9571,-1.9694,-1.9906,-1.9955,-1.9866,-1.9523,-1.9395,0.0,0.0,0.0,0.0,0.0,0.0,0.0,0.0,-1.8505,-1.8796,-1.8937,-1.8598,-1.803,-1.7606,-1.7172,-1.6832,-1.6911,-1.68,-1.6746,-1.6974,-1.7075,-1.7212,-1.7525,-1.7875,-1.8377,-1.9088,-2.0084,-2.1184,-2.223,-2.396,-2.5665,-2.7031,-2.8595,-3.0083,-3.1225,-3.1931,-3.2619,-3.3403,-3.3633,-3.4256,-3.5639,-3.6271,-3.7108,-3.8339,-3.8923,-3.9255,-3.9255,-3.9415,-3.9599,-3.9781,-3.9884,-3.9935,-4.0011,-4.0087,-4.0087,-4.0011,-4.0011,-3.9935,-3.9781,-3.9668,-3.9388,-3.8969,-3.8572,-3.7947,-3.7118,-3.618,-3.5139,-3.3968,-3.2506,-3.1082,-2.9691,-2.8319,-2.704,-2.5968,0.0,0.0,0.0,0.0,0.0,0.0,0.0,0.0,0.0,0.0,0.0,0.0,0.0,0.0,0.0,0.0,0.0,0.0,0.0,0.0,0.0,0.0,0.0,0.0,0.0,0.0,0.0,-1.6461,-1.6474,0.0,0.0,0.0,0.0,0.0,-1.8781,-1.9058,-1.9121,-1.9585,-1.9783,0.0,0.0,-1.9395,0.0,0.0,0.0,0.0,0.0,0.0,0.0,0.0,-1.7649,-1.7749,-1.8375,-1.826,-1.7773,-1.749,-1.706,-1.6676,-1.6581,-1.6449,-1.6345,-1.6431,-1.6534,-1.6684,-1.6994,-1.7412,-1.792,-1.856,-1.9687,-2.0819,-2.1666,-2.335,-2.5071,-2.6583,-2.7816,-2.9234,-3.1129,-3.1649,-3.2322,-3.3537,-3.3736,-3.4462,-3.6336,-3.6623,-3.7334,-3.8881,-3.9335,-3.9554,-3.9563,-3.9694,-3.9807,-3.9977,-4.0087,-4.0213,-4.0337,-4.0436,-4.0436,-4.0337,-4.0313,-4.0205,-3.9977,-3.9781,-3.9451,-3.9023,-3.8544,-3.7873,-3.7058,-3.6054,-3.5008,-3.3899,-3.2398,-3.1044,-2.9833,-2.8398,-2.7214,-2.6144,0.0,0.0,0.0,0.0,0.0,0.0,0.0,0.0,0.0,0.0,0.0,0.0,0.0,0.0,0.0,0.0,0.0,0.0,0.0,0.0,0.0,0.0,0.0,0.0,0.0,0.0,0.0,-1.6328,-1.6382,0.0,0.0,0.0,0.0,0.0,0.0,-1.81,-1.909,-1.9098,0.0,0.0,0.0,0.0,0.0,0.0,0.0,0.0,0.0,-1.7556,-1.7334,0.0,0.0,-1.7114,-1.7229,-1.7148,-1.7004,-1.7048,-1.6751,-1.6431,-1.6431,-1.6278,-1.62,-1.6524,-1.6581,-1.6722,-1.7155,-1.759,-1.81,-1.8801,-1.9563,-2.0515,-2.197,-2.2812,-2.3918,-2.5947,-2.7181,-2.8561,-3.0412,-3.1482,-3.2483,-3.3563,-3.3797,-3.4565,-3.6336,-3.6623,-3.7334,-3.8881,-3.9425,-3.9729,-3.9849,-3.9875,-4.0003,-4.0255,-4.028,-4.0337,-4.0485,-4.0493,-4.0493,-4.0485,-4.0362,-4.0305,-4.0255,-3.9884,-3.9504,-3.9152,-3.8439,-3.765,-3.6845,-3.5834,-3.4795,-3.3679,-3.2326,-3.1044,-2.9833,-2.8633,-2.7429,-2.6362,0.0,0.0,0.0,0.0,0.0,0.0,0.0,0.0,0.0,0.0,0.0,0.0,0.0,0.0,0.0,0.0,0.0,0.0,0.0,0.0,0.0,0.0,0.0,0.0,0.0,0.0,-1.6137,-1.6234,-1.6262,0.0,0.0,0.0,0.0,0.0,0.0,-1.747,-1.7882,-1.8621,0.0,0.0,0.0,0.0,0.0,0.0,0.0,0.0,0.0,0.0,-1.6986,-1.6785,-1.6485,0.0,-1.6242,-1.6043,0.0,-1.6429,-1.6282,-1.605,-1.633,-1.6249,-1.6171,-1.6513,-1.6712,-1.6965,-1.7434,-1.7644,-1.8055,-1.9032,-1.9585,-2.027,-2.1531,-2.27,-2.3961,-2.5529,-2.6639,-2.8122,-3.04,-3.1127,-3.2003,-3.3515,-3.3873,-3.4515,-3.582,-3.6481,-3.7543,-3.9299,-3.9677,-3.991,-4.013,-4.0155,-4.0205,-4.0305,-4.0453,-4.0576,-4.0624,-4.0704,-4.0704,-4.0624,-4.0485,-4.0387,-4.0305,-3.9884,-3.9478,-3.9034,-3.8399,-3.7608,-3.6693,-3.5642,-3.4662,-3.3644,-3.2182,-3.102,-3.0012,-2.8712,-2.7563,-2.6633,0.0,0.0,0.0,0.0,0.0,0.0,0.0,0.0,0.0,0.0,0.0,0.0,0.0,0.0,0.0,0.0,0.0,0.0,0.0,0.0,0.0,0.0,0.0,0.0,0.0,0.0,-1.6011,-1.6137,-1.6166,-1.6236,0.0,0.0,-1.6316,-1.6291,0.0,0.0,0.0,0.0,0.0,0.0,0.0,0.0,0.0,0.0,0.0,0.0,0.0,0.0,0.0,0.0,0.0,0.0,0.0,0.0,0.0,0.0,-1.5742,-1.5518,-1.5877,-1.5876,-1.5855,-1.6161,-1.6492,-1.6809,-1.7263,-1.7497,-1.7923,-1.8868,-1.9516,-2.0202,-2.1142,-2.2456,-2.3885,-2.5325,-2.624,-2.7708,-3.0429,-3.0977,-3.1772,-3.3508,-3.3975,-3.4543,-3.5504,-3.6651,-3.7908,-3.9344,-3.9766,-4.0062,-4.0305,-4.0379,-4.0429,-4.0429,-4.06,-4.0721,-4.0769,-4.0847,-4.0847,-4.0745,-4.0583,-4.0436,-4.0305,-3.9884,-3.9425,-3.8914,-3.8315,-3.7535,-3.6616,-3.5497,-3.4562,-3.3644,-3.211,-3.1033,-3.0126,-2.8803,-2.7736,-2.6839,0.0,0.0,0.0,0.0,0.0,0.0,0.0,0.0,0.0,0.0,0.0,0.0,0.0,0.0,0.0,0.0,0.0,0.0,0.0,0.0,0.0,0.0,0.0,0.0,0.0,0.0,-1.587,-1.5996,-1.6067,-1.6137,-1.6194,-1.6194,-1.6194,-1.6194,0.0,0.0,0.0,0.0,0.0,0.0,0.0,0.0,0.0,0.0,0.0,0.0,0.0,0.0,0.0,0.0,0.0,0.0,0.0,0.0,0.0,0.0,-1.5117,-1.484,-1.4981,-1.5007,-1.5086,-1.5362,-1.5712,-1.6131,-1.651,-1.7069,-1.7654,-1.819,-1.9334,-2.0378,-2.1,-2.1977,-2.3371,-2.5367,-2.5978,-2.728,-3.0367,-3.1135,-3.1955,-3.3508,-3.405,-3.4643,-3.5529,-3.7275,-3.8488,-3.8774,-3.9606,-4.0163,-4.0288,-4.0551,-4.0697,-4.0697,-4.0697,-4.0769,-4.0912,-4.0912,-4.0912,-4.0894,-4.0631,-4.0436,-4.0305,-3.9884,-3.9372,-3.8777,-3.8173,-3.7447,-3.6616,-3.5415,-3.4476,-3.3644,-3.211,-3.1033,-3.0126,-2.8922,-2.7966,-2.7062,0.0,0.0,0.0,0.0,0.0,0.0,0.0,0.0,0.0,0.0,0.0,0.0,0.0,0.0,0.0,0.0,0.0,0.0,0.0,0.0,0.0,0.0,0.0,0.0,0.0,0.0,-1.5769,-1.5996,-1.6482,-1.6769,-1.6886,-1.7347,-1.7532,-1.7501,-1.7426,-1.7576,0.0,0.0,0.0,0.0,0.0,0.0,-1.8988,0.0,0.0,0.0,0.0,0.0,0.0,0.0,0.0,0.0,0.0,0.0,0.0,-1.4127,-1.4244,-1.443,-1.4992,-1.5086,-1.5102,-1.5569,-1.5902,-1.6272,-1.6748,-1.7003,-1.7453,-1.8784,-1.9409,-2.0125,-2.1481,-2.2329,-2.347,-2.539,-2.5986,-2.728,-3.0367,-3.1151,-3.2004,-3.362,-3.4349,-3.506,-3.5926,-3.7169,-3.8202,-3.8897,-3.9756,-4.0355,-4.0551,-4.0648,-4.0697,-4.0697,-4.0793,-4.0864,-4.0912,-4.0912,-4.0912,-4.0912,-4.0631,-4.0485,-4.0412,-3.9935,-3.9372,-3.8777,-3.8173,-3.7387,-3.6476,-3.535,-3.4476,-3.3644,-3.2245,-3.1121,-3.0165,-2.9106,-2.8075,-2.7103,0.0,0.0,0.0,0.0,0.0,0.0,0.0,0.0,0.0,0.0,0.0,0.0,0.0,0.0,0.0,0.0,0.0,0.0,0.0,0.0,0.0,0.0,0.0,0.0,0.0,-1.5551,-1.5831,-1.6376,-1.6802,-1.7197,-1.7592,-1.8007,-1.816,-1.8113,-1.8034,-1.8074,0.0,0.0,0.0,0.0,0.0,0.0,-1.9064,0.0,0.0,0.0,0.0,0.0,0.0,0.0,0.0,0.0,0.0,0.0,0.0,0.0,-1.3536,-1.3805,0.0,-1.4767,-1.4857,-1.5241,-1.5648,-1.6049,-1.6527,-1.6776,-1.7297,-1.8753,-1.9413,-2.0163,-2.1628,-2.2729,-2.3922,-2.549,-2.6291,-2.7713,-3.0482,-3.1225,-3.2143,-3.3922,-3.457,-3.5153,-3.5802,-3.7019,-3.8027,-3.8621,-3.9759,-4.0527,-4.0697,-4.081,-4.0858,-4.0858,-4.0935,-4.0982,-4.0995,-4.0982,-4.0976,-4.0959,-4.0655,-4.0485,-4.0412,-3.9935,-3.9345,-3.8694,-3.8144,-3.7358,0.0,-3.535,-3.4476,-3.3659,-3.2331,-3.1233,-3.0279,-2.9302,-2.8275,-2.7336,0.0,0.0,0.0,0.0,0.0,0.0,0.0,0.0,0.0,0.0,0.0,0.0,0.0,0.0,0.0,0.0,0.0,0.0,0.0,0.0,0.0,0.0,0.0,0.0,0.0,-1.5551,-1.6055,-1.7,-1.7091,-1.7532,-1.8284,-1.833,-1.8314,-1.8251,-1.817,-1.8406,-1.8908,-1.9471,-1.9687,-1.9644,-1.9611,-1.9413,0.0,0.0,0.0,0.0,0.0,0.0,0.0,0.0,0.0,0.0,0.0,0.0,0.0,0.0,0.0,0.0,0.0,-1.4168,-1.4399,-1.4593,-1.5062,-1.5603,-1.5944,-1.6479,0.0,-1.8334,-1.9374,-2.0432,-2.1547,-2.3147,-2.4639,-2.5642,-2.688,-2.8451,-3.0694,-3.1467,-3.2466,-3.4309,-3.478,-3.5018,-3.5291,-3.6848,-3.7899,-3.8108,-3.9669,-4.0669,-4.0721,-4.0976,-4.1117,-4.1117,-4.1117,-4.1146,-4.1209,-4.1146,-4.1093,-4.1111,-4.0704,-4.0461,-4.0288,-3.991,-3.9319,-3.8583,-3.8116,-3.7358,-3.6429,-3.535,-3.4476,-3.3659,-3.2367,-3.1331,-3.0494,-2.9496,-2.8554,-2.7678,0.0,0.0,0.0,0.0,0.0,0.0,0.0,0.0,0.0,0.0,0.0,0.0,0.0,0.0,0.0,0.0,0.0,0.0,0.0,0.0,0.0,0.0,0.0,0.0,0.0,-1.6039,-1.6562,-1.7,-1.8033,-1.8707,-1.9039,-1.9578,-1.9727,-1.9642,-1.9554,-1.9541,-1.9572,-1.9719,-1.983,-1.9899,-1.9741,-1.9636,0.0,0.0,0.0,0.0,-1.8319,-1.7675,0.0,0.0,0.0,0.0,0.0,0.0,0.0,0.0,-1.2979,-1.2938,-1.3475,0.0,-1.425,-1.4835,-1.5289,-1.568,0.0,-1.6534,-1.7329,-1.8804,0.0,-2.0572,-2.2118,-2.3431,-2.4662,-2.5758,-2.7388,-2.9132,-3.0905,-3.2593,-3.395,-3.4706,-3.5041,-3.5274,-3.5526,-3.6497,-3.7461,-3.8254,-3.9324,-4.025,-4.0965,-4.1105,-4.1226,-4.133,-4.1335,-4.129,-4.1209,-4.1186,-4.1152,-4.1093,-4.0888,-4.068,-4.0436,-4.0037,-3.9451,-3.8722,-3.8144,-3.7358,-3.6429,-3.5494,-3.461,-3.3693,-3.2654,-3.1589,-3.0494,-2.9639,-2.87,-2.7689,0.0,0.0,0.0,0.0,0.0,0.0,0.0,0.0,0.0,0.0,0.0,0.0,0.0,0.0,0.0,0.0,0.0,0.0,0.0,0.0,0.0,0.0,0.0,0.0,-1.5551,-1.6247,-1.6877,-1.7456,-1.8488,-1.9257,-1.9765,-2.0135,-2.022,-2.0098,-2.0025,-1.9955,-1.9884,-1.9884,-1.9919,-1.9988,-1.9884,0.0,0.0,0.0,0.0,0.0,-1.8299,-1.7586,0.0,-1.6042,-1.5298,-1.4574,0.0,0.0,0.0,0.0,-1.2893,-1.2897,-1.3626,-1.4064,-1.4441,-1.4892,-1.5457,-1.602,-1.6426,0.0,0.0,0.0,0.0,0.0,-2.3076,-2.4271,-2.5453,-2.6871,-2.8357,-2.9998,-3.1821,-3.3527,-3.4659,-3.4875,-3.5228,-3.5481,-3.56,-3.657,-3.7545,-3.8436,-3.9352,-4.0245,-4.1094,-4.1226,-4.1318,-4.1403,-4.1471,-4.1471,-4.1386,-4.1318,-4.1249,-4.1129,-4.0982,-4.0752,-4.0485,-4.0087,-3.9547,-3.886,-3.8242,-3.7476,-3.6507,-3.5655,-3.4776,-3.3831,-3.2903,-3.1846,-3.0771,-2.9986,-2.9028,-2.8035,0.0,0.0,0.0,0.0,0.0,0.0,0.0,0.0,0.0,0.0,0.0,0.0,0.0,0.0,0.0,0.0,0.0,0.0,0.0,0.0,0.0,0.0,0.0,-1.5595,-1.5758,-1.6411,-1.7222,-1.8155,-1.8821,-1.9546,-2.0304,-2.0304,-2.022,-2.01,-2.0043,-2.0023,-2.0023,-2.0041,-2.0058,-2.0058,-2.0058,0.0,0.0,0.0,0.0,0.0,0.0,0.0,0.0,-1.5586,-1.4981,-1.4463,-1.3791,0.0,0.0,0.0,0.0,0.0,-1.3937,-1.4449,-1.4812,-1.5042,-1.5724,-1.6432,-1.6833,0.0,0.0,0.0,0.0,0.0,0.0,-2.5136,-2.6419,-2.8182,-2.9577,-3.1142,-3.3072,-3.4233,-3.4923,-3.5018,-3.535,-3.5622,-3.5694,-3.6688,-3.7633,-3.8437,-3.9393,-4.0292,-4.1028,-4.1316,-4.1471,-4.1493,-4.1604,-4.1648,-4.1648,-4.1515,-4.1363,-4.1232,-4.1059,-4.0799,-4.051,-4.0113,-3.9599,-3.8969,-3.8371,-3.7578,-3.6677,-3.5832,-3.4975,-3.4051,-3.315,-3.2151,-3.1158,-3.0381,-2.9431,-2.8459,0.0,0.0,0.0,0.0,0.0,0.0,0.0,0.0,0.0,0.0,0.0,0.0,0.0,0.0,0.0,0.0,0.0,0.0,0.0,0.0,0.0,0.0,-1.5653,-1.5862,-1.644,-1.7157,-1.796,-1.8852,-1.952,-2.0004,-2.0304,-2.0304,-2.022,-2.01,-2.0098,-2.008,-2.0098,-2.0218,-2.0302,-2.0337,-2.0337,0.0,0.0,0.0,0.0,0.0,0.0,0.0,0.0,-1.5839,-1.5182,-1.4465,-1.4124,0.0,0.0,0.0,0.0,0.0,-1.3925,-1.4538,-1.5117,-1.5844,-1.6256,-1.6565,-1.6918,0.0,0.0,0.0,0.0,0.0,0.0,-2.522,-2.6581,-2.8436,-3.0927,-3.3056,-3.4267,-3.4697,-3.5065,-3.5441,-3.5554,-3.5756,-3.6152,-3.6362,-3.6886,-3.7853,-3.875,-3.9608,-4.0468,-4.1301,-4.1797,-4.1902,-4.1941,-4.1941,-4.1941,-4.1688,-4.1515,-4.138,-4.1209,-4.0995,-4.0648,-4.0263,-3.9687,-3.8969,-3.8371,-3.7621,-3.6814,-3.6164,-3.5299,-3.4288,-3.3514,-3.2511,-3.1445,-3.0659,-2.978,-2.8764,0.0,0.0,0.0,0.0,0.0,0.0,0.0,0.0,0.0,0.0,0.0,0.0,0.0,0.0,0.0,0.0,0.0,0.0,0.0,0.0,0.0,-1.6278,-1.6234,-1.6337,-1.665,-1.7712,-1.8487,-1.9004,-1.9671,-2.0096,-2.0304,-2.0304,-2.0287,-2.027,-2.027,-2.0272,-2.0323,-2.0375,-2.0441,-2.0458,0.0,0.0,0.0,0.0,0.0,0.0,0.0,0.0,0.0,0.0,-1.521,-1.4721,-1.4497,0.0,0.0,0.0,0.0,0.0,-1.4611,-1.5054,-1.5511,-1.6573,-1.6854,-1.7046,-1.7668,-1.8626,0.0,0.0,0.0,0.0,0.0,-2.6046,-2.7535,-2.9935,-3.2305,-3.4088,-3.473,-3.5071,-3.5373,-3.5577,-3.5827,-3.6067,-3.628,-3.6447,-3.6963,-3.7874,-3.84,-3.9244,-4.0549,-4.1015,-4.1503,-4.1987,-4.2005,-4.2005,-4.2005,-4.188,-4.171,-4.1515,-4.13,-4.1018,-4.0697,-4.0288,-3.9738,-3.9088,-3.8528,-3.7799,-3.7012,-3.6352,-3.5527,-3.462,-3.3874,-3.2952,-3.1873,-3.0419,-2.9314,-2.8447,0.0,0.0,0.0,0.0,0.0,0.0,0.0,0.0,0.0,0.0,0.0,0.0,0.0,0.0,0.0,0.0,0.0,0.0,0.0,0.0,-1.6157,-1.6682,-1.6845,-1.701,-1.716,-1.8177,-1.8878,-1.9214,-1.9747,-2.0096,-2.0304,-2.0321,-2.0354,-2.0405,-2.0423,-2.0458,-2.051,-2.0527,-2.0561,-2.0578,0.0,0.0,0.0,0.0,0.0,0.0,0.0,0.0,0.0,0.0,0.0,0.0,0.0,0.0,0.0,-1.4163,-1.4119,-1.433,-1.5322,-1.5723,-1.6104,-1.7202,-1.7497,-1.7695,-1.8414,-1.9486,-2.0628,-2.169,0.0,0.0,-2.6,-2.7427,-2.9124,-3.1326,-3.3315,-3.4691,-3.4947,-3.535,-3.5644,-3.5739,-3.6088,-3.6343,-3.6406,-3.669,-3.7136,-3.7815,-3.8144,-3.8899,-4.0223,-4.0473,-4.0884,-4.1526,-4.1742,-4.1848,-4.1827,-4.1984,-4.1945,-4.1648,-4.1386,-4.1088,-4.0769,-4.0337,-3.9825,-3.9302,-3.8722,-3.8046,-3.7298,-3.6662,-3.5879,-3.5019,-3.4235,-3.322,-3.2019,-3.0254,-2.9118,-2.8287,0.0,0.0,0.0,0.0,0.0,0.0,0.0,0.0,0.0,0.0,0.0,0.0,0.0,0.0,0.0,0.0,0.0,0.0,0.0,0.0,-1.6199,-1.6682,-1.7294,-1.7923,-1.8553,-1.8657,-1.9103,-1.9929,-1.9975,-2.0096,-2.0304,-2.0371,-2.0405,-2.0405,-2.0475,-2.0494,-2.051,-2.0627,-2.0727,-2.0778,-2.086,0.0,0.0,0.0,0.0,0.0,0.0,0.0,0.0,0.0,0.0,0.0,0.0,0.0,-1.4716,-1.4531,-1.4768,-1.5198,-1.5739,-1.6378,-1.7035,-1.7558,-1.8053,-1.8468,-1.8721,-1.9954,-2.131,-2.2326,-2.3483,-2.4825,-2.6606,-2.932,-3.1446,-3.1907,-3.3594,-3.497,-3.5222,-3.5458,-3.5761,-3.6195,-3.628,-3.6426,-3.6731,-3.6908,-3.7044,-3.7159,-3.7925,-3.8483,-3.8743,-3.9533,-4.0039,-4.0225,-4.102,-4.1416,-4.1354,-4.1968,-4.21,-4.178,-4.1515,-4.1284,-4.1047,-4.0527,-4.0062,-3.9635,-3.9023,-3.8427,-3.7799,-3.7117,-3.6384,-3.5559,-3.4691,-3.3241,-3.1556,-3.0659,-2.978,-2.8934,0.0,0.0,0.0,0.0,0.0,0.0,0.0,0.0,0.0,0.0,0.0,0.0,0.0,0.0,0.0,0.0,0.0,0.0,0.0,0.0,-1.641,-1.7279,-1.7548,-1.8207,-1.9286,-1.9316,-1.9539,-2.0005,-2.0146,-2.025,-2.0371,-2.0388,-2.0474,-2.0592,-2.061,-2.0662,-2.0762,-2.0795,-2.0892,-2.099,-2.1022,-2.1054,0.0,0.0,0.0,0.0,0.0,0.0,0.0,0.0,-1.608,-1.5897,-1.558,-1.5313,-1.5071,-1.4875,-1.5119,-1.5561,-1.6115,-1.6716,-1.7334,-1.7924,-1.8879,0.0,0.0,-2.0609,-2.189,-2.3373,-2.4565,-2.5986,-2.8046,-3.029,-3.1947,-3.2321,-3.3846,-3.5135,-3.5458,-3.5773,-3.6041,-3.628,-3.6468,-3.669,-3.6891,-3.7009,-3.7127,-3.728,-3.7677,-3.8162,-3.8756,-3.9189,-3.9639,-4.0143,-4.0486,-4.0881,-4.1346,-4.157,-4.1823,-4.21,-4.1714,-4.1375,-4.107,-4.0648,-4.0163,-3.9677,-3.9158,-3.8567,-3.7985,-3.7431,-3.6738,-3.5879,-3.4558,-3.322,-3.2019,-3.1196,-3.0381,-2.9535,0.0,0.0,0.0,0.0,0.0,0.0,0.0,0.0,0.0,0.0,0.0,0.0,0.0,0.0,0.0,0.0,0.0,0.0,-1.601,-1.5996,-1.641,-1.7339,-1.7578,-1.8222,-1.9346,-1.9621,-1.9815,-2.0005,-2.0218,-2.0371,-2.0405,-2.0474,-2.0592,-2.0727,-2.076,-2.0827,-2.0958,-2.0958,-2.1022,-2.1135,-2.1135,-2.1183,0.0,0.0,0.0,0.0,0.0,0.0,0.0,0.0,-1.6301,-1.6137,-1.5855,-1.558,-1.5358,-1.518,-1.5565,-1.6118,-1.6487,-1.7166,-1.7874,-1.8319,0.0,0.0,-2.0536,-2.137,-2.2628,-2.4369,-2.5879,-2.7426,-2.9069,-3.0677,-3.1893,-3.2226,-3.3767,-3.5014,-3.5267,-3.5843,-3.6293,-3.6402,-3.667,-3.6908,-3.7029,-3.7127,-3.7261,-3.7448,-3.7577,-3.79,-3.8546,-3.869,-3.8995,-3.9481,-3.9788,-4.0202,-4.0705,-4.1151,-4.1554,-4.1912,-4.1849,-4.1626,-4.1238,-4.0823,-4.037,-3.9935,-3.9425,-3.8871,-3.8286,-3.777,-3.6952,-3.5911,-3.4576,-3.35,-3.2583,-3.17,-3.0884,-3.0063,0.0,0.0,0.0,0.0,0.0,0.0,0.0,0.0,0.0,0.0,0.0,0.0,0.0,0.0,0.0,0.0,0.0,0.0,-1.601,-1.5996,-1.6199,-1.6682,-1.7339,-1.8012,-1.8687,-1.9431,-1.9866,-2.0005,-2.0268,-2.0405,-2.0405,-2.0609,-2.0727,-2.0811,-2.0877,-2.0974,-2.1103,-2.1103,-2.1135,-2.1215,-2.1278,-2.134,-2.1271,0.0,0.0,0.0,0.0,0.0,0.0,0.0,-1.6517,-1.6371,-1.6165,-1.587,-1.558,-1.5463,-1.6168,-1.6978,-1.684,-1.7805,-1.8798,-1.8731,0.0,0.0,-2.1161,-2.2183,-2.3569,-2.5262,-2.7365,-2.902,-2.9425,-3.0492,-3.1375,-3.1555,-3.3225,-3.4532,-3.4661,-3.5612,-3.6385,-3.6647,-3.6851,-3.7011,-3.7073,-3.7262,-3.7449,-3.7577,-3.7649,-3.7739,-3.7899,-3.7967,-3.8001,-3.8001,-3.8918,-3.9317,-3.9193,-4.0781,-4.1405,-4.1109,-4.1915,-4.204,-4.1582,-4.1105,-4.0752,-4.0485,-3.9935,-3.9372,-3.8777,-3.8144,-3.7027,-3.5655,-3.4909,-3.407,-3.3199,-3.2196,-3.1318,-3.0469,0.0,0.0,0.0,0.0,0.0,0.0,0.0,0.0,0.0,0.0,0.0,0.0,0.0,0.0,0.0,0.0,0.0,0.0,-1.601,-1.597,-1.6171,-1.6682,-1.7339,-1.806,-1.8821,-1.9624,-2.0028,-2.0063,-2.0287,-2.0424,-2.046,-2.0627,-2.076,-2.0877,-2.0877,-2.1006,-2.1167,-2.1167,-2.1247,-2.134,-2.1371,-2.1433,-2.1379,0.0,0.0,0.0,0.0,0.0,0.0,0.0,0.0,0.0,-1.6248,-1.6039,-1.5946,-1.6233,-1.6741,-1.7289,-1.7684,-1.8372,0.0,-1.9003,0.0,0.0,-2.151,-2.25,-2.394,-2.5951,-2.7538,-2.8812,-2.9701,-3.0757,-3.1598,-3.1901,-3.2938,-3.3854,-3.4151,-3.4559,-3.4916,-3.5187,-3.5356,-3.5522,-3.5687,-3.5794,-3.6132,-3.6827,-3.7088,-3.7458,-3.8017,-3.8186,-3.8285,-3.8285,-3.8556,-3.8942,-3.9404,-3.9786,-4.0474,-4.1442,-4.1461,-4.1526,-4.1582,-4.1272,-4.0924,-4.0624,-4.0171,-3.967,-3.9125,-3.8112,-3.7177,-3.6321,-3.5482,-3.4629,-3.3776,-3.296,-3.2078,-3.1172,0.0,0.0,0.0,0.0,0.0,0.0,0.0,0.0,0.0,0.0,0.0,0.0,0.0,0.0,0.0,0.0,0.0,0.0,0.0,-1.5913,-1.6022,-1.6323,-1.7267,-1.8279,-1.9336,-1.9901,-2.0185,-2.022,-2.0373,-2.0492,-2.0594,-2.0727,-2.0844,-2.0974,-2.1006,-2.1119,-2.1278,-2.1278,-2.1372,-2.148,-2.151,-2.1572,-2.1486,0.0,0.0,0.0,0.0,0.0,0.0,0.0,0.0,0.0,-1.6382,-1.622,-1.6176,-1.6638,-1.7111,-1.7585,-1.8159,-1.875,0.0,-1.9302,-2.0425,-2.1759,-2.2626,-2.3624,-2.4762,-2.6145,-2.7556,-2.8796,-2.9512,-3.0523,-3.1341,-3.1692,-3.2496,-3.3196,-3.3517,-3.3969,-3.4352,-3.4581,-3.4781,-3.496,-3.5118,-3.5221,-3.5538,-3.6158,-3.6699,-3.721,-3.768,-3.8154,-3.8399,-3.8399,-3.8399,-3.8603,-3.9066,-3.9256,-3.9822,-4.0691,-4.0792,-4.0875,-4.0927,-4.124,-4.1203,-4.0871,-4.0288,-3.9596,-3.8811,-3.7862,-3.6962,-3.6065,-3.5201,-3.4547,-3.4012,-3.3132,-3.239,-3.1653,0.0,0.0,0.0,0.0,0.0,0.0,0.0,0.0,0.0,0.0,0.0,0.0,0.0,0.0,0.0,0.0,0.0,0.0,0.0,0.0,-1.5871,-1.5813,-1.7151,-1.8593,-2.0085,-2.0252,-2.0339,-2.0405,-2.0492,-2.0578,-2.071,-2.0828,-2.0974,-2.1103,-2.1183,-2.1278,-2.1402,-2.1402,-2.1495,-2.1603,-2.1679,-2.1693,-2.1559,-2.0149,0.0,0.0,0.0,0.0,0.0,0.0,0.0,0.0,-1.6554,-1.6369,-1.6334,-1.6864,-1.736,-1.7847,-1.8456,-1.9025,-1.9501,-1.9667,-2.0782,-2.2309,-2.4127,-2.5108,-2.5723,-2.5993,-2.7405,-2.8712,-2.9054,-2.9939,-3.0747,-3.1134,-3.1947,-3.2586,-3.28,-3.3632,-3.4274,-3.4407,-3.4659,-3.4871,-3.499,-3.5126,-3.5297,-3.5495,-3.6295,-3.6896,-3.7105,-3.7874,-3.8342,-3.8433,-3.8433,-3.8415,-3.8415,-3.9066,-3.9381,-3.9332,-3.9986,-4.0182,-3.9987,-4.098,-4.1265,-4.0932,-4.0116,-3.9126,-3.8022,-3.7486,-3.6516,-3.5303,-3.45,-3.4137,-3.394,-3.2963,-3.2375,-3.1938,0.0,0.0,0.0,0.0,0.0,0.0,0.0,0.0,0.0,0.0,0.0,0.0,0.0,0.0,0.0,0.0,0.0,0.0,0.0,0.0,-1.5827,-1.5885,-1.7273,-1.8707,-2.0085,-2.0287,-2.0407,-2.0477,-2.0594,-2.0694,-2.0778,-2.086,-2.1006,-2.1183,-2.1246,-2.1324,-2.1402,-2.1511,-2.1603,-2.1679,-2.1694,-2.1723,-2.1617,-2.016,-1.9601,0.0,0.0,0.0,0.0,0.0,0.0,0.0,-1.6636,-1.6436,-1.6493,-1.7608,-1.7928,-1.8163,-1.9236,-1.9689,0.0,-2.0496,-2.1801,-2.3286,-2.4598,-2.5076,-2.5449,-2.6226,-2.6839,-2.7649,-2.9081,-2.9703,-3.0281,-3.1133,-3.1583,-3.1913,-3.2226,-3.2581,-3.288,-3.3017,-3.3219,-3.3367,-3.3482,-3.3643,-3.4053,-3.4759,-3.5109,-3.5851,-3.7204,-3.7534,-3.7983,-3.8624,-3.8643,-3.8593,-3.8478,-3.8645,-3.8998,-3.9537,-3.953,-3.9842,-4.0347,-4.0194,-3.9786,-3.9222,-3.8854,-3.8347,-3.7676,-3.7226,-3.659,-3.5806,-3.5134,-3.4432,-3.3664,-3.2771,-3.2259,-3.1881,0.0,0.0,0.0,0.0,0.0,0.0,0.0,0.0,0.0,0.0,0.0,0.0,0.0,0.0,0.0,0.0,0.0,0.0,0.0,0.0,-1.6035,-1.6454,-1.7517,-1.8619,-1.9745,-2.022,-2.0492,-2.061,-2.0728,-2.0811,-2.0844,-2.0942,-2.1087,-2.1246,-2.1324,-2.1433,-2.1556,-2.1619,-2.1694,-2.1753,-2.1753,-2.1768,-2.1647,-2.016,-1.9601,-1.9389,-1.7852,0.0,0.0,0.0,0.0,0.0,0.0,0.0,-1.6633,-1.7853,-1.8144,-1.8355,-1.9574,0.0,0.0,-2.1387,0.0,-2.3885,-2.4831,-2.5201,-2.5506,-2.6088,-2.6602,-2.7252,-2.826,-2.9278,-3.015,-3.0772,-3.1338,-3.1801,-3.2055,-3.2267,-3.2457,-3.2589,-3.277,-3.2948,-3.3042,-3.3229,-3.3544,-3.4035,-3.4543,-3.5224,-3.6113,-3.6626,-3.7276,-3.8102,-3.812,-3.8288,-3.859,-3.8525,-3.8679,-3.9067,-3.8937,-3.9038,-3.937,-3.9578,-3.9458,-3.9019,-3.8688,-3.8083,-3.7326,-3.6891,-3.6149,-3.5218,-3.4568,-3.4042,-3.3528,-3.2627,-3.2158,-3.1867,0.0,0.0,0.0,0.0,0.0,0.0,0.0,0.0,0.0,0.0,0.0,0.0,0.0,0.0,0.0,0.0,0.0,0.0,0.0,0.0,0.0,-1.7074,-1.7654,-1.8361,-1.9214,-1.9839,-2.0296,-2.0538,-2.0669,-2.0798,-2.0958,-2.1071,-2.1183,-2.1324,-2.1402,-2.1541,-2.1709,-2.1724,-2.1753,-2.1812,-2.1812,-2.1812,-2.1663,-2.0293,-1.9796,-1.9601,-1.8033,-1.7474,-1.7433,-1.7178,0.0,0.0,0.0,0.0,-1.6712,-1.779,-1.8161,-1.8484,-1.9609,0.0,-2.0714,-2.218,-2.3268,-2.4189,-2.4968,-2.5375,-2.5672,-2.586,-2.6465,-2.704,-2.7359,-2.8673,-2.9809,-3.0132,-3.0881,-3.1494,-3.169,-3.2021,-3.2297,-3.2395,-3.2731,-3.2995,-3.3086,-3.3286,-3.3452,-3.3506,-3.425,-3.4755,-3.4916,-3.5665,-3.6479,-3.7287,-3.732,-3.7706,-3.8517,-3.842,-3.8444,-3.8556,-3.8462,-3.8334,-3.8189,-3.9029,-3.929,-3.903,-3.8618,-3.7888,-3.6948,-3.6512,-3.5645,-3.4505,-3.3899,-3.3571,-3.3385,-3.2479,-3.2038,-3.1789,0.0,0.0,0.0,0.0,0.0,0.0,0.0,0.0,0.0,0.0,0.0,0.0,0.0,0.0,0.0,0.0,0.0,0.0,-1.5885,0.0,0.0,-1.7074,-1.7314,-1.7759,-1.8517,-1.8733,-1.9201,-1.9925,-2.0004,-2.0432,-2.1151,-2.1183,-2.1262,-2.1386,-2.1527,-2.1619,-2.1693,-2.1753,-2.1797,-2.1812,-2.1812,-2.1812,-2.1713,-2.0868,-2.0553,-2.0343,-1.8743,-1.8182,-1.8058,-1.734,-1.7007,0.0,0.0,0.0,-1.6658,-1.7462,-1.8046,-1.8625,-1.9371,0.0,-2.1615,0.0,-2.3343,-2.4135,-2.5061,-2.5429,-2.5672,-2.586,-2.6125,-2.6571,-2.742,-2.7869,-2.8385,-2.9227,-2.9661,-2.9937,-3.0089,-3.0983,-3.1635,-3.165,-3.2489,-3.307,-3.3101,-3.3331,-3.3506,-3.3577,-3.3766,-3.4183,-3.4954,-3.517,-3.5653,-3.6532,-3.6606,-3.7022,-3.7829,-3.7815,-3.8122,-3.8762,-3.8572,-3.8446,-3.8368,-3.8319,-3.808,-3.7656,-3.7408,-3.7038,-3.6558,-3.6195,-3.5622,-3.488,-3.4382,-3.3736,-3.2982,-3.2224,-3.1856,-3.1594,0.0,0.0,0.0,0.0,0.0,0.0,0.0,0.0,0.0,0.0,0.0,0.0,0.0,0.0,0.0,-1.5867,-1.5912,-1.5941,-1.6012,-1.6067,-1.6275,-1.6652,-1.7064,-1.7521,-1.7995,-1.843,-1.9072,-1.9923,-1.9968,-2.0413,-2.1199,-2.1278,-2.1371,-2.1527,-2.1619,-2.1694,-2.1753,-2.1797,-2.1811,-2.1855,-2.1855,-2.1855,-2.1772,-2.1043,-2.073,-2.0539,-1.935,-1.8919,-1.8843,-1.8429,-1.7936,-1.7508,-1.7466,0.0,0.0,0.0,-1.8056,-1.8779,-1.9891,-2.0892,-2.1772,0.0,-2.3208,-2.4193,-2.4695,-2.529,-2.5787,-2.5879,-2.6133,-2.6498,-2.6904,-2.7519,-2.81,-2.8527,-2.9213,-2.9726,-2.9794,-3.0384,-3.0818,-3.0818,-3.1413,-3.1987,-3.2433,-3.2734,-3.3085,-3.3569,-3.3698,-3.394,-3.4357,-3.4402,-3.4847,-3.5754,-3.5818,-3.62,-3.7013,-3.7031,-3.739,-3.8129,-3.845,-3.8559,-3.8446,-3.8287,-3.8019,-3.7667,-3.7392,-3.705,-3.6632,-3.6301,-3.5849,-3.527,-3.4739,-3.4109,-3.3429,-3.2598,-3.1989,-3.15,0.0,0.0,0.0,0.0,0.0,0.0,0.0,0.0,0.0,0.0,0.0,0.0,0.0,0.0,0.0,0.0,-1.5996,-1.6039,-1.6095,-1.6137,-1.6207,-1.6301,-1.6823,-1.7216,-1.7427,-1.7961,-1.8746,-1.9773,-1.9817,-2.0344,-2.1246,-2.1387,-2.151,-2.1635,-2.1679,-2.1738,-2.1812,-2.1811,-2.1855,-2.1913,-2.1911,-2.1928,-2.1849,-2.1501,-2.1192,-2.0886,-2.0216,-1.9851,-1.9642,-1.9321,-1.8804,-1.8272,-1.8203,-1.7668,0.0,0.0,0.0,-1.8934,0.0,0.0,-2.1563,-2.1907,-2.284,-2.3795,-2.4285,-2.5025,-2.5668,-2.5848,-2.6187,-2.6468,-2.6485,-2.7216,-2.7793,-2.781,-2.8558,-2.917,-2.9202,-2.9632,-2.9973,-2.9986,-3.0454,-3.1006,-3.1639,-3.2099,-3.2611,-3.324,-3.3602,-3.382,-3.3895,-3.3908,-3.4242,-3.4971,-3.5003,-3.5404,-3.625,-3.6426,-3.6791,-3.7358,-3.8085,-3.8377,-3.8279,-3.8293,-3.8224,-3.7986,-3.7631,-3.7261,-3.6893,-3.653,-3.611,-3.5644,-3.5071,-3.4497,-3.3899,-3.3044,-3.2299,-3.1583,0.0,0.0,0.0,0.0,0.0,0.0,0.0,0.0,0.0,0.0,0.0,0.0,-1.4029,-1.4638,-1.5281,-1.5935,-1.5996,-1.6039,-1.6095,-1.6219,-1.6301,-1.6301,-1.6521,0.0,-1.6657,-1.6881,-1.7703,-1.9138,-1.9153,-1.9919,-2.1386,-2.1527,-2.1635,-2.1694,-2.1709,-2.1738,-2.1796,-2.1869,-2.1899,-2.1913,-2.1969,-2.1955,-2.1965,-2.2632,-2.242,-2.1731,-2.1609,-2.109,-2.033,-1.9558,-1.9186,-1.9042,-1.8956,-1.8389,-1.7747,0.0,0.0,0.0,0.0,-2.0826,0.0,-2.1815,-2.2123,-2.2592,-2.406,-2.4635,-2.5045,-2.575,-2.6134,-2.6347,-2.6485,-2.6759,-2.6977,-2.7059,-2.7222,-2.7414,-2.7602,-2.8399,-2.9009,-2.9142,-3.0012,-3.0674,-3.0855,-3.1679,-3.2268,-3.2456,-3.3232,-3.3766,-3.3895,-3.3959,-3.4042,-3.4173,-3.4216,-3.4668,-3.5535,-3.6255,-3.6609,-3.6665,-3.7339,-3.765,-3.7654,-3.8165,-3.8352,-3.8257,-3.7863,-3.754,-3.7239,-3.6774,-3.6343,-3.5932,-3.5458,-3.4859,-3.4184,-3.3455,-3.2738,-3.2023,0.0,0.0,0.0,0.0,0.0,0.0,0.0,0.0,0.0,0.0,0.0,0.0,0.0,-1.5129,-1.5533,-1.62,-1.6262,-1.6275,-1.6303,-1.6344,-1.6612,-1.7174,-1.7275,-1.759,-1.8191,-1.8278,-1.8843,-1.9928,-1.9928,-2.049,-2.1527,-2.1619,-2.1679,-2.1709,-2.1738,-2.1783,-2.1796,-2.1869,-2.1926,-2.202,-2.261,-2.2826,-2.288,-2.3524,-2.3563,-2.3268,-2.3158,-2.2865,-2.2425,-2.1627,-2.0982,-2.0423,-1.9927,-1.9227,-1.8631,-1.896,-1.923,-1.9609,-2.0541,-2.0828,0.0,-2.1325,-2.1823,-2.2389,-2.2989,-2.3989,-2.4865,-2.5144,-2.5769,-2.6347,-2.6485,-2.6657,-2.6825,-2.6992,-2.7103,-2.7261,-2.7405,-2.7847,-2.8152,-2.8197,-2.8713,-2.9276,-2.9862,-3.0355,-3.0885,-3.1447,-3.1905,-3.2201,-3.2285,-3.2883,-3.326,-3.3321,-3.3901,-3.4346,-3.4674,-3.5472,-3.586,-3.5845,-3.6546,-3.6864,-3.6844,-3.7397,-3.7619,-3.7592,-3.7769,-3.7667,-3.7336,-3.7009,-3.6591,-3.6131,-3.5577,-3.5031,-3.4472,-3.3781,-3.3007,-3.2203,0.0,0.0,0.0,0.0,0.0,0.0,0.0,0.0,0.0,-1.3755,0.0,0.0,0.0,0.0,-1.6006,-1.6706,-1.6768,-1.6782,-1.6796,-1.6823,-1.7109,-1.7721,-1.8015,-1.8479,-1.9131,-1.9161,-1.9573,-2.0435,-2.0435,-2.0855,-2.1619,-2.1679,-2.1724,-2.1738,-2.1783,-2.1796,-2.184,-2.1913,-2.212,-2.2492,-2.3087,-2.3456,-2.3728,-2.4341,-2.4362,-2.4115,-2.4249,-2.4033,-2.362,-2.3079,-2.2346,-2.1584,-2.1069,-2.0186,-1.9408,-1.9749,-1.9877,-2.002,-2.0702,-2.0925,-2.099,-2.1119,-2.1536,-2.202,-2.2329,-2.3453,-2.447,-2.4751,-2.5551,-2.6259,-2.6416,-2.6521,-2.6657,-2.6925,-2.7039,-2.7152,-2.7312,-2.7448,-2.7565,-2.7686,-2.7893,-2.8294,-2.8923,-2.9386,-2.9927,-3.055,-3.0974,-3.1263,-3.1384,-3.1986,-3.2508,-3.2895,-3.3474,-3.3918,-3.4197,-3.4773,-3.5033,-3.4975,-3.5742,-3.6062,-3.6016,-3.6555,-3.6796,-3.6817,-3.7008,-3.7238,-3.7448,-3.7126,-3.6713,-3.6237,-3.5694,-3.5171,-3.4691,-3.4,-3.3261,-3.2492,0.0,0.0,0.0,0.0,0.0,0.0,0.0,0.0,-1.4756,-1.4653,0.0,0.0,0.0,0.0,0.0,-1.748,-1.7543,-1.7557,-1.763,-1.7699,-1.7769,-1.787,-1.8681,-1.9179,-1.9264,-1.9337,-1.975,-2.0539,-2.0539,-2.0944,-2.1693,-2.1693,-2.1738,-2.1796,-2.1796,-2.184,-2.1897,-2.1969,-2.2509,-2.3306,-2.3397,-2.3836,-2.4501,-2.5145,-2.4879,-2.4297,-2.4962,-2.461,-2.3833,-2.3784,-2.3193,-2.2491,-2.2327,-2.1263,-2.0063,-2.0047,-2.0031,-2.0191,0.0,0.0,0.0,-2.1183,-2.1199,-2.1408,-2.2199,-2.2996,-2.3797,-2.4602,-2.5412,-2.6048,-2.626,-2.6295,-2.6418,-2.6809,-2.6893,-2.6975,-2.7166,-2.7197,-2.7322,-2.7657,-2.7701,-2.7836,-2.8154,-2.8887,-2.9474,-2.9727,-3.0477,-3.1033,-3.1298,-3.136,-3.1814,-3.2827,-3.2954,-3.3361,-3.416,-3.4179,-3.4161,-3.4117,-3.4892,-3.5219,-3.5188,-3.5714,-3.5957,-3.5942,-3.5636,-3.6287,-3.7505,-3.7111,-3.6661,-3.619,-3.5732,-3.5253,-3.4794,-3.4118,-3.3507,-3.2846,0.0,0.0,0.0,0.0,0.0,0.0,-1.4908,-1.4874,-1.5027,0.0,0.0,0.0,-1.7154,-1.7838,-1.8362,-1.8567,-1.8583,-1.8583,-1.8614,-1.8626,-1.8938,-1.9583,-1.9837,-2.0267,-2.0922,-2.0953,-2.1096,-2.1383,-2.1383,-2.1511,-2.1768,-2.1768,-2.1796,-2.1869,-2.1869,-2.1959,-2.2109,-2.203,-2.2509,-2.3339,-2.3953,-2.4628,-2.5391,-2.6486,-2.675,-2.6631,-2.7253,-2.7257,-2.678,-2.5671,-2.5089,-2.4557,-2.2844,-2.2003,-2.1553,-2.0975,-2.0815,-2.0831,-2.1039,0.0,0.0,0.0,0.0,0.0,-2.1552,-2.2232,-2.3046,-2.3899,-2.4723,-2.5487,-2.616,-2.6295,-2.6365,-2.6589,-2.6691,-2.6842,-2.704,-2.7135,-2.7228,-2.7322,-2.7524,-2.7689,-2.7818,-2.8177,-2.8461,-2.864,-2.8945,-2.9186,-2.9366,-3.0112,-3.0937,-3.1857,-3.2526,-3.2958,-3.3192,-3.3753,-3.4049,-3.4023,-3.4199,-3.4249,-3.4219,-3.4844,-3.5081,-3.4996,-3.5337,-3.5609,-3.5776,-3.5469,-3.5074,-3.4605,-3.4168,-3.4046,-3.4027,-3.3445,-3.3154,-3.29,0.0,0.0,0.0,0.0,0.0,-1.6015,-1.5919,-1.6133,-1.6427,0.0,0.0,0.0,-1.8356,-1.9031,-1.9449,-1.942,-1.9434,-1.9479,-1.9539,-1.9567,-1.9818,-2.0358,-2.0683,-2.1102,-2.1634,-2.1634,-2.1679,-2.1738,-2.1738,-2.1783,-2.184,-2.184,-2.1884,-2.194,-2.194,-2.2032,-2.2183,-2.212,-2.2755,-2.3838,-2.4306,-2.5304,-2.659,-2.7311,-2.7759,-2.8039,-2.8341,-2.8337,-2.8036,-2.7098,-2.6295,-2.5366,-2.3429,-2.2796,-2.2715,-2.2229,-2.21,-2.21,-2.21,-2.2117,-2.2166,-2.2166,0.0,0.0,-2.1762,-2.2118,-2.2606,-2.3145,-2.4112,-2.5069,-2.564,-2.599,-2.6241,-2.6399,-2.6469,-2.6624,-2.6842,-2.694,-2.7037,-2.7133,-2.7324,-2.7478,-2.7597,-2.7751,-2.7911,-2.8099,-2.8196,-2.8313,-2.8497,-2.921,-3.0003,-3.084,-3.1446,-3.2078,-3.2742,-3.3247,-3.3653,-3.3959,-3.3921,-3.3842,-3.3771,-3.4122,-3.4229,-3.412,-3.4353,-3.4324,-3.4124,-3.3776,-3.3797,-3.3948,-3.3556,-3.3376,-3.3274,-3.2816,-3.2471,-3.216,0.0,0.0,0.0,-1.7526,-1.7524,-1.7498,-1.7433,-1.7986,-1.8402,0.0,-1.9048,-1.953,-1.9501,-2.01,-2.0489,-2.0428,-2.049,-2.0518,-2.0547,-2.0619,-2.0659,-2.0621,-2.126,-2.165,-2.1708,-2.1708,-2.1753,-2.1811,-2.1811,-2.1855,-2.1897,-2.1897,-2.194,-2.2013,0.0,0.0,-2.2214,-2.2298,-2.3165,-2.4491,-2.4491,-2.5828,-2.7789,-2.782,-2.8234,-2.8812,-2.8746,-2.8627,-2.8418,-2.8197,-2.7056,-2.5486,-2.416,-2.3674,-2.3593,-2.3512,-2.3496,-2.3496,-2.3496,-2.3496,-2.3496,-2.3496,-2.301,0.0,-2.2523,-2.2523,-2.254,-2.2622,-2.3682,-2.4664,-2.4937,-2.5465,-2.5947,-2.6226,-2.626,-2.6365,-2.664,-2.6674,-2.6775,-2.7038,-2.7117,-2.7246,-2.745,-2.7511,-2.7662,-2.7911,-2.7986,-2.8095,-2.834,-2.8612,-2.9089,-2.9811,-3.01,-3.0943,-3.2391,-3.2631,-3.3073,-3.3739,-3.3831,-3.3807,-3.3671,-3.3619,-3.3491,-3.3349,-3.3088,-3.2902,-3.2724,-3.2371,-3.2801,-3.3707,-3.3301,-3.2928,-3.2519,-3.2119,-3.1646,-3.1133,-1.78,0.0,0.0,-1.7584,-1.797,-1.8269,-1.8202,-1.8746,-1.9181,-1.9168,-2.0313,-2.1377,-2.1935,-2.2638,-2.308,-2.3063,-2.308,-2.2851,-2.2262,-2.2229,-2.2013,-2.1482,-2.1597,-2.1738,-2.1855,-2.1855,-2.1882,-2.1955,-2.1955,-2.1969,-2.1984,-2.1984,-2.2046,-2.2168,-2.2168,-2.2211,-2.2316,-2.2907,-2.368,-2.4491,-2.4491,-2.5828,-2.7857,-2.8374,-2.8971,-2.958,-3.0099,-3.0177,-2.9935,-2.9153,-2.7849,-2.6395,-2.5473,-2.4774,-2.4209,-2.3658,-2.3496,-2.3496,-2.3496,-2.3496,-2.3496,-2.3496,-2.3382,0.0,-2.3285,-2.3285,-2.3302,-2.3371,-2.36,-2.4026,-2.4719,-2.495,-2.5264,-2.5964,-2.6064,-2.617,-2.6486,-2.6589,-2.6657,-2.6758,-2.6875,-2.7024,-2.7166,-2.7198,-2.7308,-2.7587,-2.7853,-2.8011,-2.8085,-2.8327,-2.8544,-2.8719,-2.9535,-3.0122,-3.0445,-3.1793,-3.2551,-3.2688,-3.3346,-3.3619,-3.3534,-3.3466,-3.3349,-3.3147,-3.2995,-3.2787,-3.2541,-3.2301,-3.2211,-3.2193,-3.1791,-3.17,-3.177,-3.1416,-3.1314,-3.1281,-1.78,-1.8041,-1.8247,-1.8212,-1.8747,-1.9184,-1.9142,-1.9751,-2.0205,-2.0205,-2.1481,-2.2674,-2.3372,-2.3785,-2.3968,-2.3918,-2.3968,-2.3852,-2.3455,-2.3486,-2.3336,-2.3,-2.3,-2.303,-2.3106,-2.3106,-2.2938,-2.2599,-2.2599,-2.2429,-2.2106,-2.2106,-2.2152,-2.224,-2.224,-2.2471,-2.2868,-2.3241,-2.4036,-2.505,-2.505,-2.6387,-2.845,-2.8768,-2.9501,-3.0375,-3.068,-3.0651,-3.0327,-2.9478,-2.8612,-2.7769,-2.6977,-2.6224,-2.5519,-2.5197,-2.4841,-2.4547,-2.4547,-2.4547,-2.4547,-2.4547,-2.4274,0.0,0.0,-2.3739,-2.3513,-2.3548,-2.3548,-2.381,-2.4599,-2.4763,-2.501,-2.5821,-2.5954,-2.6008,-2.6169,-2.6329,-2.6486,-2.6589,-2.6691,-2.6792,-2.6874,-2.6957,-2.7087,-2.7277,-2.7569,-2.7751,-2.7751,-2.8039,-2.8191,-2.8191,-2.8824,-2.9334,-2.9745,-3.0675,-3.156,-3.2361,-3.2789,-3.3166,-3.3452,-3.3408,-3.3241,-3.2993,-3.2884,-3.2707,-3.244,-3.2161,-3.1912,-3.1671,-3.1327,-3.115,-3.1031,-3.0751,-3.0513,-3.0283,-1.8003,-1.8458,-1.886,-1.9016,-1.9635,-2.0112,-2.0116,-2.0753,-2.1273,-2.1424,-2.2714,-2.3873,-2.4561,-2.4779,-2.4863,-2.4896,-2.4996,-2.5013,-2.4862,-2.4761,-2.4659,-2.4524,-2.439,-2.4306,-2.4322,-2.4322,-2.402,-2.3449,-2.3315,-2.2958,-2.243,-2.2295,-2.2324,-2.2499,-2.2499,-2.2919,-2.3613,-2.3765,-2.4509,-2.5625,-2.5897,-2.7215,-2.9027,-2.9162,-2.9966,-3.0995,-3.0892,-3.0671,-3.0318,-2.9725,-2.928,-2.8897,-2.8294,-2.7546,-2.6879,-2.6879,-2.6377,-2.5807,-2.5807,-2.571,-2.5597,-2.5597,-2.5146,-2.4709,0.0,0.0,0.0,-2.3723,-2.369,-2.3886,-2.4543,-2.4674,-2.492,-2.573,-2.5862,-2.5862,-2.5897,-2.6099,-2.6277,-2.6415,-2.6485,-2.6555,-2.6657,-2.6759,-2.6892,-2.6989,-2.7246,-2.7404,-2.7404,-2.7721,-2.7896,-2.7896,-2.8178,-2.8645,-2.93,-2.9646,-3.0476,-3.1764,-3.216,-3.2609,-3.3132,-3.3262,-3.3183,-3.29,-3.2787,-3.2608,-3.2336,-3.202,-3.1766,-3.1559,-3.1269,-3.0895,-3.0485,-3.0253,-2.9798,-2.9243,-1.8775,-1.8843,-1.9089,-1.9744,-2.0413,-2.0878,-2.0874,-2.1563,-2.2295,-2.2954,-2.4271,-2.543,-2.615,-2.6821,-2.7474,-2.8109,-2.8176,-2.791,-2.7256,-2.6603,-2.5966,-2.5313,-2.4642,-2.4338,-2.4384,-2.4384,-2.4381,-2.4342,-2.3699,-2.3344,-2.3243,-2.26,-2.2634,-2.3274,-2.3274,-2.368,-2.4423,-2.5067,-2.5456,-2.5711,-2.7012,-2.8129,-2.9077,-2.9736,-3.0403,-3.0975,-3.0794,-3.063,-3.0468,-3.0302,-2.9753,-2.905,-2.8934,-2.8273,-2.7591,-2.7591,-2.7106,-2.6571,-2.6571,-2.6102,-2.5597,-2.5597,-2.5532,-2.5468,-2.5468,0.0,-2.5179,-2.4515,0.0,-2.4419,-2.4518,0.0,0.0,-2.5587,-2.5719,-2.5772,-2.5881,-2.5934,-2.6025,-2.6203,-2.6239,-2.631,-2.6486,-2.6606,-2.664,-2.6657,-2.6909,-2.7056,-2.7056,-2.7373,-2.7557,-2.7557,-2.7868,-2.812,-2.8265,-2.9128,-2.9669,-2.9917,-3.1355,-3.2093,-3.2172,-3.2783,-3.2979,-3.29,-3.2705,-3.2455,-3.2197,-3.2002,-3.1764,-3.1479,-3.1151,-3.0814,-3.0447,-3.0146,-2.9732,-2.922,-1.9049,-1.9678,-2.0403,-2.0739,-2.1406,-2.2007,-2.2437,-2.3192,-2.4122,-2.5295,-2.5959,-2.6792,-2.7996,-2.8403,-2.869,-2.8924,-2.8922,-2.8786,-2.8445,-2.8124,-2.7803,-2.75,-2.718,-2.7029,-2.7063,-2.6624,-2.6168,-2.5777,-2.5033,-2.4458,-2.4034,-2.3714,-2.3731,-2.4051,-2.4051,-2.4457,-2.5152,-2.5473,-2.6083,-2.6962,-2.8061,-2.8941,-2.9668,-2.9989,-3.0451,-3.0915,-3.0851,-3.0671,-3.0506,-3.0464,-3.0203,-2.9851,-2.9742,-2.9125,-2.8436,-2.8357,-2.7834,-2.7203,-2.6798,-2.6474,-2.615,-2.571,-2.5597,-2.5597,-2.5597,-2.5597,-2.55,-2.5211,0.0,0.0,0.0,0.0,0.0,0.0,-2.564,-2.5659,-2.5712,-2.5731,-2.5787,-2.5989,-2.6041,-2.6114,-2.631,-2.5998,-2.5832,-2.59,-2.5661,-2.5706,-2.6145,-2.6419,-2.6797,-2.7307,-2.7587,-2.7766,-2.7864,-2.8401,-2.8951,-2.9496,-3.0715,-3.1502,-3.1906,-3.2621,-3.285,-3.2721,-3.2557,-3.2336,-3.2126,-3.1839,-3.1598,-3.1349,-3.1055,-3.0753,-3.0447,-3.0124,-2.9694,-2.922,-1.9792,-2.0564,-2.1416,-2.1674,-2.231,-2.3061,-2.3842,-2.4782,-2.5791,-2.6868,-2.7382,-2.8203,-2.9741,-2.9895,-3.0031,-3.0367,-3.0401,-3.0364,-3.0323,-3.0082,-2.9963,-2.9963,-2.9553,-2.9314,-2.9314,-2.8535,-2.7774,-2.6996,-2.6268,-2.5524,-2.4795,-2.4592,-2.4609,-2.4795,-2.4795,-2.5203,-2.5913,-2.6116,-2.6826,-2.7891,-2.889,-2.9736,-3.0395,-3.0395,-3.0617,-3.0932,-3.0912,-3.0753,-3.0547,-3.051,-3.0464,-3.0375,-3.0231,-2.976,-2.9262,-2.914,-2.8579,-2.7899,-2.7413,-2.6992,-2.6571,-2.6053,-2.5743,-2.5597,-2.5597,-2.5597,-2.5597,-2.5597,-2.5179,0.0,0.0,0.0,-2.4984,-2.55,0.0,-2.5543,-2.5543,-2.554,-2.56,-2.5826,-2.5881,-2.587,-2.5833,-2.5374,-2.5045,-2.498,-2.4544,-2.4623,-2.5411,-2.5688,-2.6187,-2.7036,-2.7293,-2.7478,-2.7612,-2.7882,-2.8323,-2.8977,-3.0137,-3.0936,-3.1416,-3.242,-3.2771,-3.2556,-3.2457,-3.2284,-3.202,-3.1728,-3.1466,-3.1235,-3.0955,-3.0692,-3.0443,-3.0081,-2.9649,-2.9167,-2.1417,-2.1413,-2.1622,-2.233,-2.3064,-2.3859,-2.4719,-2.6028,-2.6971,-2.7085,-2.8339,-2.9793,-3.1263,-3.1416,-3.2032,-3.3519,-3.3635,-3.3635,-3.3652,-3.2855,-3.2389,-3.2389,-3.0893,-3.0055,-3.0055,-2.933,-2.8569,-2.7773,-2.7029,-2.6285,-2.5542,-2.4829,-2.488,-2.5559,-2.5559,-2.5981,-2.6708,-2.7435,-2.7756,-2.7925,-2.9447,-3.0514,-3.1157,-3.1157,-3.1078,-3.0995,-3.0932,-3.0794,-3.0671,-3.0531,-3.0464,-3.0375,-3.0231,-3.0087,-2.9941,-2.9892,-2.9345,-2.8762,-2.8746,-2.7737,-2.6685,-2.6668,-2.6134,-2.5597,-2.5597,-2.5597,-2.5597,-2.5597,-2.5581,-2.5565,-2.5597,-2.5581,-2.5565,-2.5597,-2.5489,0.0,0.0,-2.5336,-2.5413,-2.5682,-2.5809,-2.5619,-2.4916,-2.4834,-2.4539,-2.39,-2.3951,-2.4348,-2.5078,-2.5429,-2.5946,-2.6691,-2.7037,-2.7277,-2.7404,-2.7597,-2.7745,-2.7871,-2.96,-3.0394,-3.0406,-3.2046,-3.2691,-3.2507,-3.2422,-3.2214,-3.1894,-3.1691,-3.1445,-3.1171,-3.0834,-3.0568,-3.0338,-2.9941,-2.9499,-2.9045,-2.3041,-2.3167,-2.3253,-2.3459,-2.3746,-2.4535,-2.635,-2.7478,-2.8482,-2.9486,-3.0508,-3.1511,-3.2475,-3.2992,-3.3451,-3.3825,-3.3877,-3.3853,-3.3809,-3.3512,-3.3318,-3.3237,-3.272,-3.215,-3.1582,-3.0818,-3.0074,-2.9311,-2.8043,-2.73,-2.7046,-2.6302,-2.6082,-2.6336,-2.6336,-2.6742,-2.7435,-2.7689,-2.8382,-2.9413,-3.0429,-3.097,-3.119,-3.119,-3.1131,-3.0995,-3.0932,-3.0794,-3.0671,-3.0547,-3.0468,-3.0443,-3.0253,-3.0167,-3.0103,-2.9946,-2.9718,-2.9426,-2.894,-2.8433,-2.7867,-2.6927,-2.6506,-2.6199,-2.571,-2.5597,-2.5597,-2.5597,-2.5597,-2.5597,-2.5597,-2.5524,-2.547,-2.547,-2.5394,-2.5336,0.0,-2.5298,-2.5317,-2.5432,-2.5123,-2.4666,-2.4058,-2.3569,-2.3227,-2.308,-2.2652,-2.2764,-2.3586,-2.4214,-2.4977,-2.5946,-2.657,-2.7005,-2.7277,-2.7417,-2.7585,-2.7763,-2.9468,-3.0271,-3.0355,-3.1899,-3.2541,-3.2422,-3.2267,-3.2055,-3.1819,-3.1632,-3.1366,-3.1035,-3.0794,-3.0464,-3.0103,-2.982,-2.9464,-2.8959,-2.4309,-2.4481,-2.4508,-2.4441,-2.492,-2.5892,-2.7668,-2.8801,-2.9931,-3.115,-3.2003,-3.2855,-3.3859,-3.4356,-3.4676,-3.4815,-3.4771,-3.4747,-3.4703,-3.4679,-3.4599,-3.4537,-3.418,-3.3722,-3.3168,-3.2127,-3.1224,-3.0497,-2.9227,-2.8331,0.0,0.0,0.0,-2.6691,-2.6691,-2.7114,-2.7824,-2.8094,-2.8958,-3.0156,-3.0903,-3.119,-3.119,-3.119,-3.1151,-3.1072,-3.0952,-3.0834,-3.0733,-3.0568,-3.0506,-3.0447,-3.0253,-3.0189,-3.0162,-2.9946,-2.9896,-2.9783,-2.9313,-2.9005,-2.8584,-2.7656,-2.7251,-2.6927,-2.6455,-2.6341,-2.6277,-2.5979,-2.5931,-2.5831,-2.5535,-2.5413,-2.5375,-2.5375,-2.5298,-2.522,0.0,-2.5182,-2.5121,-2.4901,-2.4548,-2.4096,-2.351,-2.2831,-2.2362,-2.2183,-2.1774,-2.1884,-2.2716,-2.3554,-2.443,-2.5379,-2.6252,-2.6808,-2.7021,-2.723,-2.754,-2.7973,-2.9408,-3.0242,-3.0557,-3.1824,-3.2353,-3.2284,-3.209,-3.1893,-3.1709,-3.1481,-3.121,-3.0875,-3.0671,-3.0321,-2.9892,-2.9687,-2.9236,-2.8597,-2.53,-2.5439,-2.552,-2.545,-2.6641,-2.7894,-2.8695,-3.0052,-3.1255,-3.2056,-3.2857,-3.3884,-3.5344,-3.5491,-3.576,-3.6485,-3.6433,-3.637,-3.6404,-3.6354,-3.6307,-3.6307,-3.5356,-3.4802,-3.4768,-3.3219,-3.2039,-3.1241,-3.0531,-2.9362,0.0,0.0,0.0,0.0,-2.6691,-2.7131,-2.7908,-2.867,-2.9467,-3.0226,-3.092,-3.119,-3.119,-3.119,-3.119,-3.1151,-3.0972,-3.0892,-3.0851,-3.0589,-3.0506,-3.0447,-3.0253,-3.0189,-3.0162,-2.9946,-2.9896,-2.9896,-2.9896,-2.9394,-2.8859,-2.8806,-2.8271,-2.7753,-2.7721,-2.7684,-2.747,-2.6707,-2.6543,-2.6294,-2.549,-2.5342,-2.5326,-2.5294,-2.5166,-2.5068,-2.5005,-2.5005,-2.4787,-2.4214,-2.4183,-2.3921,-2.32,-2.2628,-2.1987,-2.1263,-2.1309,-2.1711,-2.2394,-2.3424,-2.4315,-2.5028,-2.6101,-2.6674,-2.6691,-2.7021,-2.7577,-2.8403,-2.941,-3.0243,-3.0942,-3.1795,-3.2144,-3.2073,-3.1874,-3.1709,-3.156,-3.1308,-3.1012,-3.0671,-3.0513,-3.0211,-2.9841,-2.9602,-2.8881,-2.8061,-2.6761,-2.7995,-2.8864,-2.8851,-2.9166,-2.9691,-3.0443,-3.139,-3.2301,-3.3037,-3.4298,-3.5259,-3.5601,-3.6078,-3.662,-3.7265,-3.7228,-3.7426,-3.7956,-3.7986,-3.7942,-3.7835,-3.6977,-3.6178,-3.5533,-3.449,-3.3326,-3.2022,-3.1275,-3.0142,-2.867,0.0,0.0,0.0,-2.6691,-2.7435,-2.8722,-2.8908,-2.9738,-3.092,-3.1123,-3.119,-3.119,-3.119,-3.1151,-3.1052,-3.0952,-3.0831,-3.0733,-3.0568,-3.0506,-3.0447,-3.0253,-3.0189,-3.0162,-2.9946,-2.9896,-2.9896,-2.9896,-2.9751,-2.9491,-2.894,-2.8644,-2.8369,-2.7834,-2.7623,-2.7492,-2.7295,-2.7201,-2.6931,-2.617,-2.5998,-2.5783,-2.5242,-2.5068,-2.5025,-2.5005,-2.5005,-2.4942,-2.4787,-2.4296,-2.3562,-2.2493,-2.224,-2.1872,-2.1167,-2.1199,-2.1359,-2.16,-2.2932,-2.3884,-2.4265,-2.5611,-2.6452,-2.6691,-2.6791,-2.7349,-2.8403,-2.9211,-3.0058,-3.0942,-3.176,-3.2037,-3.1856,-3.1818,-3.1596,-3.1308,-3.123,-3.0935,-3.0576,-3.0887,-3.0875,-3.0607,-2.9902,-2.9237,-2.8666,-2.8518,-3.0018,-3.1139,-3.1107,-3.1684,-3.207,-3.1773,-3.2669,-3.367,-3.4407,-3.5267,-3.5913,-3.6225,-3.6544,-3.7001,-3.7623,-3.7607,-3.7849,-3.8565,-3.8594,-3.8572,-3.8487,-3.7603,-3.687,-3.6382,-3.5135,-3.3952,-3.278,-3.2056,-3.077,-2.8993,0.0,0.0,0.0,-2.6691,-2.7571,-2.9044,-2.9687,-3.0448,-3.119,-3.119,-3.119,0.0,-3.119,-3.1092,-3.0952,-3.0912,-3.0794,-3.0671,-3.0547,-3.0506,-3.0447,-3.0253,-3.0189,-3.0162,-2.9946,-2.9896,-2.9896,-2.9896,-2.9896,-2.9799,-2.9378,-2.9281,-2.9167,-2.8762,-2.8554,-2.8351,-2.8003,-2.787,-2.7556,-2.6793,-2.6354,-2.5869,-2.5159,-2.5025,-2.5005,-2.5005,-2.5005,-2.4966,-2.4922,-2.4556,-2.3897,-2.2848,-2.2323,-2.1772,-2.107,-2.1103,-2.1167,-2.1215,-2.2702,-2.3634,-2.3769,-2.5303,-2.624,-2.6486,-2.6858,-2.7588,-2.8665,-2.9435,-3.0279,-3.118,-3.1629,-3.1781,-3.1651,-3.1576,-3.1404,-3.1171,-3.0992,-3.0854,-3.0821,-3.1112,-3.1086,-3.0857,-3.0402,-2.9759,-2.9162,-3.0526,-3.1787,-3.2807,-3.2739,-3.397,-3.4499,-3.309,-3.4004,-3.5074,-3.5704,-3.588,-3.6233,-3.6919,-3.6888,-3.7117,-3.7885,-3.7831,-3.8066,-3.8858,-3.8888,-3.8888,-3.8888,-3.7854,-3.7274,-3.7274,-3.5552,-3.4235,-3.3406,-3.2767,-3.1312,-2.9145,0.0,0.0,0.0,-2.6843,-2.7689,-2.923,-3.0615,-3.119,-3.119,-3.119,-3.119,-3.119,-3.119,-3.1072,-3.0892,-3.0892,-3.081,-3.0651,-3.0547,-3.0506,-3.0447,-3.0253,-3.0189,-3.0162,-2.9946,-2.9896,-2.9896,-2.9896,-2.9896,-2.9896,-2.9896,-2.9896,-2.9896,-2.9896,-2.9786,-2.9476,-2.8756,-2.8497,-2.8158,-2.7389,-2.6562,-2.5803,-2.5223,-2.5049,-2.4985,-2.4982,-2.4966,-2.4906,-2.4802,-2.4782,0.0,-2.3678,-2.2681,-2.1781,-2.1067,-2.1054,-2.107,-2.107,-2.2601,-2.3479,-2.3496,-2.5092,-2.6025,-2.6168,-2.7045,-2.798,-2.8973,-2.9793,-3.0615,-3.146,-3.146,-3.146,-3.1404,-3.1249,-3.1151,-3.1072,-3.0771,-3.0942,-3.1388,-3.1333,-3.1171,-3.1006,-3.0994,-3.0461,-2.9699,-3.2807,-3.3882,-3.4571,-3.4553,-3.5241,-3.5679,-3.5396,-3.5498,-3.5652,-3.5775,-3.6373,-3.6849,-3.6989,-3.6888,-3.7327,-3.8595,-3.8647,-3.9143,-4.0411,-4.0498,-4.0498,-4.0498,-3.8934,-3.8077,-3.8077,-3.6327,-3.4737,-3.3406,-3.3271,-3.2087,-2.9888,-2.9281,-2.8501,-2.7604,-2.7604,-2.8449,-2.9973,-3.0818,-3.119,-3.119,-3.119,-3.119,-3.119,-3.119,-3.1072,-3.0892,-3.0892,-3.0733,-3.0531,-3.0506,-3.0506,-3.0447,-3.0253,-3.0189,-3.0162,-2.9946,-2.9896,-2.9896,-2.9896,-2.9896,-2.9896,-2.9896,-2.9896,-2.9874,-2.9764,-2.963,-2.9448,-2.9214,-2.9062,-2.8742,-2.8047,-2.6862,-2.5961,-2.5851,-2.5365,-2.4946,-2.4862,-2.4842,-2.4802,-2.4666,-2.463,-2.4365,-2.3678,-2.2939,-2.2227,-2.1623,-2.1109,-2.0876,-2.0926,-2.2399,-2.3323,-2.3496,-2.491,-2.5787,-2.6026,-2.6899,-2.7813,-2.877,-2.957,-3.0408,-3.1249,-3.1249,-3.119,-3.1075,-3.1055,-3.0875,-3.0643,-3.1194,-3.1775,-3.2319,-3.2003,-3.1966,-3.2086,-3.171,-3.1227,-3.0675,-3.4217,-3.5066,-3.5652,-3.558,-3.618,-3.6654,-3.6579,-3.6484,-3.6426,-3.6426,-3.6761,-3.7007,-3.7007,-3.6948,-3.7283,-3.8251,-3.8656,-3.9257,-4.0221,-4.067,-4.0912,-4.0912,-3.9609,-3.8698,-3.8322,-3.6944,-3.547,-3.3964,-3.3592,-3.2459,-3.0649,-2.9922,-2.9161,-2.8433,-2.8821,-2.9413,-3.014,-3.0886,-3.119,-3.119,-3.119,-3.119,-3.119,-3.1131,-3.1012,-3.0892,-3.0831,-3.0671,-3.0506,-3.0506,-3.0485,-3.0422,-3.0253,-3.0146,-3.006,-2.9924,-2.9896,-2.9896,-2.9896,-2.9896,-2.9896,-2.9896,-2.9896,-2.9858,-2.9742,-2.9586,-2.9473,-2.9328,-2.919,-2.8893,-2.8221,-2.7541,-2.6972,-2.6625,-2.6251,-2.5826,-2.5439,-2.531,-2.5087,-2.4611,-2.4544,-2.4384,-2.3997,-2.3367,-2.2602,-2.1702,-2.1019,-2.0695,-2.0794,-2.2226,-2.3096,-2.3237,-2.4671,-2.5562,-2.5787,-2.6924,-2.7855,-2.8562,-2.9665,-3.0503,-3.1052,-3.1052,-3.1012,-3.0952,-3.0814,-3.0651,-3.0567,-3.133,-3.1942,-3.2409,-3.2342,-3.2257,-3.2135,-3.1682,-3.119,-3.0747,-3.5509,-3.6096,-3.6541,-3.6433,-3.6909,-3.7259,-3.7147,-3.7068,-3.7007,-3.7007,-3.7007,-3.7007,-3.7007,-3.7007,-3.7224,-3.7746,-3.8334,-3.8955,-3.9652,-4.0284,-4.0722,-4.0894,-3.9959,-3.908,-3.8322,-3.7324,-3.6073,-3.4489,-3.3914,-3.2882,-3.141,-3.0683,-2.9939,-2.9264,-2.9837,-3.0277,-3.0615,-3.119,-3.1512,-3.1647,-3.1495,-3.1427,-3.141,-3.1102,-3.0955,-3.0892,-3.0733,-3.0609,-3.0506,-3.0506,-3.0464,-3.0375,-3.0231,-3.0103,-2.9989,-2.9924,-2.9896,-2.9896,-2.9896,-2.9896,-2.9896,-2.9896,-2.9896,-2.9874,-2.9697,-2.9586,-2.945,-2.9282,-2.9167,-2.894,-2.841,-2.8189,-2.7921,-2.7399,-2.707,-2.6706,-2.6157,-2.5842,-2.5419,-2.4756,-2.4534,-2.4421,-2.4302,-2.3686,-2.2929,-2.2027,-2.1299,-2.0902,-2.0895,-2.227,-2.3085,-2.3195,-2.4528,-2.5397,-2.5747,-2.7049,-2.7948,-2.8504,-2.9811,-3.0547,-3.0733,-3.0733,-3.0733,-3.0749,-3.0526,-3.0566,-3.0859,-3.1377,-3.1881,-3.2348,-3.2509,-3.2287,-3.184,-3.1394,-3.0955,-3.0507,-3.7179,-3.7343,-3.747,-3.7451,-3.7375,-3.7314,-3.7278,-3.7124,-3.7007,-3.7007,-3.7007,-3.7007,-3.7007,-3.7007,-3.7224,-3.7746,-3.7847,-3.8421,-3.9618,-3.9767,-4.0129,-4.0877,-4.0053,-3.9174,-3.8322,-3.7433,-3.618,-3.4489,-3.4421,-3.3626,-3.2192,-3.1427,-3.07,-3.0006,-3.0074,-3.0835,-3.2107,-3.2175,-3.2577,-3.3136,-3.2479,-3.2192,-3.2104,-3.1308,-3.0955,-3.0892,-3.0733,-3.0609,-3.0506,-3.0506,-3.0464,-3.0375,-3.0231,-3.0103,-2.9989,-2.9924,-2.9896,-2.9896,-2.9896,-2.9896,-2.9896,-2.9896,-2.9896,-2.983,-2.9586,-2.9496,-2.9428,-2.9183,-2.9098,-2.9082,-2.9019,-2.8521,-2.8079,-2.8015,-2.7391,-2.6842,-2.6654,-2.5994,-2.5447,-2.5262,-2.4687,-2.4302,-2.4302,-2.3686,-2.3275,-2.3137,-2.257,-2.2027,-2.1541,-2.2808,-2.3622,-2.3812,-2.461,-2.5421,-2.6218,-2.7211,-2.8065,-2.8777,-2.9749,-3.0231,-3.0269,-3.0269,-3.0269,-3.0253,-3.0231,-3.0854,-3.1841,-3.1429,-3.1838,-3.271,-3.2489,-3.2048,-3.1508,-3.1146,-3.0732,-3.0251,-3.8892,-3.893,-3.8843,-3.8397,-3.8158,-3.7845,-3.7367,-3.7124,-3.7007,-3.7007,-3.7007,-3.7007,-3.7007,-3.7007,-3.7031,-3.714,-3.7534,-3.8161,-3.8996,-3.9439,-4.0043,-4.086,-4.05,-3.9843,-3.8988,-3.812,-3.708,-3.5881,-3.4945,-3.4206,-3.3613,-3.2865,-3.2357,-3.2087,-3.2087,-3.2408,-3.2949,-3.2949,-3.3136,-3.3372,-3.3085,-3.2699,-3.2256,-3.1786,-3.1297,-3.0871,-3.0651,-3.0547,-3.0489,-3.0443,-3.0359,-3.0274,-3.021,-3.0098,-2.9924,-2.9902,-2.9896,-2.9896,-2.9896,-2.9896,-2.9896,-2.9896,-2.9896,-2.983,-2.9563,-2.9496,-2.9428,-2.916,-2.9098,-2.9098,-2.9098,-2.8877,-2.8665,-2.8581,-2.8285,-2.7857,-2.7323,-2.6521,-2.5802,-2.5342,-2.4697,-2.4302,-2.4302,-2.4071,-2.3733,-2.3332,-2.2694,-2.2257,-2.2086,-2.3006,-2.3596,-2.3732,-2.4465,-2.5293,-2.6111,-2.6981,-2.7874,-2.8811,-2.9594,-3.0044,-3.0189,-3.0189,-3.0124,-2.9979,-2.9979,-3.0545,-3.1501,-3.1297,-3.1732,-3.2547,-3.2259,-3.1853,-3.1336,-3.0911,-3.0754,-3.0654,-3.9895,-3.9895,-3.9734,-3.9199,-3.8956,-3.8624,-3.8058,-3.7811,-3.7692,-3.7692,-3.7692,-3.7516,-3.706,-3.7007,-3.6928,-3.6745,-3.7189,-3.7714,-3.8264,-3.8979,-3.9715,-4.0515,-4.0696,-4.0336,-3.9463,-3.8815,-3.7948,-3.6858,-3.5735,-3.4928,-3.4472,-3.3744,-3.3406,-3.3406,-3.3406,-3.3525,-3.3728,-3.3728,-3.3863,-3.4032,-3.3812,-3.3271,-3.2594,-3.2165,-3.1545,-3.0871,-3.0589,-3.0506,-3.0506,-3.0422,-3.0295,-3.0189,-3.0146,-3.0033,-2.9896,-2.9896,-2.9896,-2.9896,-2.9896,-2.9896,-2.9896,-2.9896,-2.9874,-2.9786,-2.9541,-2.9473,-2.9366,-2.916,-2.9098,-2.9098,-2.9098,-2.9098,-2.9052,-2.8904,-2.8834,-2.8599,-2.7984,-2.7164,-2.6373,-2.5703,-2.4983,-2.4491,-2.4291,-2.4219,-2.4014,-2.3524,-2.3084,-2.2774,-2.2674,-2.3358,-2.3863,-2.4149,-2.4708,-2.5519,-2.6546,-2.7163,-2.7944,-2.8947,-2.9468,-2.9804,-2.9995,-2.9995,-2.9886,-2.9716,-2.9633,-3.0201,-3.1198,-3.1033,-3.1514,-3.2315,-3.1966,-3.1611,-3.1205,-3.0906,-3.0871,-3.0941,-3.9895,-3.9895,-3.9895,-3.9877,-3.9718,-3.9578,-3.956,-3.9394,-3.9266,-3.9266,-3.9266,-3.869,-3.7183,-3.7007,-3.6948,-3.6809,-3.6763,-3.6974,-3.7577,-3.8247,-3.8939,-3.9681,-4.0457,-4.0502,-3.9628,-3.947,-3.8594,-3.7013,-3.6841,-3.6,-3.4472,-3.3744,-3.3406,-3.3406,-3.3406,-3.3795,-3.4472,-3.4472,-3.4912,-3.5498,-3.4776,-3.4032,-3.3301,-3.2366,-3.1545,-3.0871,-3.0589,-3.0506,-3.0506,-3.0422,-3.0295,-3.0167,-3.0038,-2.9968,-2.9896,-2.9896,-2.9896,-2.9896,-2.9896,-2.9896,-2.9896,-2.9896,-2.9808,-2.9675,-2.9541,-2.9412,-2.9259,-2.9121,-2.9098,-2.9098,-2.9098,-2.9098,-2.9052,-2.8904,-2.8834,-2.8732,-2.8621,-2.789,-2.7134,-2.6479,-2.5676,-2.4921,-2.4263,-2.4082,-2.4003,-2.3988,-2.3988,-2.3768,-2.3317,-2.3933,-2.4652,-2.5453,-2.5505,-2.6265,-2.7861,-2.8012,-2.8494,-2.9289,-2.9434,-2.9496,-2.9496,-2.9496,-2.9496,-2.9496,-2.9229,-2.9888,-3.1173,-3.0618,-3.1133,-3.2163,-3.1695,-3.1336,-3.1132,-3.1246,-3.118,-3.0998,-4.1538,-4.1538,-4.1359,-4.0806,-4.0555,-4.0235,-3.9666,-3.9429,-3.9284,-3.9284,-3.9284,-3.9111,-3.862,-3.8076,-3.772,-3.7636,-3.7059,-3.6953,-3.7559,-3.8229,-3.8922,-3.9664,-4.0457,-4.072,-4.036,-3.9815,-3.92,-3.8503,-3.7953,-3.7142,-3.6051,-3.5267,-3.489,-3.489,-3.489,-3.5025,-3.5245,-3.5245,-3.538,-3.5583,-3.5329,-3.4496,-3.3296,-3.2899,-3.1922,-3.0733,-3.0551,-3.0506,-3.0485,-3.0316,-3.0248,-3.0167,-2.9989,-2.9918,-2.9896,-2.9896,-2.9896,-2.9896,-2.9896,-2.9896,-2.9896,-2.9786,-2.9742,-2.9653,-2.9412,-2.9259,-2.9144,-2.9098,-2.9098,-2.9098,-2.9098,-2.9029,-2.892,-2.885,-2.8755,-2.8612,-2.8468,-2.785,-2.7295,-2.6995,-2.6321,-2.5764,-2.5476,-2.5401,-2.5356,-2.5356,-2.5356,-2.5141,-2.4627,-2.4796,-2.5268,-2.6086,-2.6152,-2.6658,-2.7688,-2.787,-2.8374,-2.9167,-2.9305,-2.9412,-2.9496,-2.9496,-2.945,-2.935,-2.9167,-2.9784,-3.0914,-3.0557,-3.1052,-3.201,-3.1538,-3.1501,-3.1675,-3.1265,-3.1582,-3.2208,-4.2308,-4.2308,-4.2147,-4.1627,-4.1372,-4.1085,-4.0568,-4.0292,-4.0165,-4.0165,-4.0165,-4.0165,-4.0165,-3.9463,-3.874,-3.8099,-3.7525,-3.721,-3.7259,-3.8157,-3.8846,-3.9267,-4.0325,-4.0864,-4.0769,-4.0281,-3.9808,-3.9344,-3.8506,-3.764,-3.6795,-3.6282,-3.5893,-3.56,-3.56,-3.56,-3.56,-3.56,-3.56,-3.56,-3.56,-3.4671,-3.3287,-3.3146,-3.2101,-3.0671,-3.0547,-3.0506,-3.0485,-3.0274,-3.0189,-3.0146,-2.9968,-2.9896,-2.9896,-2.9896,-2.9896,-2.9896,-2.9896,-2.9896,-2.9874,-2.9742,-2.9653,-2.9547,-2.9282,-2.9167,-2.9098,-2.9098,-2.9098,-2.9098,-2.9098,-2.899,-2.8873,-2.8818,-2.8684,-2.8549,-2.842,-2.8042,-2.7625,-2.7247,-2.6787,-2.6344,-2.5962,-2.5878,-2.5839,-2.5839,-2.5839,-2.5848,-2.5804,-2.565,-2.5908,-2.6688,-2.6795,-2.721,-2.7961,-2.8101,-2.8435,-2.899,-2.9098,-2.9213,-2.9344,-2.9298,-2.9236,-2.9129,-2.8982,-2.9567,-3.0634,-3.0376,-3.0864,-3.1768,-3.138,-3.1456,-3.1785,-3.147,-3.1942,-3.2738,-4.2308,-4.2308,-4.2308,-4.2308,-4.2157,-4.2005,-4.2005,-4.1776,-4.1604,-4.1604,-4.1604,-4.1604,-4.1604,-4.099,-3.9958,-3.8409,-3.8131,-3.7714,-3.6914,-3.8126,-3.8832,-3.8686,-4.0118,-4.0912,-4.0912,-4.0793,-4.0377,-3.9679,-3.8662,-3.7725,-3.688,-3.6829,-3.6366,-3.56,-3.56,-3.56,-3.56,-3.56,-3.56,-3.56,-3.56,-3.4688,-3.3333,-3.3163,-3.2135,-3.0738,-3.0564,-3.0506,-3.0447,-3.0274,-3.0189,-3.0146,-2.9946,-2.9896,-2.9896,-2.9896,-2.9896,-2.9896,-2.9896,-2.988,-2.9852,-2.972,-2.9586,-2.9405,-2.916,-2.9098,-2.9098,-2.9098,-2.9098,-2.9098,-2.9098,-2.899,-2.8873,-2.8818,-2.8684,-2.8541,-2.842,-2.8387,-2.8093,-2.7354,-2.7144,-2.6758,-2.6012,-2.5796,-2.5749,-2.5749,-2.5749,-2.6066,-2.6817,-2.6518,-2.6612,-2.7238,-2.7387,-2.7812,-2.8573,-2.8597,-2.866,-2.8794,-2.8865,-2.8943,-2.9075,-2.8943,-2.8881,-2.8897,-2.8692,-2.9274,-3.0376,-3.0114,-3.0603,-3.1451,-3.1205,-3.1276,-3.1594,-3.1818,-3.2231,-3.2681,-4.2308,-4.2308,-4.2308,-4.2308,-4.2184,-4.2076,-4.2005,-4.1862,-4.1714,-4.1604,-4.1604,-4.1604,-4.1604,-4.1446,-4.0955,-4.001,-3.9252,-3.8726,-3.8463,-3.9202,-3.957,-3.9439,-4.0394,-4.0912,-4.0912,-4.0864,-4.0731,-4.0422,-3.9423,-3.8554,-3.7783,-3.7113,-3.6366,-3.56,-3.56,-3.56,-3.56,-3.56,-3.56,-3.56,-3.56,-3.4947,-3.3934,-3.3326,-3.2388,-3.131,-3.0725,-3.0464,-3.0401,-3.0253,-3.0124,-3.0017,-2.9924,-2.9896,-2.9896,-2.9896,-2.9896,-2.9896,-2.9896,-2.983,-2.972,-2.9586,-2.9366,-2.9183,-2.9098,-2.9098,-2.9098,-2.9098,-2.9098,-2.9098,-2.9098,-2.8951,-2.8826,-2.8794,-2.8604,-2.8436,-2.8396,-2.8323,-2.814,-2.7841,-2.7688,-2.7489,-2.72,-2.716,-2.7136,-2.7136,-2.7136,-2.7195,-2.741,-2.7423,-2.7546,-2.7786,-2.7933,-2.8106,-2.8284,-2.8501,-2.866,-2.8794,-2.8818,-2.8826,-2.8873,-2.8826,-2.8826,-2.8826,-2.8684,-2.9274,-3.0376,-3.0114,-3.0603,-3.1451,-3.1205,-3.1568,-3.2231,-3.199,-3.2516,-3.3323,-4.2308,-4.2308,-4.2308,-4.2308,-4.2187,-4.21,-4.2055,-4.1905,-4.178,-4.1692,-4.1648,-4.1604,-4.1604,-4.1604,-4.1446,-4.1025,-4.0227,-3.9524,-3.9042,-3.9611,-3.9915,-3.9698,-4.0457,-4.0912,-4.0912,-4.0912,-4.084,-4.0697,-3.9782,-3.8911,-3.8084,-3.725,-3.6395,-3.56,-3.56,-3.56,-3.56,-3.56,-3.56,-3.56,-3.56,-3.5049,-3.4125,-3.3393,-3.2484,-3.1499,-3.0754,-3.0464,-3.0396,-3.0248,-3.0103,-2.9995,-2.9924,-2.9896,-2.9896,-2.9896,-2.9896,-2.9896,-2.9896,-2.9808,-2.9637,-2.9457,-2.9252,-2.9098,-2.9098,-2.9098,-2.9098,-2.9098,-2.9098,-2.9075,-2.9013,-2.8881,-2.8771,-2.8708,-2.8517,-2.8411,-2.8411,-2.8275,-2.8137,-2.802,-2.8137,-2.8192,-2.8064,-2.8334,-2.8513,-2.8513,-2.8513,-2.8513,-2.8513,-2.8295,-2.8097,-2.7905,-2.8054,-2.8137,-2.821,-2.842,-2.8589,-2.8708,-2.8708,-2.8747,-2.8794,-2.8747,-2.8708,-2.8684,-2.8501,-2.91,-3.0193,-2.9982,-3.0453,-3.1307,-3.1161,-3.1565,-3.2209,-3.1982,-3.2548,-3.3417,-4.2308,-4.2308,-4.2308,-4.2308,-4.2205,-4.2124,-4.2103,-4.1952,-4.1823,-4.1801,-4.1692,-4.1626,-4.1604,-4.1604,-4.1604,-4.1604,-4.1025,-4.0311,-3.943,-3.9921,-4.0157,-3.9934,-4.0549,-4.0912,-4.0912,-4.0912,-4.084,-4.0721,-3.9907,-3.9035,-3.8108,-3.7302,-3.6446,-3.56,-3.56,-3.56,-3.56,-3.56,-3.56,-3.56,-3.56,-3.5093,-3.4292,-3.356,-3.27,-3.183,-3.1085,-3.0773,-3.0667,-3.056,-3.0446,-3.0293,-3.0226,-3.022,-3.022,-3.022,-3.0198,-3.015,-2.9923,-2.9764,-2.957,-2.9328,-2.919,-2.9098,-2.9098,-2.9098,-2.9098,-2.9098,-2.9098,-2.9052,-2.8904,-2.8858,-2.8771,-2.8636,-2.8493,-2.8418,-2.851,-2.8403,-2.8311,-2.8283,-2.8656,-2.8884,-2.8768,-2.9277,-2.9606,-2.9606,-2.9606,-2.9606,-2.9606,-2.8951,-2.8389,-2.7946,-2.7951,-2.8054,-2.821,-2.8323,-2.8444,-2.8565,-2.8565,-2.8636,-2.8747,-2.8612,-2.8565,-2.8541,-2.8415,-2.8982,-2.997,-2.9915,-3.0378,-3.1117,-3.1087,-3.1397,-3.1917,-3.1917,-3.2481,-3.329,-4.2308,-4.2308,-4.2308,-4.2308,-4.2287,-4.2246,-4.2103,-4.2061,-4.1977,-4.1823,-4.178,-4.1714,-4.1604,-4.1604,-4.1604,-4.1604,-4.1499,-4.131,-4.1054,-4.1028,-4.0984,-4.0897,-4.089,-4.0912,-4.0912,-4.0912,-4.0888,-4.0864,-3.9954,-3.9082,-3.8241,-3.7325,-3.6446,-3.56,-3.56,-3.56,-3.56,-3.56,-3.56,-3.56,-3.56,-3.5413,-3.504,-3.4309,-3.3784,-3.3359,-3.2613,-3.2232,-3.2085,-3.2062,-3.1903,-3.1695,-3.1672,-3.1672,-3.1672,-3.1672,-3.1578,-3.125,-3.0064,-2.9547,-2.9328,-2.9167,-2.9137,-2.9098,-2.9098,-2.9098,-2.9098,-2.9098,-2.9098,-2.9052,-2.8904,-2.8858,-2.8771,-2.8636,-2.8493,-2.8547,-2.9016,-2.8966,-2.9041,-2.946,-2.9477,-2.9484,-2.9457,-2.9547,-2.9606,-2.9606,-2.9606,-2.9606,-2.9606,-2.8951,-2.8547,-2.8468,-2.8067,-2.794,-2.821,-2.821,-2.8299,-2.842,-2.842,-2.8444,-2.846,-2.8444,-2.8372,-2.829,-2.8807,-2.9331,-2.9855,-3.0233,-3.0653,-3.1087,-3.0925,-3.1273,-3.1917,-3.1917,-3.2481,-3.329,-4.2405,-4.2346,-4.2308,-4.2308,-4.2308,-4.2287,-4.2225,-4.2163,-4.2061,-4.1956,-4.1866,-4.178,-4.1714,-4.1648,-4.1604,-4.1604,-4.1604,-4.1582,-4.1515,-4.1386,-4.1244,-4.1093,-4.1047,-4.0959,-4.0912,-4.0912,-4.0912,-4.0912,-3.9635,-3.8803,-3.8328,-3.7012,-3.6145,-3.5689,-3.5622,-3.56,-3.56,-3.56,-3.56,-3.56,-3.56,-3.5481,-3.5207,-3.4493,-3.4034,-3.369,-3.2967,-3.2578,-3.2407,-3.2407,-3.2222,-3.2012,-3.2012,-3.2012,-3.2012,-3.2012,-3.1917,-3.163,-3.0838,-3.0273,-2.987,-2.973,-2.9382,-2.9098,-2.9098,-2.9098,-2.9098,-2.9098,-2.9052,-2.8943,-2.8858,-2.8755,-2.866,-2.8517,-2.8728,-2.8993,-2.9174,-2.9413,-2.9607,-2.978,-2.9961,-3.0073,-3.0073,-3.0417,-3.0627,-3.0627,-3.0627,-3.0627,-3.0627,-2.9684,-2.9131,-2.9131,-2.8256,-2.7865,-2.7989,-2.8137,-2.8235,-2.8299,-2.8372,-2.8348,-2.8299,-2.8299,-2.8226,-2.8149,-2.8728,-2.9225,-2.969,-3.0184,-3.0627,-3.0925,-3.0821,-3.1242,-3.1917,-3.1917,-3.2481,-3.329,-4.2503,-4.2425,-4.2346,-4.2308,-4.2308,-4.2308,-4.2308,-4.2207,-4.2124,-4.2103,-4.1973,-4.1866,-4.1862,-4.1732,-4.1648,-4.1648,-4.1626,-4.1604,-4.1604,-4.1515,-4.1358,-4.1186,-4.1117,-4.1047,-4.0959,-4.0912,-4.0912,-4.0912,-3.9359,-3.8532,-3.8368,-3.6786,-3.5971,-3.5795,-3.5689,-3.5622,-3.56,-3.56,-3.56,-3.56,-3.56,-3.5481,-3.5241,-3.4678,-3.4284,-3.3972,-3.3415,-3.3073,-3.2898,-3.2898,-3.2711,-3.2498,-3.2498,-3.2498,-3.2498,-3.2498,-3.2378,-3.2103,-3.1532,-3.0998,-3.0569,-3.0457,-3.0022,-2.9588,-2.9588,-2.9461,-2.9351,-2.9328,-2.9092,-2.8873,-2.8779,-2.866,-2.8611,-2.8636,-2.9048,-2.9419,-2.9597,-2.9928,-3.0162,-3.0193,-3.0518,-3.0746,-3.0746,-3.1197,-3.1511,-3.1511,-3.1511,-3.1511,-3.1511,-3.0432,-2.9654,-2.9397,-2.8306,-2.7765,-2.779,-2.8014,-2.8113,-2.8137,-2.825,-2.825,-2.8137,-2.8137,-2.8155,-2.8228,-2.8792,-2.9282,-2.9722,-3.0268,-3.0616,-3.0791,-3.0702,-3.1166,-3.1917,-3.1885,-3.2481,-3.329,-4.2524,-4.2483,-4.2463,-4.2308,-4.2308,-4.2308,-4.2308,-4.2287,-4.2246,-4.2103,-4.2082,-4.2058,-4.2005,-4.188,-4.1797,-4.1797,-4.167,-4.1604,-4.1604,-4.1582,-4.1515,-4.138,-4.121,-4.1111,-4.1087,-4.0959,-4.0912,-4.0912,-3.9359,-3.8532,-3.8368,-3.6891,-3.6036,-3.5795,-3.5795,-3.5728,-3.56,-3.56,-3.56,-3.56,-3.56,-3.5481,-3.5291,-3.5241,-3.5045,-3.48,-3.475,-3.4567,-3.4349,-3.4349,-3.4162,-3.3955,-3.3955,-3.3955,-3.3955,-3.3955,-3.3763,-3.3237,-3.1778,-3.1274,-3.1144,-3.1144,-3.1088,-3.104,-3.104,-3.0559,-3.0077,-2.9973,-2.9375,-2.885,-2.8645,-2.8597,-2.8766,-2.9243,-2.9265,-2.9597,-3.0703,-3.0736,-3.0827,-3.1315,-3.1406,-3.1436,-3.1436,-3.1466,-3.1511,-3.1511,-3.1511,-3.1511,-3.1511,-3.0808,-2.9894,-2.8712,-2.7989,-2.7675,-2.779,-2.7815,-2.789,-2.8005,-2.8005,-2.8005,-2.8005,-2.8005,-2.8288,-2.8781,-2.9433,-2.9933,-3.0283,-3.0821,-3.094,-3.0762,-3.0447,-3.0979,-3.1885,-3.1772,-3.2379,-3.329,-4.2704,-4.2625,-4.2528,-4.2445,-4.2425,-4.2405,-4.2308,-4.2308,-4.2287,-4.2246,-4.2145,-4.2082,-4.2058,-4.197,-4.1884,-4.1819,-4.1758,-4.1692,-4.1604,-4.1604,-4.1538,-4.1403,-4.1244,-4.1129,-4.1093,-4.1047,-4.0982,-4.0912,-3.9359,-3.8555,-3.8498,-3.6934,-3.6101,-3.591,-3.5839,-3.5728,-3.56,-3.56,-3.56,-3.56,-3.5549,-3.5452,-3.5291,-3.5198,-3.5065,-3.4899,-3.4899,-3.4732,-3.4497,-3.4497,-3.4325,-3.4101,-3.4101,-3.4101,-3.4075,-3.3899,-3.3771,-3.3531,-3.2774,-3.2254,-3.1896,-3.1896,-3.1539,-3.1198,-3.1198,-3.0944,-3.0555,-3.0082,-2.9647,-2.9175,-2.8698,-2.8541,-2.8676,-2.9304,-2.9649,-3.0116,-3.0901,-3.122,-3.1398,-3.1509,-3.1511,-3.1511,-3.1511,-3.1511,-3.1511,-3.1511,-3.1511,-3.1511,-3.1511,-3.0853,-3.0103,-2.9235,-2.8562,-2.806,-2.769,-2.7765,-2.7815,-2.788,-2.7955,-2.8167,-2.8485,-2.8485,-2.8785,-2.9342,-2.9866,-3.0132,-3.0201,-3.072,-3.0821,-3.0642,-3.0417,-3.0948,-3.1885,-3.174,-3.2379,-3.329,-4.2803,-4.2725,-4.2647,-4.2546,-4.2526,-4.2486,-4.2387,-4.2366,-4.2346,-4.2308,-4.2225,-4.2166,-4.2166,-4.2097,-4.1991,-4.1909,-4.1866,-4.1819,-4.167,-4.1626,-4.156,-4.1471,-4.134,-4.1226,-4.121,-4.114,-4.1047,-4.0959,-3.96,-3.8819,-3.856,-3.7236,-3.641,-3.6058,-3.591,-3.5795,-3.5667,-3.5622,-3.56,-3.56,-3.552,-3.5423,-3.5291,-3.5152,-3.5018,-3.4899,-3.4899,-3.4732,-3.4497,-3.4497,-3.4325,-3.4101,-3.4101,-3.4075,-3.4,-3.3771,-3.3668,-3.3581,-3.3346,-3.2945,-3.2608,-3.2608,-3.2234,-3.1845,-3.1795,-3.1546,-3.1099,-3.0335,-2.9875,-2.9394,-2.8664,-2.8638,-2.891,-2.9536,-3.0108,-3.0647,-3.1167,-3.1526,-3.167,-3.1511,-3.1511,-3.1511,-3.1511,-3.1511,-3.1511,-3.1511,-3.1511,-3.1511,-3.1511,-3.0853,-3.0313,-2.9906,-2.925,-2.8682,-2.8229,-2.8111,-2.8162,-2.8372,-2.8449,-2.869,-2.9049,-2.9049,-2.933,-2.9854,-3.0147,-3.0304,-3.0323,-3.0675,-3.0672,-3.0477,-3.0296,-3.0885,-3.1805,-3.1688,-3.2345,-3.329,-4.2822,-4.2803,-4.2764,-4.2629,-4.2609,-4.2588,-4.2503,-4.2503,-4.2445,-4.2308,-4.2308,-4.2308,-4.2308,-4.2166,-4.2103,-4.2103,-4.2034,-4.1945,-4.1801,-4.167,-4.1604,-4.1604,-4.1471,-4.1403,-4.1403,-4.1192,-4.1093,-4.1093,-4.0164,-3.9319,-3.8577,-3.7858,-3.7034,-3.6204,-3.6058,-3.5927,-3.5795,-3.5667,-3.56,-3.56,-3.552,-3.5423,-3.5291,-3.5152,-3.5018,-3.4899,-3.4899,-3.4732,-3.4497,-3.4497,-3.4325,-3.4101,-3.4101,-3.4,-3.3873,-3.3745,-3.3607,-3.3477,-3.3335,-3.3309,-3.3309,-3.3309,-3.3309,-3.324,-3.3123,-3.2547,-3.1747,-3.0794,-3.0076,-2.9345,-2.8559,-2.8965,-2.9577,-3.0108,-3.0662,-3.1182,-3.1722,-3.1626,-3.1511,-3.1511,-3.1511,-3.1511,-3.1511,-3.1511,-3.1511,-3.1511,-3.1511,-3.1511,-3.1511,-3.0881,-3.0507,-3.0507,-2.9909,-2.9621,-2.9621,-2.8951,-2.8936,-2.9606,-2.9606,-2.9606,-2.9621,-2.9621,-2.9856,-3.0327,-3.0327,-3.0482,-3.0791,-3.0791,-3.0598,-3.0296,-3.0158,-3.0757,-3.1674,-3.1551,-3.2258,-3.329,-4.2881,-4.2862,-4.2824,-4.2764,-4.2745,-4.2706,-4.2588,-4.2568,-4.2528,-4.2445,-4.2445,-4.2387,-4.2308,-4.2267,-4.2205,-4.2103,-4.2079,-4.2034,-4.1945,-4.1819,-4.1736,-4.1736,-4.1604,-4.1493,-4.1403,-4.1335,-4.1238,-4.1093,-4.0251,-3.9686,-3.9336,-3.8099,-3.7309,-3.6942,-3.628,-3.5927,-3.5795,-3.5667,-3.56,-3.5577,-3.5412,-3.5354,-3.5268,-3.5041,-3.4923,-3.4899,-3.4899,-3.4732,-3.4497,-3.4497,-3.4325,-3.4101,-3.4101,-3.4,-3.3873,-3.3745,-3.3607,-3.3477,-3.3335,-3.3309,-3.3309,-3.3309,-3.3229,-3.315,-3.3112,-3.2763,-3.2217,-3.1471,-3.0685,-2.993,-2.9243,-2.9273,-2.9577,-3.0108,-3.0662,-3.1182,-3.1722,-3.1626,-3.1511,-3.1511,-3.1511,-3.1511,-3.1511,-3.1511,-3.1511,-3.1511,-3.1511,-3.1511,-3.1511,-3.1316,-3.1197,-3.1197,-3.0582,-3.0462,-3.0913,-2.9849,-2.9412,-2.9606,-2.9606,-2.9804,-3.0238,-3.0127,-3.0415,-3.0995,-3.0763,-3.0705,-3.0791,-3.0702,-3.0507,-3.0296,-3.0158,-3.0757,-3.1674,-3.1551,-3.2258,-3.3326,-4.2994,-4.2975,-4.2956,-4.2861,-4.2842,-4.2804,-4.2706,-4.2668,-4.2647,-4.2546,-4.2546,-4.2506,-4.2387,-4.2366,-4.2325,-4.2187,-4.2124,-4.2079,-4.2034,-4.1927,-4.1862,-4.1801,-4.1714,-4.1626,-4.1493,-4.1426,-4.1335,-4.1215,-4.0654,-4.0164,-3.975,-3.8807,-3.802,-3.7352,-3.673,-3.6244,-3.5883,-3.5689,-3.56,-3.5577,-3.5383,-3.5291,-3.5268,-3.4994,-3.4899,-3.4899,-3.4851,-3.4667,-3.4497,-3.4448,-3.4275,-3.4101,-3.405,-3.3924,-3.3797,-3.3658,-3.3529,-3.3398,-3.3335,-3.3309,-3.3282,-3.3229,-3.315,-3.3085,-3.3032,-3.28,-3.2392,-3.167,-3.0926,-3.0279,-2.9863,-2.9761,-2.9899,-3.0426,-3.0976,-3.1401,-3.1638,-3.1568,-3.1511,-3.1511,-3.1511,-3.1511,-3.1511,-3.1438,-3.1409,-3.1409,-3.1409,-3.1438,-3.1511,-3.1511,-3.1511,-3.1511,-3.1107,-3.1077,-3.1511,-3.069,-3.0287,-3.0357,-3.0357,-3.0509,-3.0811,-3.0712,-3.0849,-3.1087,-3.0881,-3.0762,-3.0702,-3.0642,-3.0462,-3.0219,-3.0142,-3.0725,-3.1589,-3.1518,-3.2292,-3.3431,-4.3105,-4.3104,-4.3049,-4.2938,-4.2919,-4.2881,-4.2822,-4.2803,-4.2764,-4.2629,-4.2629,-4.2588,-4.2524,-4.2503,-4.2445,-4.2346,-4.2205,-4.2124,-4.2124,-4.2034,-4.1945,-4.1823,-4.1801,-4.1736,-4.1626,-4.1493,-4.1403,-4.1403,-4.1233,-4.0753,-3.9997,-3.9801,-3.8962,-3.7577,-3.7249,-3.6693,-3.5975,-3.5734,-3.5622,-3.5577,-3.5383,-3.5291,-3.5285,-3.5077,-3.4965,-3.4875,-3.4822,-3.4668,-3.4472,-3.4325,-3.4201,-3.4075,-3.3949,-3.3797,-3.3668,-3.3555,-3.3398,-3.3309,-3.3309,-3.3309,-3.3282,-3.3123,-3.3096,-3.3058,-3.2897,-3.2718,-3.2365,-3.164,-3.0966,-3.0494,-3.0452,-3.0374,-3.0426,-3.0888,-3.1432,-3.1727,-3.1539,-3.1511,-3.1511,-3.1511,-3.1511,-3.1467,-3.1467,-3.1351,-3.1292,-3.1292,-3.1292,-3.1351,-3.1453,-3.1467,-3.1467,-3.1467,-3.1467,-3.1467,-3.1467,-3.1351,-3.1351,-3.1467,-3.1482,-3.1409,-3.1292,-3.1263,-3.1087,-3.0791,-3.0791,-3.0702,-3.0598,-3.0568,-3.0401,-3.0095,-3.0152,-3.0718,-3.1499,-3.1589,-3.245,-3.3605,-4.3196,-4.3123,-4.3086,-4.3049,-4.2975,-4.29,-4.2881,-4.2881,-4.2843,-4.2764,-4.2764,-4.2706,-4.2607,-4.2588,-4.2548,-4.2465,-4.2346,-4.2267,-4.2267,-4.2142,-4.2079,-4.2058,-4.1888,-4.1797,-4.1758,-4.1626,-4.1515,-4.1403,-4.1358,-4.1174,-4.0834,-4.0187,-3.9323,-3.8318,-3.76,-3.6786,-3.5997,-3.5839,-3.5706,-3.5577,-3.5383,-3.5291,-3.5335,-3.5642,-3.5396,-3.4965,-3.5399,-3.5112,-3.4472,-3.4226,-3.4126,-3.4075,-3.3949,-3.3797,-3.3668,-3.3555,-3.3398,-3.3309,-3.3309,-3.3309,-3.3282,-3.3123,-3.3032,-3.2897,-3.2718,-3.2551,-3.2379,-3.2225,-3.1643,-3.1155,-3.1064,-3.101,-3.0948,-3.0784,-3.1332,-3.1727,-3.1539,-3.1511,-3.1511,-3.1511,-3.1409,-3.1351,-3.1351,-3.122,-3.1132,-3.1132,-3.1132,-3.1161,-3.119,-3.119,-3.119,-3.119,-3.119,-3.119,-3.119,-3.1161,-3.122,-3.1351,-3.1249,-3.1161,-3.1132,-3.0969,-3.0881,-3.0791,-3.0702,-3.0642,-3.0598,-3.0447,-3.028,-3.0138,-3.0498,-3.1005,-3.1589,-3.2201,-3.2919,-3.364,-4.3323,-4.3269,-4.3233,-4.316,-4.3087,-4.3031,-4.2994,-4.2994,-4.2956,-4.2861,-4.2842,-4.2804,-4.2725,-4.2706,-4.2647,-4.2503,-4.2425,-4.2366,-4.2308,-4.2228,-4.2184,-4.2103,-4.2016,-4.1909,-4.1801,-4.1736,-4.1626,-4.1493,-4.1426,-4.1312,-4.1152,-4.0683,-3.9986,-3.9094,-3.8602,-3.77,-3.6522,-3.6423,-3.6051,-3.5577,-3.5383,-3.5291,-3.5318,-3.5426,-3.523,-3.4925,-3.5111,-3.48,-3.43,-3.4151,-3.405,-3.3975,-3.3848,-3.3694,-3.3581,-3.345,-3.3346,-3.3309,-3.3309,-3.3256,-3.3176,-3.3032,-3.2881,-3.2746,-3.2621,-3.2496,-3.2398,-3.2398,-3.1886,-3.1463,-3.1637,-3.1357,-3.1113,-3.1225,-3.1458,-3.1626,-3.1511,-3.1511,-3.1511,-3.1511,-3.138,-3.1234,-3.1087,-3.1014,-3.0955,-3.0955,-3.0955,-3.0984,-3.1087,-3.1117,-3.1117,-3.1117,-3.1117,-3.1117,-3.1117,-3.0984,-3.0969,-3.1058,-3.1073,-3.1043,-3.0955,-3.0851,-3.0762,-3.0702,-3.0642,-3.0598,-3.0568,-3.0387,-3.0219,-3.0152,-3.0608,-3.1136,-3.1688,-3.2424,-3.3169,-3.3902,-4.3446,-4.3429,-4.3358,-4.3251,-4.3214,-4.3178,-4.3141,-4.3123,-4.3068,-4.2938,-4.2938,-4.29,-4.2841,-4.2803,-4.2743,-4.2564,-4.2524,-4.2445,-4.2346,-4.2308,-4.2246,-4.2145,-4.2103,-4.1966,-4.1668,-4.1607,-4.1542,-4.1411,-4.13,-4.1101,-4.0826,-4.0787,-4.0216,-3.9336,-3.9405,-3.8563,-3.7098,-3.7041,-3.6554,-3.5785,-3.5434,-3.5291,-3.5285,-3.5143,-3.5015,-3.4892,-3.4742,-3.4423,-3.4101,-3.4101,-3.4,-3.3873,-3.3745,-3.3607,-3.3477,-3.3319,-3.3309,-3.3324,-3.3435,-3.3376,-3.3289,-3.3252,-3.3087,-3.2931,-3.2779,-3.2573,-3.2398,-3.2398,-3.1951,-3.1655,-3.2099,-3.1582,-3.1276,-3.1665,-3.1597,-3.1511,-3.1511,-3.1511,-3.1511,-3.1511,-3.1351,-3.1146,-3.0821,-3.0791,-3.0762,-3.0762,-3.0762,-3.0821,-3.1014,-3.1014,-3.1014,-3.1014,-3.1014,-3.1014,-3.1014,-3.0851,-3.0762,-3.0762,-3.0925,-3.0925,-3.0762,-3.0762,-3.0702,-3.0598,-3.0598,-3.0598,-3.0568,-3.0387,-3.0219,-3.0152,-3.0722,-3.1253,-3.1806,-3.2624,-3.3459,-3.4196,-4.3565,-4.3481,-4.3394,-4.3376,-4.3287,-4.3196,-4.3196,-4.3196,-4.316,-4.3068,-4.3068,-4.303,-4.29,-4.2823,-4.2783,-4.2745,-4.2586,-4.2483,-4.2483,-4.2366,-4.2287,-4.2267,-4.2145,-4.178,-4.112,-4.0877,-4.0729,-4.066,-4.0639,-4.018,-3.9299,-3.9277,-3.8751,-3.784,-3.8456,-3.8133,-3.7098,-3.7098,-3.6911,-3.6569,-3.5675,-3.5291,-3.5335,-3.5708,-3.5462,-3.4958,-3.5317,-3.4863,-3.4101,-3.4101,-3.4,-3.3873,-3.3745,-3.3607,-3.3477,-3.3319,-3.3309,-3.3435,-3.4004,-3.4069,-3.4077,-3.4516,-3.4514,-3.4216,-3.347,-3.2841,-3.2398,-3.2398,-3.2253,-3.2084,-3.2038,-3.1836,-3.165,-3.1553,-3.1511,-3.1511,-3.1511,-3.1511,-3.1511,-3.1511,-3.1278,-3.1043,-3.0821,-3.0702,-3.0642,-3.0642,-3.0642,-3.0642,-3.0672,-3.0672,-3.0672,-3.0672,-3.0672,-3.0672,-3.0672,-3.0642,-3.0642,-3.0642,-3.0642,-3.0642,-3.0642,-3.0642,-3.0612,-3.0598,-3.0598,-3.0598,-3.0568,-3.0387,-3.0219,-3.0209,-3.1204,-3.1636,-3.1881,-3.3364,-3.409,-3.438,-4.3599,-4.3549,-4.3497,-4.3445,-4.341,-4.3339,-4.3323,-4.3323,-4.3269,-4.3178,-4.3105,-4.3086,-4.303,-4.2918,-4.2842,-4.2803,-4.2647,-4.2546,-4.2503,-4.2366,-4.2308,-4.2308,-4.2246,-4.1828,-4.1019,-4.0801,-4.0235,-3.9265,-3.9642,-3.9553,-3.9054,-3.9007,-3.8725,-3.8273,-3.8933,-3.8648,-3.7712,-3.7752,-3.7393,-3.6705,-3.5709,-3.5291,-3.5318,-3.5359,-3.5181,-3.4908,-3.4956,-3.4586,-3.4101,-3.4101,-3.3949,-3.3771,-3.372,-3.3555,-3.3451,-3.3778,-3.3862,-3.3977,-3.4589,-3.4638,-3.4591,-3.4745,-3.4694,-3.45,-3.4104,-3.3796,-3.3365,-3.2552,-3.2287,-3.2163,-3.201,-3.1898,-3.1727,-3.1539,-3.1511,-3.1511,-3.1511,-3.1511,-3.1467,-3.1409,-3.1292,-3.1161,-3.0984,-3.0925,-3.0895,-3.0895,-3.0895,-3.0895,-3.0895,-3.0762,-3.0702,-3.0702,-3.0642,-3.0598,-3.0598,-3.0598,-3.0598,-3.0598,-3.0598,-3.0598,-3.0598,-3.0598,-3.0598,-3.0598,-3.0598,-3.0598,-3.0568,-3.0387,-3.0481,-3.085,-3.1593,-3.2345,-3.3149,-3.396,-3.438,-3.4582]},{"header":{"parameterUnit":"m.s-1","parameterCategory":1,"la1":30.6,"la2":28.766,"lo1":-90.7593,"lo2":-88.6598,"dy":0.0162,"dx":0.0183,"nx":116,"ny":114,"refTime":"2023-06-29T00:00:00:Z","depth":0,"parameterNumber":3,"parameterNumberName":"V-component_of_WINDS"},"data":[0.0,0.0,0.0,0.0,0.0,0.0,0.0,0.0,0.0,0.0,0.0,0.0,0.0,0.0,0.0,0.0,0.0,0.0,0.0,0.0,0.0,0.0,0.0,0.0,0.0,0.0,0.0,0.0,0.0,0.0,0.0,0.0,0.0,0.0,0.0,0.0,0.0,0.0,0.0,0.0,0.0,0.0,0.0,0.0,0.0,0.0,0.0,0.0,0.0,0.0,0.0,0.0,0.0,0.0,0.0,0.0,0.0,0.0,0.0,0.0,0.0,0.0,0.0,0.0,0.0,0.0,0.0,0.0,0.0,0.0,0.0,0.0,0.0,0.0,0.0,0.0,0.0,0.0,0.0,0.0,0.0,0.0,0.0,0.0,0.0,0.0,0.0,0.0,0.0,0.0,0.0,0.0,0.0,0.0,0.0,0.0,0.0,0.0,0.0,0.0,0.0,0.0,0.0,0.0,0.0,0.0,0.0,0.0,0.0,0.0,0.0,0.0,0.0,0.0,0.0,0.0,0.0,0.0,0.0,0.0,0.0,0.0,0.0,0.0,0.0,0.0,0.0,0.0,0.0,0.0,0.0,0.0,0.0,0.0,0.0,0.0,0.0,0.0,0.0,0.0,0.0,0.0,0.0,0.0,0.0,0.0,0.0,0.0,0.0,0.0,0.0,0.0,0.0,0.0,0.0,0.0,0.0,0.0,0.0,0.0,0.0,0.0,0.0,0.0,0.0,0.0,0.0,0.0,0.0,0.0,0.0,0.0,0.0,0.0,0.0,0.0,0.0,0.0,0.0,0.0,0.0,0.0,0.0,0.0,0.0,0.0,0.0,0.0,0.0,0.0,0.0,0.0,0.0,0.0,0.0,0.0,0.0,0.0,0.0,0.0,0.0,0.0,0.0,0.0,0.0,0.0,0.0,0.0,0.0,0.0,0.0,0.0,0.0,0.0,0.0,0.0,0.0,0.0,0.0,0.0,0.0,0.0,0.0,0.0,0.0,0.0,0.0,0.0,0.0,0.0,0.0,0.0,0.0,0.0,0.0,0.0,0.0,0.0,0.0,0.0,0.0,0.0,0.0,0.0,0.0,0.0,0.0,0.0,0.0,0.0,0.0,0.0,0.0,0.0,0.0,0.0,0.0,0.0,0.0,0.0,0.0,0.0,0.0,0.0,0.0,0.0,0.0,0.0,0.0,0.0,0.0,0.0,0.0,0.0,0.0,0.0,0.0,0.0,0.0,0.0,0.0,0.0,0.0,0.0,0.0,0.0,0.0,0.0,0.0,0.0,0.0,0.0,0.0,0.0,0.0,0.0,0.0,0.0,0.0,0.0,0.0,0.0,0.0,0.0,0.0,0.0,0.0,0.0,0.0,0.0,0.0,0.0,0.0,0.0,0.0,0.0,0.0,0.0,0.0,0.0,0.0,0.0,0.0,0.0,0.0,0.0,0.0,0.0,0.0,0.0,0.0,0.0,0.0,0.0,0.0,0.0,0.0,0.0,0.0,0.0,0.0,0.0,0.0,0.0,0.0,0.0,0.0,0.0,0.0,0.0,0.0,0.0,0.0,0.0,0.0,0.0,0.0,0.0,0.0,0.0,0.0,0.0,0.0,0.0,0.0,0.0,0.0,0.0,0.0,0.0,0.0,0.0,0.0,0.0,0.0,0.0,0.0,0.0,0.0,0.0,0.0,0.0,0.0,0.0,0.0,0.0,0.0,0.0,0.0,0.0,0.0,0.0,0.0,0.0,0.0,0.0,0.0,0.0,0.0,0.0,0.0,0.0,0.0,0.0,0.0,0.0,0.0,0.0,0.0,0.0,0.0,0.0,0.0,0.0,0.0,0.0,0.0,0.0,0.0,0.0,0.0,0.0,0.0,0.0,0.0,0.0,0.0,0.0,0.0,0.0,0.0,0.0,0.0,0.0,0.0,0.0,0.0,0.0,0.0,0.0,0.0,0.0,0.0,0.0,0.0,0.0,0.0,0.0,0.0,0.0,0.0,0.0,0.0,0.0,0.0,0.0,0.0,0.0,0.0,0.0,0.0,0.0,0.0,0.0,0.0,0.0,0.0,0.0,0.0,0.0,0.0,0.0,0.0,0.0,0.0,0.0,0.0,0.0,0.0,0.0,0.0,0.0,0.0,0.0,0.0,0.0,0.0,0.0,0.0,0.0,0.0,0.0,0.0,0.0,0.0,0.0,0.0,0.0,0.0,0.0,0.0,0.0,0.0,0.0,0.0,0.0,0.0,0.0,0.0,0.0,0.0,0.0,0.0,0.0,0.0,0.0,0.0,0.0,0.0,0.0,0.0,0.0,0.0,0.0,0.0,0.0,0.0,0.0,0.0,0.0,0.0,0.0,0.0,0.0,0.0,0.0,0.0,0.0,0.0,0.0,0.0,0.0,0.0,0.0,0.0,0.0,0.0,0.0,0.0,0.0,0.0,0.0,0.0,0.0,0.0,0.0,0.0,0.0,0.0,0.0,0.0,0.0,0.0,0.0,0.0,0.0,0.0,0.0,0.0,0.0,0.0,0.0,0.0,0.0,0.0,0.0,0.0,0.0,0.0,0.0,0.0,0.0,0.0,0.0,0.0,0.0,0.0,0.0,0.0,0.0,0.0,0.0,0.0,0.0,0.0,0.0,0.0,0.0,0.0,0.0,0.0,0.0,0.0,0.0,0.0,0.0,0.0,0.0,0.0,0.0,0.0,0.0,0.0,0.0,0.0,0.0,0.0,0.0,0.0,0.0,0.0,0.0,0.0,0.0,0.0,0.0,0.0,0.0,0.0,0.0,0.0,0.0,0.0,0.0,0.0,0.0,0.0,0.0,0.0,0.0,0.0,0.0,0.0,0.0,0.0,0.0,0.0,0.0,0.0,0.0,0.0,0.0,0.0,0.0,0.0,0.0,0.0,0.0,0.0,0.0,0.0,0.0,0.0,0.0,0.0,0.0,0.0,0.0,0.0,0.0,0.0,0.0,0.0,0.0,0.0,0.0,0.0,0.0,0.0,0.0,0.0,0.0,0.0,0.0,0.0,0.0,0.0,0.0,0.0,0.0,0.0,0.0,0.0,0.0,0.0,0.0,0.0,0.0,0.0,0.0,0.0,0.0,0.0,0.0,0.0,0.0,0.0,0.0,0.0,0.0,0.0,0.0,0.0,0.0,0.0,0.0,0.0,0.0,0.0,0.0,0.0,0.0,0.0,0.0,0.0,0.0,0.0,0.0,0.0,0.0,0.0,0.0,0.0,0.0,0.0,0.0,0.0,0.0,0.0,0.0,0.0,0.0,0.0,0.0,0.0,0.0,0.0,0.0,0.0,0.0,0.0,0.0,0.0,0.0,0.0,0.0,0.0,0.0,0.0,0.0,0.0,0.0,0.0,0.0,0.0,0.0,0.0,0.0,0.0,0.0,0.0,0.0,0.0,0.0,0.0,0.0,0.0,0.0,0.0,0.0,0.0,0.0,0.0,0.0,0.0,0.0,0.0,0.0,0.0,0.0,0.0,0.0,0.0,0.0,0.0,0.0,0.0,0.0,0.0,0.0,0.0,0.0,0.0,0.0,0.0,0.0,0.0,0.0,0.0,0.0,0.0,0.0,0.0,0.0,0.0,0.0,0.0,0.0,0.0,0.0,0.0,0.0,0.0,0.0,0.0,0.0,0.0,0.0,0.0,0.0,0.0,0.0,0.0,0.0,0.0,0.0,0.0,0.0,0.0,0.0,0.0,0.0,0.0,0.0,0.0,0.0,0.0,0.0,0.0,0.0,0.0,0.0,0.0,0.0,0.0,0.0,0.0,0.0,0.0,0.0,0.0,0.0,0.0,0.0,0.0,0.0,0.0,0.0,0.0,0.0,0.0,0.0,0.0,0.0,0.0,0.0,0.0,0.0,0.0,0.0,0.0,0.0,0.0,0.0,0.0,0.0,0.0,0.0,0.0,0.0,0.0,0.0,0.0,0.0,0.0,0.0,0.0,0.0,0.0,0.0,0.0,0.0,0.0,0.0,0.0,0.0,0.0,0.0,0.0,0.0,0.0,0.0,0.0,0.0,0.0,0.0,0.0,0.0,0.0,0.0,0.0,0.0,0.0,0.0,0.0,0.0,0.0,0.0,0.0,0.0,0.0,0.0,0.0,0.0,0.0,0.0,0.0,0.0,0.0,0.0,0.0,0.0,0.0,0.0,0.0,0.0,0.0,0.0,0.0,0.0,0.0,0.0,0.0,0.0,0.0,0.0,0.0,0.0,0.0,0.0,0.0,0.0,0.0,0.0,0.0,0.0,0.0,0.0,0.0,0.0,0.0,0.0,0.0,0.0,0.0,0.0,0.0,0.0,0.0,0.0,0.0,0.0,0.0,0.0,0.0,0.0,0.0,0.0,0.0,0.0,0.0,0.0,0.0,0.0,0.0,0.0,0.0,0.0,0.0,0.0,0.0,0.0,0.0,0.0,0.0,0.0,0.0,0.0,0.0,0.0,0.0,0.0,0.0,0.0,0.0,0.0,0.0,0.0,0.0,0.0,0.0,0.0,0.0,0.0,0.0,0.0,0.0,0.0,0.0,0.0,0.0,0.0,0.0,0.0,0.0,0.0,0.0,0.0,0.0,0.0,0.0,0.0,0.0,0.0,0.0,0.0,0.0,0.0,0.0,0.0,0.0,0.0,0.0,0.0,0.0,0.0,0.0,0.0,0.0,0.0,0.0,0.0,0.0,0.0,0.0,0.0,0.0,0.0,0.0,0.0,0.0,0.0,0.0,0.0,0.0,0.0,0.0,0.0,0.0,0.0,0.0,0.0,0.0,0.0,0.0,0.0,0.0,0.0,0.0,0.0,0.0,0.0,0.0,0.0,0.0,0.0,0.0,0.0,0.0,0.0,0.0,0.0,0.0,0.0,0.0,0.0,0.0,0.0,0.0,0.0,0.0,0.0,0.0,0.0,0.0,0.0,0.0,0.0,0.0,0.0,0.0,0.0,0.0,0.0,0.0,0.0,0.0,0.0,0.0,0.0,0.0,0.0,0.0,0.0,0.0,0.0,0.0,0.0,0.0,0.0,0.0,0.0,0.0,0.0,0.0,0.0,0.0,0.0,0.0,0.0,0.0,0.0,0.0,0.0,0.0,0.0,0.0,0.0,0.0,0.0,0.0,0.0,0.0,0.0,0.0,0.0,0.0,0.0,0.0,0.0,0.0,0.0,0.0,0.0,0.0,0.0,0.0,0.0,0.0,0.0,0.0,0.0,0.0,0.0,0.0,0.0,0.0,0.0,0.0,0.0,0.0,0.0,0.0,0.0,0.0,0.0,0.0,0.0,0.0,0.0,0.0,0.0,0.0,0.0,0.0,0.0,0.0,0.0,0.0,0.0,0.0,0.0,0.0,0.0,0.0,0.0,0.0,0.0,0.0,0.0,0.0,0.0,0.0,0.0,0.0,0.0,0.0,0.0,0.0,0.0,0.0,0.0,0.0,0.0,0.0,0.0,0.0,0.0,0.0,0.0,0.0,0.0,0.0,0.0,0.0,0.0,0.0,0.0,0.0,0.0,0.0,0.0,0.0,0.0,0.0,0.0,0.0,0.0,0.0,0.0,0.0,0.0,0.0,0.0,0.0,0.0,0.0,0.0,0.0,0.0,0.0,0.0,0.0,0.0,0.0,0.0,0.0,0.0,0.0,0.0,0.0,0.0,0.0,0.0,0.0,0.0,0.0,0.0,0.0,0.0,0.0,0.0,0.0,0.0,0.0,0.0,0.0,0.0,0.0,0.0,0.0,0.0,0.0,0.0,0.0,0.0,0.0,0.0,0.0,0.0,0.0,0.0,0.0,0.0,0.0,0.0,0.0,0.0,0.0,0.0,0.0,0.0,0.0,0.0,0.0,0.0,0.0,0.0,0.0,0.0,0.0,0.0,0.0,0.0,0.0,0.0,0.0,0.0,0.0,0.0,0.0,0.0,0.0,0.0,0.0,0.0,0.0,0.0,0.0,0.0,0.0,0.0,0.0,0.0,0.0,0.0,0.0,0.0,0.0,0.0,0.0,0.0,0.0,0.0,0.0,0.0,0.0,0.0,0.0,0.0,0.0,0.0,0.0,0.0,0.0,0.0,0.0,0.0,0.0,0.0,-2.2402,-2.1689,0.0,0.0,0.0,0.0,0.0,0.0,0.0,0.0,0.0,0.0,0.0,0.0,0.0,0.0,0.0,0.0,0.0,0.0,0.0,0.0,0.0,0.0,0.0,0.0,0.0,0.0,0.0,0.0,0.0,0.0,0.0,0.0,0.0,0.0,0.0,0.0,0.0,0.0,-1.3903,-1.4132,-1.4274,-1.3856,-1.3873,-1.426,0.0,0.0,0.0,0.0,0.0,0.0,0.0,0.0,0.0,0.0,0.0,0.0,0.0,0.0,0.0,0.0,0.0,0.0,0.0,0.0,0.0,0.0,0.0,0.0,0.0,0.0,0.0,0.0,0.0,0.0,0.0,0.0,0.0,0.0,0.0,0.0,0.0,0.0,0.0,0.0,0.0,0.0,0.0,0.0,0.0,0.0,0.0,0.0,0.0,0.0,0.0,0.0,0.0,0.0,0.0,0.0,0.0,0.0,0.0,0.0,0.0,0.0,0.0,0.0,0.0,0.0,0.0,0.0,0.0,0.0,-2.3746,-2.3376,0.0,0.0,0.0,0.0,0.0,0.0,0.0,0.0,0.0,0.0,0.0,0.0,0.0,0.0,0.0,0.0,0.0,0.0,0.0,0.0,0.0,0.0,0.0,0.0,-1.2999,-1.3229,-1.3683,-1.3996,0.0,0.0,0.0,0.0,0.0,0.0,0.0,0.0,0.0,0.0,-1.5108,-1.5173,-1.502,-1.5314,-1.5595,-1.58,-1.5613,0.0,0.0,0.0,0.0,0.0,0.0,0.0,0.0,0.0,0.0,0.0,0.0,0.0,0.0,0.0,0.0,0.0,0.0,0.0,0.0,0.0,0.0,0.0,0.0,0.0,0.0,0.0,0.0,0.0,0.0,0.0,0.0,0.0,0.0,0.0,0.0,0.0,0.0,0.0,0.0,0.0,0.0,0.0,0.0,0.0,0.0,0.0,0.0,0.0,0.0,0.0,0.0,0.0,0.0,0.0,0.0,0.0,0.0,0.0,0.0,0.0,0.0,0.0,-2.449,-2.4633,-2.4775,-2.4915,-2.5058,-2.5199,-2.5592,-2.56,-2.5296,-2.4878,0.0,0.0,0.0,0.0,0.0,0.0,0.0,0.0,0.0,0.0,0.0,0.0,0.0,0.0,0.0,0.0,0.0,0.0,0.0,0.0,0.0,-1.2982,-1.3428,-1.4543,-1.4658,-1.4847,0.0,0.0,0.0,0.0,0.0,0.0,0.0,-1.4625,-1.4678,-1.5056,-1.5662,-1.5926,-1.5864,-1.6825,-1.7345,-1.7423,-1.5906,-1.5349,-1.5505,0.0,0.0,0.0,0.0,0.0,0.0,0.0,0.0,0.0,0.0,0.0,0.0,0.0,0.0,0.0,0.0,0.0,0.0,0.0,0.0,0.0,0.0,0.0,0.0,0.0,0.0,0.0,0.0,0.0,0.0,0.0,0.0,0.0,0.0,0.0,0.0,0.0,0.0,0.0,0.0,0.0,-1.9564,-2.0075,0.0,0.0,0.0,0.0,0.0,0.0,0.0,0.0,0.0,0.0,0.0,0.0,0.0,-2.4433,-2.5039,-2.5632,-2.6225,-2.675,-2.6779,-2.688,-2.7068,-2.7185,-2.7371,-2.757,-2.7866,0.0,-2.5053,-2.5099,0.0,0.0,0.0,0.0,0.0,0.0,0.0,0.0,0.0,0.0,0.0,0.0,0.0,0.0,0.0,0.0,0.0,0.0,0.0,0.0,0.0,-1.3401,-1.394,-1.487,-1.514,-1.5298,-1.5433,-1.527,0.0,0.0,0.0,0.0,0.0,-1.479,-1.5219,-1.5711,-1.6086,-1.6323,-1.6468,-1.7075,-1.746,-1.7545,-1.6872,-1.6529,-1.6531,-1.6793,0.0,0.0,0.0,0.0,0.0,0.0,0.0,0.0,0.0,0.0,0.0,0.0,0.0,0.0,0.0,0.0,0.0,0.0,0.0,0.0,0.0,0.0,0.0,0.0,0.0,0.0,0.0,0.0,0.0,0.0,0.0,0.0,0.0,0.0,0.0,0.0,0.0,0.0,0.0,-2.0291,-2.1243,-2.1324,-2.1946,-2.2295,0.0,0.0,0.0,0.0,0.0,0.0,0.0,0.0,0.0,-2.4382,-2.4969,-2.5584,-2.6169,-2.6458,-2.6733,-2.7099,-2.7099,-2.7159,-2.7335,-2.7513,-2.7689,-2.7835,-2.8082,-2.7695,-2.6944,-2.717,-2.7133,-2.6933,0.0,0.0,0.0,0.0,-2.6844,-2.6892,0.0,0.0,0.0,0.0,0.0,0.0,0.0,0.0,0.0,0.0,0.0,0.0,-1.3363,-1.391,-1.449,-1.5157,-1.5429,-1.5507,-1.5359,-1.5103,0.0,0.0,0.0,-1.4603,-1.4406,-1.5135,-1.5645,-1.6008,-1.6359,-1.6636,-1.683,-1.721,-1.747,-1.7646,-1.7832,-1.7751,-1.7528,-1.7936,-1.7631,-1.6889,0.0,0.0,0.0,0.0,0.0,0.0,0.0,0.0,0.0,0.0,0.0,0.0,0.0,0.0,0.0,0.0,0.0,0.0,0.0,0.0,0.0,0.0,0.0,0.0,0.0,0.0,0.0,0.0,0.0,0.0,0.0,0.0,0.0,0.0,0.0,0.0,0.0,-2.1498,-2.2353,-2.2446,-2.3231,-2.3695,0.0,0.0,0.0,0.0,0.0,0.0,-2.3784,-2.4351,-2.4863,-2.5324,-2.5932,-2.6458,-2.69,-2.7049,-2.7195,-2.7322,-2.7322,-2.7445,-2.7597,-2.7746,-2.7927,-2.8152,-2.8329,-2.8521,-2.877,-2.8783,-2.8585,-2.8309,-2.8402,-2.8187,-2.7865,-2.798,-2.8017,-2.8058,0.0,0.0,0.0,0.0,0.0,0.0,0.0,0.0,0.0,0.0,0.0,-1.331,-1.3983,-1.4531,-1.5104,-1.5708,-1.5609,-1.5418,-1.5223,-1.4963,-1.4823,-1.4885,-1.4585,-1.4676,-1.5233,-1.5588,-1.5665,-1.5448,-1.6397,-1.6878,-1.6905,-1.7549,-1.8031,-1.8379,-1.8608,-1.8503,-1.8069,-1.8282,-1.8193,-1.7896,-1.7599,0.0,0.0,0.0,0.0,0.0,0.0,0.0,0.0,0.0,0.0,0.0,0.0,0.0,0.0,0.0,0.0,0.0,0.0,0.0,0.0,0.0,0.0,0.0,0.0,0.0,0.0,0.0,0.0,0.0,0.0,0.0,0.0,0.0,0.0,0.0,0.0,0.0,0.0,-2.3576,-2.3642,0.0,0.0,0.0,0.0,-2.3891,-2.487,-2.5443,-2.5295,-2.5855,-2.6205,-2.6232,-2.68,-2.7147,-2.7173,-2.7752,-2.8103,-2.8225,-2.8225,-2.84,-2.8716,-2.873,-2.8953,-2.9317,-2.9456,-2.9597,-2.9655,-2.8784,-2.8595,-2.8861,-2.8861,-2.8915,-2.9037,-2.9188,-2.9216,-2.9243,0.0,0.0,0.0,0.0,0.0,0.0,0.0,0.0,-1.2133,-1.2133,-1.266,-1.3298,-1.3968,-1.4481,-1.505,-1.5739,-1.5507,-1.5224,-1.5027,-1.4594,-1.4336,-1.4315,-1.4256,-1.4369,-1.4709,-1.4741,-1.493,-1.5285,-1.581,-1.634,-1.6857,-1.7379,-1.7744,-1.7959,-1.822,-1.8413,-1.8564,-1.8722,-1.8619,-1.8287,-1.8057,-1.7805,0.0,0.0,0.0,0.0,0.0,0.0,0.0,0.0,0.0,0.0,0.0,0.0,0.0,0.0,0.0,0.0,0.0,0.0,0.0,0.0,0.0,0.0,0.0,0.0,0.0,0.0,0.0,0.0,0.0,0.0,0.0,0.0,0.0,0.0,0.0,0.0,0.0,-2.4626,-2.5012,0.0,-2.5393,-2.5594,-2.5657,-2.5464,-2.5808,-2.6018,-2.5988,-2.6561,-2.6894,-2.6894,-2.7466,-2.7773,-2.7773,-2.7973,-2.8112,-2.8164,-2.8164,-2.8281,-2.8495,-2.8619,-2.8812,-2.9035,-2.9352,-2.954,-2.9654,-2.9401,-2.9501,-2.9827,-3.0046,-3.0134,-3.0221,-3.0509,-3.0594,-3.0623,0.0,0.0,0.0,0.0,0.0,0.0,0.0,0.0,-1.2167,-1.2386,-1.2928,-1.3549,-1.4174,-1.4706,-1.5163,-1.558,-1.5299,-1.4981,-1.4719,-1.4195,-1.3865,-1.3803,-1.3816,-1.3912,-1.4118,-1.4066,-1.4261,-1.4759,-1.5096,-1.5563,-1.6119,-1.6547,-1.6846,-1.7046,-1.7483,-1.7913,-1.8354,-1.8761,-1.8846,-1.8739,-1.8748,-1.8477,-1.8058,0.0,0.0,0.0,0.0,0.0,0.0,0.0,0.0,0.0,0.0,0.0,0.0,0.0,0.0,0.0,0.0,0.0,0.0,0.0,0.0,0.0,0.0,0.0,0.0,0.0,0.0,0.0,0.0,0.0,0.0,0.0,0.0,0.0,0.0,-2.4295,-2.5204,-2.5736,-2.6058,-2.6318,-2.6468,-2.6635,-2.6663,-2.6494,-2.668,-2.6767,-2.6704,-2.7088,-2.7299,-2.7299,-2.7683,-2.7914,-2.7914,-2.7914,-2.7934,-2.8,-2.8,-2.8085,-2.8249,-2.8411,-2.8573,-2.8748,-2.9067,-2.932,-2.954,-2.9682,-2.9884,-3.016,-3.0507,-3.0672,-3.0762,-3.1029,-3.1176,-3.1263,0.0,0.0,0.0,0.0,0.0,0.0,0.0,-1.2101,-1.2309,-1.2913,-1.3513,-1.4088,-1.4636,-1.5238,-1.5507,-1.5313,-1.5042,-1.4704,-1.4316,-1.3778,-1.3428,-1.3363,-1.3317,-1.3385,-1.3563,-1.364,-1.3746,-1.3892,-1.4324,-1.4625,-1.4777,-1.5117,-1.5429,-1.5697,-1.6453,-1.698,-1.7445,-1.8363,-1.8934,-1.9204,-1.9631,-1.9341,-1.8669,0.0,0.0,0.0,0.0,0.0,0.0,0.0,0.0,0.0,0.0,0.0,0.0,0.0,0.0,0.0,0.0,0.0,0.0,0.0,0.0,0.0,0.0,0.0,0.0,0.0,0.0,0.0,0.0,0.0,0.0,0.0,0.0,0.0,-2.5549,-2.555,-2.5809,-2.69,-2.6749,-2.6536,-2.6532,-2.6956,-2.7131,-2.6912,-2.7439,-2.7689,-2.749,-2.7503,-2.7503,-2.7503,-2.7503,-2.7503,-2.7503,-2.7503,-2.759,-2.7776,-2.7776,-2.7888,-2.8112,-2.8235,-2.8398,-2.8587,-2.8748,-2.9004,-2.9383,-2.954,-2.9682,-2.9839,-3.016,-3.0417,-3.0598,-3.0762,-3.0925,-3.1132,0.0,0.0,0.0,0.0,0.0,0.0,0.0,-1.2012,-1.2169,-1.2779,-1.3379,-1.3959,-1.4502,-1.5052,-1.5313,-1.5103,-1.4749,-1.4353,-1.3898,-1.331,-1.287,-1.2606,-1.2728,-1.2845,-1.2949,-1.2978,-1.3093,-1.3308,-1.3536,-1.389,-1.4364,-1.4672,-1.4934,-1.5232,-1.5765,-1.6232,-1.6687,-1.7655,-1.8363,-1.8884,-1.9278,-1.9508,-1.9601,0.0,0.0,0.0,0.0,0.0,0.0,0.0,0.0,0.0,0.0,0.0,0.0,0.0,0.0,0.0,0.0,0.0,0.0,0.0,0.0,0.0,0.0,0.0,0.0,0.0,0.0,0.0,0.0,0.0,0.0,0.0,-2.4331,-2.5285,-2.5453,-2.5727,-2.6267,-2.7178,-2.7202,-2.722,-2.7423,-2.7557,-2.7519,-2.7202,-2.7345,-2.7335,-2.7146,-2.7146,-2.7146,-2.7146,-2.7146,-2.7146,-2.7146,-2.7146,-2.7248,-2.7436,-2.7436,-2.759,-2.7888,-2.7908,-2.8105,-2.8398,-2.8587,-2.8844,-2.9194,-2.9383,-2.9588,-2.9839,-3.016,-3.0312,-3.0417,-3.0702,-3.0999,-3.1263,0.0,0.0,0.0,0.0,0.0,0.0,0.0,-1.1938,-1.2182,-1.3058,-1.3458,-1.3958,-1.476,-1.5095,-1.5133,-1.4828,-1.442,-1.398,-1.3484,-1.2626,-1.2116,-1.2053,-1.1975,-1.2097,-1.2437,-1.2397,-1.247,-1.2679,-1.2805,-1.3116,-1.3572,-1.3793,-1.4038,-1.4367,-1.4944,-1.5459,-1.5953,-1.7136,-1.7938,-1.8458,-1.9146,-1.9654,-1.9998,-2.0024,-2.0042,-2.0108,-2.0048,-2.012,-2.0234,-2.0235,0.0,0.0,0.0,0.0,0.0,0.0,0.0,0.0,0.0,0.0,0.0,0.0,0.0,0.0,0.0,0.0,0.0,0.0,0.0,0.0,0.0,0.0,0.0,0.0,-2.4931,-2.5674,-2.6015,-2.6474,-2.703,-2.77,-2.7648,-2.7634,-2.7782,-2.7656,-2.749,-2.7302,-2.7214,-2.7113,-2.7024,-2.699,-2.699,-2.699,-2.699,-2.699,-2.699,-2.699,-2.7045,-2.718,-2.7268,-2.7403,-2.759,-2.7756,-2.7941,-2.8216,-2.8411,-2.867,-2.9004,-2.9194,-2.9554,-3.0048,0.0,0.0,0.0,0.0,-3.1264,-3.1234,0.0,0.0,0.0,0.0,0.0,0.0,0.0,-1.1837,-1.225,-1.3515,-1.3616,-1.4011,-1.5138,-1.5193,-1.4949,-1.4485,-1.4068,-1.3589,-1.2975,-1.1806,-1.1271,-1.1583,-1.1202,-1.1302,-1.1994,-1.1934,-1.1952,-1.2076,-1.22,-1.2397,-1.2676,-1.2808,-1.3031,-1.3406,-1.4104,-1.47,-1.528,-1.6675,-1.7522,-1.7993,-1.9124,-1.9762,-2.0059,-2.0284,-2.0311,-2.0213,-2.047,-2.067,-2.0861,-2.1254,0.0,0.0,0.0,0.0,0.0,0.0,0.0,0.0,0.0,0.0,0.0,0.0,0.0,0.0,0.0,0.0,0.0,0.0,0.0,0.0,0.0,0.0,0.0,0.0,-2.5328,-2.5947,-2.6925,-2.7468,-2.7863,-2.8247,-2.7973,-2.7756,-2.7756,-2.7469,-2.7268,-2.7235,-2.7079,-2.6943,-2.6943,-2.6956,0.0,0.0,0.0,-2.6956,-2.6956,-2.6956,-2.6956,-2.6977,-2.7146,-2.7235,-2.7268,-2.759,-2.7855,-2.8046,-2.8216,-2.8476,-2.8794,-2.9072,-2.9725,-3.0597,-3.1055,-3.1295,-3.1469,-3.1934,-3.175,-3.1353,0.0,0.0,0.0,0.0,0.0,0.0,0.0,-1.1805,-1.2178,-1.3452,-1.3472,-1.3792,-1.4929,-1.4903,-1.4606,-1.4146,-1.3785,-1.3096,-1.197,-1.1196,-1.0823,-1.0881,-1.0867,-1.1036,-1.1447,-1.174,-1.1902,-1.1952,-1.2076,-1.2274,-1.2529,-1.2578,-1.2803,-1.3242,-1.3608,-1.4008,-1.4522,-1.6016,-1.6923,-1.7406,-1.8861,-1.9735,-2.0217,-2.0701,-2.1035,-2.1276,-2.1122,-2.1221,-2.1405,-2.1283,-2.1307,-2.1444,-2.1635,-2.1853,0.0,0.0,0.0,0.0,0.0,0.0,0.0,0.0,0.0,0.0,0.0,0.0,0.0,0.0,0.0,0.0,0.0,0.0,0.0,-2.5543,-2.6327,-2.7017,-2.7513,-2.7821,-2.8044,-2.8131,-2.7802,-2.7523,-2.7403,-2.718,-2.6977,-2.6829,-2.6794,-2.6692,-2.6602,-2.6602,-2.6602,-2.6602,-2.6602,-2.6602,-2.6602,-2.6602,-2.6658,-2.676,-2.6794,0.0,-2.7079,-2.7302,-2.7469,-2.7636,-2.8,-2.8327,-2.8692,-2.9494,-3.0778,-3.2192,-3.1931,-3.2004,-3.2292,-3.2656,-3.2738,-3.2666,0.0,0.0,0.0,0.0,0.0,0.0,0.0,-1.1718,-1.1961,-1.2885,-1.2876,-1.3108,-1.3913,-1.3822,-1.3635,-1.3454,-1.3048,-1.2378,-1.1364,-1.0829,-1.0567,-1.065,-1.0517,-1.0723,-1.1282,-1.1514,-1.1703,-1.1902,-1.2026,-1.2249,-1.2505,-1.2505,-1.2754,-1.3208,-1.3491,-1.3823,-1.4311,-1.5856,-1.6685,-1.7127,-1.8683,-1.9578,-2.0067,-2.0673,-2.1191,-2.1599,-2.1602,-2.1812,-2.2122,-2.2134,-2.2247,-2.2395,-2.2667,-2.2858,-2.294,0.0,0.0,0.0,0.0,0.0,0.0,0.0,0.0,0.0,0.0,0.0,0.0,0.0,0.0,-2.4855,-2.5311,0.0,-2.5554,-2.6022,-2.6726,-2.7289,-2.7503,-2.7868,-2.8079,-2.7967,-2.7636,-2.7369,-2.7302,-2.7032,-2.676,-2.6564,-2.6487,-2.6396,-2.6223,-2.6188,-2.6188,-2.6188,-2.6188,-2.6188,-2.6188,-2.6188,-2.628,-2.6465,-2.6508,-2.6645,-2.6863,-2.7045,-2.7268,-2.7516,-2.8039,-2.8505,-2.9004,-3.0368,-3.1553,-3.2583,-3.2839,-3.2905,-3.288,-3.3331,-3.3284,-3.3035,0.0,0.0,0.0,0.0,0.0,0.0,0.0,-1.1619,-1.1782,-1.2337,-1.2312,-1.2432,-1.2911,-1.2761,-1.2639,-1.2677,-1.2291,-1.1756,-1.1057,-1.062,-1.042,-1.0495,-1.0266,-1.042,-1.1071,-1.1243,-1.1468,-1.1809,-1.2039,-1.2274,-1.2529,-1.2578,-1.2803,-1.3208,-1.3515,-1.39,-1.4441,-1.5876,-1.6717,-1.7155,-1.8616,-1.9436,-1.9875,-2.0535,-2.108,-2.1616,-2.1864,-2.2254,-2.2646,-2.2949,-2.3172,-2.3363,-2.3674,-2.3882,-2.3918,-2.3458,-2.3518,0.0,0.0,0.0,0.0,0.0,0.0,0.0,0.0,-2.623,-2.6145,-2.6075,-2.5813,-2.5678,-2.5934,-2.5865,-2.5926,-2.6465,-2.6982,-2.7393,-2.7507,-2.7792,-2.7901,-2.7723,-2.7436,-2.7201,-2.7121,-2.6794,-2.6508,-2.6324,-2.6188,-2.6062,-2.591,-2.591,-2.591,-2.591,-2.591,-2.591,-2.591,-2.591,-2.598,-2.6131,-2.6233,-2.6405,-2.6624,-2.6794,-2.7032,-2.7382,-2.8103,-2.886,-2.9699,-3.1165,-3.2062,-3.2623,-3.3559,-3.367,-3.3431,-3.3958,-3.3829,-3.3404,0.0,0.0,0.0,0.0,0.0,0.0,0.0,0.0,-1.1722,-1.2325,-1.2188,-1.2225,-1.2761,-1.2538,-1.2231,-1.1944,-1.1873,-1.1608,-1.1038,-1.062,-1.0332,-1.0165,-1.0182,-1.0225,-1.0316,-1.0967,-1.1389,-1.1553,-1.2024,-1.2397,-1.2676,-1.2808,-1.2983,-1.3218,-1.3597,-1.4161,-1.4893,-1.6022,-1.6913,-1.7634,-1.876,-1.9436,-1.985,-2.0409,-2.097,-2.1471,-2.1722,-2.2161,-2.2623,-2.2859,-2.3083,-2.3363,-2.3674,-2.3882,-2.403,-2.4127,-2.4694,-2.5268,-2.5326,-2.5768,-2.6268,-2.6424,-2.6476,-2.6497,0.0,-2.6696,-2.6873,-2.6873,-2.6912,-2.6898,-2.6646,-2.6872,-2.7088,-2.71,-2.7511,-2.7867,-2.799,-2.7762,-2.749,-2.7369,-2.718,-2.6897,-2.653,-2.6349,-2.6166,-2.5968,-2.5945,-2.591,-2.591,-2.591,-2.591,-2.591,-2.591,-2.591,-2.591,-2.591,-2.591,-2.5945,-2.5933,-2.605,-2.627,-2.6405,-2.6611,-2.6854,-2.7919,-2.9427,-3.1097,-3.1402,-3.2089,-3.301,-3.3646,-3.3942,-3.4061,-3.4585,-3.474,-3.4747,0.0,0.0,0.0,0.0,0.0,0.0,0.0,0.0,0.0,0.0,-1.1551,-1.1503,-1.1566,-1.1772,-1.1728,-1.1312,-1.163,-1.1653,-1.1151,-1.0783,-1.0476,-1.0235,-1.0172,-1.0341,-1.0776,-1.1087,-1.1514,-1.207,-1.2322,-1.2554,-1.2832,-1.2881,-1.3079,-1.3443,-1.3692,-1.4241,-1.5088,-1.607,-1.6973,-1.7794,-1.8811,-1.95,-1.9978,-2.0434,-2.0932,-2.1447,-2.1712,-2.2137,0.0,-2.2822,-2.3083,-2.3363,-2.3775,-2.3988,-2.4114,-2.4359,-2.4984,-2.5753,-2.6351,-2.6957,-2.7409,-2.7498,-2.7677,-2.7836,-2.7836,-2.7836,-2.7789,-2.7701,-2.7495,-2.7299,-2.7297,-2.7193,-2.7286,-2.7709,-2.7776,-2.7832,-2.7907,-2.7669,-2.7323,-2.6837,-2.6714,-2.6577,-2.6427,-2.6176,-2.5945,-2.5723,-2.5606,-2.55,-2.5442,-2.5312,-2.5242,-2.5242,-2.5242,-2.5242,-2.5242,-2.5242,-2.5312,-2.5382,-2.5488,-2.5641,-2.5875,-2.6025,-2.6617,-2.7586,-2.8847,-3.0066,-3.116,-3.1302,-3.1691,-3.2151,-3.2492,-3.2997,-3.3691,-3.4555,-3.5034,-3.5279,0.0,0.0,0.0,0.0,0.0,0.0,0.0,0.0,0.0,0.0,-1.1015,-1.0873,-1.0597,-1.1165,-1.1387,-1.0951,-1.1515,-1.1708,-1.1263,-1.0924,-1.0649,-1.0428,-1.0391,-1.062,-1.1164,-1.136,-1.179,-1.2469,-1.2584,-1.2774,-1.2992,-1.3065,-1.3272,-1.3621,-1.3994,-1.4602,-1.5433,-1.6398,-1.7308,-1.8147,-1.8936,-1.9565,-2.0042,-2.0447,-2.0815,-2.1145,-2.1619,-2.2137,-2.2623,-2.2822,-2.3105,-2.3429,-2.3855,-2.4073,-2.4204,-2.4462,-2.529,-2.6356,-2.7448,-2.806,-2.8372,-2.8446,-2.8705,-2.892,-2.8873,-2.866,-2.8381,-2.8235,-2.7765,-2.7465,-2.7661,-2.7439,-2.744,-2.8008,-2.7921,-2.7766,-2.7723,-2.7423,-2.7007,-2.6449,-2.6277,-2.6151,-2.6104,-2.5886,-2.5653,-2.5465,-2.5288,-2.5111,-2.5016,-2.4897,-2.479,-2.479,-2.479,-2.479,-2.479,-2.479,-2.4849,-2.4957,-2.5099,-2.5253,-2.5465,-2.5834,-2.6779,-2.8085,-2.9266,-3.0112,-3.0712,-3.1034,-3.1178,-3.1323,-3.1578,-3.2254,-3.3169,-3.4288,-3.505,-3.5537,0.0,0.0,0.0,0.0,0.0,0.0,0.0,0.0,0.0,0.0,0.0,0.0,0.0,-1.0996,-1.1339,-1.0951,-1.1515,-1.1733,-1.1319,-1.1038,-1.084,-1.0677,-1.0925,-1.1073,-1.1102,-1.1815,-1.2247,-1.2401,-1.279,-1.3069,-1.3194,-1.3467,-1.3597,-1.3641,-1.4623,-1.543,-1.6154,-1.7154,-1.804,-1.8801,-1.9237,-1.9629,-2.0042,-2.0447,-2.0503,-2.0449,-2.1444,-2.2137,-2.2623,-2.2822,-2.315,-2.3553,-2.3897,-2.4151,-2.4323,-2.4549,-2.5811,-2.7498,-2.9003,-2.9448,-2.9441,-2.9464,-2.9373,-2.9259,-2.9121,-2.8779,-2.8431,-2.8244,-2.7765,-2.7465,-2.7661,-2.7797,-2.7873,-2.7896,-2.7961,-2.7894,-2.7556,-2.6905,-2.6427,-2.638,-2.5943,-2.5535,-2.5347,-2.5312,-2.5276,-2.5123,-2.4921,-2.479,-2.479,-2.479,-2.479,-2.479,-2.479,-2.479,-2.479,-2.479,-2.479,-2.479,-2.479,-2.4873,-2.5064,-2.5961,-2.6895,-2.7853,-2.8612,-2.9262,-2.9868,-3.0474,-3.0724,-3.0808,-3.1424,-3.2047,-3.2666,-3.379,-3.476,-3.5569,0.0,0.0,0.0,0.0,0.0,0.0,0.0,0.0,0.0,0.0,0.0,0.0,0.0,0.0,0.0,0.0,-1.1703,-1.1982,-1.1726,-1.1452,-1.122,-1.1048,-1.1362,-1.1634,-1.1764,-1.2307,-1.2761,-1.3067,-1.3205,-1.3372,-1.3597,-1.3692,-1.3881,-1.415,-1.4477,-1.5315,-1.6532,-1.6933,-1.7875,-1.9093,-1.9316,-1.9707,-2.0118,-2.0044,-2.0136,-2.0328,0.0,-2.0851,-2.1318,-2.2069,-2.2483,-2.2865,-2.374,-2.4151,-2.457,-2.5932,-2.6741,-2.7572,-2.9241,-2.9681,-2.9675,-2.9792,-2.9704,-2.9547,-2.9502,-2.919,-2.8826,-2.8581,-2.8073,-2.7816,-2.8336,-2.8083,-2.7939,-2.8432,-2.812,-2.7709,-2.7242,-2.6722,-2.6208,-2.5721,-2.5523,-2.5288,-2.4992,-2.5087,-2.5087,-2.4921,-2.4598,-2.4381,-2.4381,-2.4152,-2.4007,-2.4007,-2.4007,-2.4007,-2.4007,-2.4007,-2.4007,-2.4018,-2.4471,-2.4842,-2.5173,-2.6342,-2.7184,-2.7782,-2.8665,-2.9112,-2.9237,-2.9404,-2.9583,-2.974,-3.0169,-3.1017,-3.2198,-3.3575,-3.4744,-3.5692,0.0,0.0,0.0,0.0,0.0,0.0,0.0,0.0,0.0,0.0,0.0,0.0,0.0,0.0,0.0,0.0,0.0,-1.221,-1.1993,-1.173,-1.1538,-1.1389,-1.1707,-1.2014,-1.2329,-1.2754,-1.3188,-1.361,-1.361,-1.3692,-1.3868,-1.3962,-1.415,-1.4407,-1.477,-1.549,-1.6431,-1.69,-1.7791,-1.8908,-1.893,-1.9321,-1.9874,-1.9525,-1.9505,0.0,-1.9623,-1.9656,-1.9942,-2.1427,-2.2132,-2.2547,-2.3586,-2.4193,-2.4802,-2.6413,-2.7125,-2.7677,-2.913,-2.9691,-2.9902,-3.0055,-2.9973,-2.9858,-2.977,-2.9486,-2.9144,-2.8779,-2.822,-2.7944,-2.8374,-2.7997,-2.776,-2.8216,-2.7939,-2.7423,-2.6858,-2.6461,-2.5978,-2.5382,-2.5276,-2.5076,-2.4646,-2.4706,-2.473,-2.461,-2.4372,-2.4243,-2.4243,-2.4142,-2.4082,-2.398,-2.398,-2.3942,-2.3904,-2.3904,-2.3904,-2.3904,-2.4379,-2.4792,-2.5173,-2.6244,-2.6952,-2.7391,-2.8337,-2.8746,-2.87,-2.8762,-2.893,-2.9201,-2.9483,-3.0502,-3.1984,-3.3502,-3.4815,-3.5883,0.0,0.0,0.0,0.0,0.0,0.0,0.0,0.0,0.0,0.0,0.0,0.0,0.0,0.0,0.0,0.0,0.0,0.0,-1.215,-1.195,-1.1796,-1.1719,-1.1921,-1.2277,-1.2752,-1.3096,-1.3499,-1.3978,-1.3978,-1.3999,-1.4044,-1.4291,-1.4419,-1.4488,-1.5425,-1.5879,-1.5984,-1.6943,-1.775,-1.8349,-1.8175,-1.86,-1.9309,-1.8965,-1.8666,-1.8443,-1.8737,-1.8597,-1.8643,-2.0962,-2.2125,-2.2712,-2.3558,-2.4261,-2.4988,-2.5994,-2.6945,-2.7838,-2.8758,-2.9564,-3.0177,-3.021,-3.021,-3.0146,-2.9875,-2.9655,-2.9357,-2.8826,-2.8244,-2.7835,-2.79,-2.7641,-2.7396,-2.7413,-2.7341,-2.7087,-2.6483,-2.6094,-2.5723,-2.5312,-2.5147,-2.4826,-2.4236,-2.4187,-2.4198,-2.4162,-2.4224,-2.4279,-2.4301,-2.4725,-2.4865,-2.4651,-2.4651,-2.4572,-2.4375,-2.4375,-2.4375,-2.4375,-2.4605,-2.4802,-2.5027,-2.5757,-2.6303,-2.6734,-2.7714,-2.8198,-2.8282,-2.8482,-2.8816,-2.9161,-2.9521,-3.0604,-3.2074,-3.3682,-3.5024,-3.615,0.0,0.0,0.0,0.0,0.0,0.0,0.0,0.0,0.0,0.0,0.0,0.0,0.0,0.0,0.0,0.0,0.0,0.0,-1.2556,-1.2276,-1.2066,-1.1998,-1.2324,-1.2482,-1.2425,-1.2803,-1.3227,-1.3692,-1.3747,-1.4011,-1.4441,-1.4615,-1.4788,-1.4926,-1.52,-1.5661,-1.6303,-1.6645,-1.7254,-1.797,-1.8063,-1.8385,-1.8757,-1.8393,-1.8302,-1.8369,-1.82,-1.8213,-1.8587,-2.0497,-2.2165,-2.3549,-2.4012,-2.4462,-2.4988,-2.5994,-2.6571,-2.719,-2.8661,-2.9313,-2.9658,-3.0269,-3.038,-3.0295,-3.0146,-2.9864,-2.9525,-2.9075,-2.8407,-2.7916,-2.8033,-2.7698,-2.7396,-2.7413,-2.723,-2.6871,-2.6324,-2.5804,-2.5324,-2.4957,-2.4622,-2.4298,-2.4007,-2.4015,-2.4002,-2.3851,-2.3962,-2.4155,-2.4364,-2.4338,-2.4256,-2.4017,-2.4028,-2.4017,-2.3937,-2.3937,-2.3937,-2.3948,-2.4341,-2.4665,-2.4846,-2.5417,-2.5967,-2.6594,-2.7028,-2.7352,-2.7591,-2.8324,-2.891,-2.9496,-3.0552,-3.1717,-3.3031,-3.4712,-3.5882,-3.68,0.0,0.0,0.0,0.0,0.0,0.0,0.0,0.0,0.0,0.0,0.0,0.0,0.0,0.0,0.0,0.0,0.0,0.0,0.0,-1.252,-1.2365,-1.224,-1.2353,-1.2453,-1.2513,-1.2654,-1.2959,-1.3433,-1.3465,-1.3773,-1.4339,-1.4463,-1.4733,-1.5108,-1.5221,-1.5588,-1.611,-1.6327,-1.6825,0.0,0.0,-1.7842,-1.8144,-1.7796,-1.7789,-1.7996,-1.7861,0.0,0.0,-2.06,-2.2199,-2.3782,-2.4177,-2.4584,-2.5021,-2.5664,-2.6296,-2.6971,-2.7925,-2.854,-2.9006,-2.9463,-2.9542,-2.9461,-2.928,-2.9009,-2.8689,-2.8256,-2.779,-2.7374,-2.7155,-2.7016,-2.6877,-2.6805,-2.6622,-2.6388,-2.5988,-2.5558,-2.5111,-2.4598,-2.4345,-2.4134,-2.3944,-2.3911,-2.3946,-2.4154,-2.4266,-2.4396,-2.4438,-2.4521,-2.4506,-2.4311,-2.4187,-2.4022,-2.3815,-2.3815,-2.3815,-2.3815,-2.4211,-2.4451,-2.4692,-2.5083,-2.5622,-2.6249,-2.658,-2.7024,-2.7561,-2.8304,-2.9083,-2.9954,-3.0983,-3.2328,-3.3795,-3.5245,-3.6461,-3.7472,0.0,0.0,0.0,0.0,0.0,0.0,0.0,0.0,0.0,0.0,0.0,0.0,0.0,0.0,0.0,0.0,0.0,0.0,0.0,0.0,0.0,0.0,-1.2258,-1.2339,-1.2712,-1.254,-1.267,-1.3133,-1.3133,-1.34,-1.3924,-1.4055,-1.4446,-1.505,-1.5296,-1.5521,-1.5738,-1.6069,-1.647,-1.6897,-1.6908,-1.717,-1.7577,0.0,0.0,0.0,0.0,0.0,0.0,0.0,-2.2214,-2.3681,-2.4156,-2.4625,-2.5045,-2.5256,-2.6037,-2.6883,-2.6965,-2.7611,-2.8276,-2.8376,-2.8392,-2.8334,-2.805,-2.783,-2.7545,-2.7089,-2.6894,-2.6597,-2.5985,-2.6028,-2.6101,-2.5897,-2.5859,-2.5787,-2.554,-2.5346,-2.4969,-2.4261,-2.4152,-2.4101,-2.4022,-2.3864,-2.4035,-2.471,-2.4798,-2.4718,-2.4574,-2.4914,-2.4988,-2.4775,-2.4529,-2.4186,-2.3797,-2.3797,-2.3797,-2.3797,-2.4024,-2.4249,-2.4411,-2.47,-2.5168,-2.5812,-2.6249,-2.6928,-2.7815,-2.8435,-2.9376,-3.05,-3.1329,-3.2731,-3.45,-3.5613,-3.685,-3.8059,0.0,0.0,0.0,0.0,0.0,0.0,0.0,0.0,0.0,0.0,0.0,0.0,0.0,0.0,0.0,0.0,0.0,0.0,0.0,0.0,0.0,0.0,-1.2508,-1.2401,-1.2301,-1.2222,-1.2362,-1.2788,-1.2788,-1.3028,-1.3514,-1.3627,-1.4078,-1.4758,-1.4812,-1.5178,-1.5792,-1.6091,-1.6249,-1.6367,-1.6744,-1.6961,-1.7059,0.0,0.0,0.0,0.0,0.0,0.0,0.0,-2.2214,-2.3681,-2.4156,-2.4625,-2.5045,-2.5317,-2.5721,-2.6227,-2.6893,-2.7288,-2.763,-2.8243,-2.8392,-2.8334,-2.805,-2.783,-2.7541,-2.703,-2.6493,-2.6056,-2.5798,-2.558,-2.5431,-2.5276,-2.5473,-2.5507,-2.5005,-2.4919,-2.4706,-2.4261,-2.3897,-2.3794,-2.3984,-2.4015,-2.4164,-2.4529,-2.4745,-2.4872,-2.483,-2.4701,-2.4454,-2.4013,-2.397,-2.3884,-2.3797,-2.3797,-2.3797,-2.3797,-2.3841,-2.3884,-2.3927,-2.4196,-2.4615,-2.5115,-2.5717,-2.658,-2.762,-2.8591,-2.9821,-3.1172,-3.2407,-3.385,-3.5317,-3.6353,-3.7395,-3.8391,0.0,0.0,0.0,0.0,0.0,0.0,0.0,0.0,0.0,0.0,0.0,0.0,0.0,0.0,0.0,0.0,0.0,0.0,0.0,0.0,0.0,0.0,0.0,0.0,-1.2455,-1.233,-1.2331,-1.2444,0.0,-1.267,-1.3146,-1.3205,-1.361,-1.4305,-1.4575,-1.4984,-1.5526,-1.6012,-1.6231,-1.634,-1.6748,-1.6897,0.0,0.0,0.0,0.0,0.0,0.0,0.0,0.0,-2.1619,-2.2903,-2.3968,-2.4625,-2.5045,-2.532,-2.564,-2.5981,-2.6418,-2.6627,-2.68,-2.7164,-2.7193,-2.7083,-2.6858,-2.6626,-2.6306,-2.5796,-2.5477,-2.5135,-2.4689,-2.4649,-2.4623,-2.4446,-2.4531,-2.4579,-2.456,-2.4446,-2.4247,-2.3936,-2.3714,-2.3709,-2.4039,-2.4007,-2.4156,-2.4661,-2.4618,-2.4529,-2.4529,-2.4272,-2.397,-2.3667,-2.3493,-2.3406,-2.3276,-2.3144,-2.3144,-2.3276,-2.3276,-2.3406,-2.3667,-2.3894,-2.4315,-2.4946,-2.5591,-2.6509,-2.7592,-2.8779,-3.0012,-3.1331,-3.2791,-3.4143,-3.5385,-3.6492,-3.7474,-3.8319,0.0,0.0,0.0,0.0,0.0,0.0,0.0,0.0,0.0,0.0,0.0,0.0,0.0,0.0,0.0,0.0,0.0,0.0,0.0,0.0,0.0,0.0,0.0,0.0,0.0,0.0,0.0,-1.2264,-1.2246,0.0,0.0,0.0,0.0,0.0,-1.4217,-1.469,-1.5243,-1.5789,-1.6164,0.0,0.0,-1.6897,0.0,0.0,0.0,0.0,0.0,0.0,0.0,0.0,-2.0987,-2.1968,-2.3466,-2.4342,-2.4916,-2.5329,-2.5715,-2.5989,-2.6026,-2.6133,-2.6221,-2.6168,-2.6079,-2.5937,-2.5735,-2.5454,-2.5123,-2.463,-2.442,-2.4162,-2.3592,-2.3606,-2.3688,-2.357,-2.3548,-2.3673,-2.4048,-2.4012,-2.3862,-2.3647,-2.3567,-2.3685,-2.405,-2.3897,-2.4129,-2.483,-2.4401,-2.412,-2.4067,-2.3851,-2.3624,-2.3373,-2.3144,-2.2925,-2.2706,-2.253,-2.253,-2.2706,-2.275,-2.2979,-2.3373,-2.3667,-2.4176,-2.4861,-2.5633,-2.658,-2.7672,-2.8937,-3.0165,-3.1405,-3.2897,-3.4177,-3.524,-3.643,-3.7371,-3.8128,0.0,0.0,0.0,0.0,0.0,0.0,0.0,0.0,0.0,0.0,0.0,0.0,0.0,0.0,0.0,0.0,0.0,0.0,0.0,0.0,0.0,0.0,0.0,0.0,0.0,0.0,0.0,-1.2473,-1.2401,0.0,0.0,0.0,0.0,0.0,0.0,-1.4077,-1.5219,-1.5396,0.0,0.0,0.0,0.0,0.0,0.0,0.0,0.0,0.0,-1.8827,-1.9294,0.0,0.0,-2.1276,-2.2403,-2.344,-2.4454,-2.5394,-2.5917,-2.6168,-2.6168,-2.624,-2.6242,-2.6063,-2.6026,-2.5936,-2.5675,-2.5355,-2.497,-2.4446,-2.3891,-2.3444,-2.3202,-2.2763,-2.2549,-2.2755,-2.2908,-2.3077,-2.3442,-2.3616,-2.3709,-2.361,-2.3446,-2.3534,-2.405,-2.3897,-2.4129,-2.483,-2.4219,-2.3754,-2.359,-2.3547,-2.3329,-2.2891,-2.2847,-2.2706,-2.2441,-2.2388,-2.2388,-2.2441,-2.2662,-2.2803,-2.2891,-2.3493,-2.409,-2.4584,-2.5684,-2.6794,-2.7891,-2.9147,-3.038,-3.1613,-3.2967,-3.4177,-3.524,-3.6321,-3.7238,-3.8001,0.0,0.0,0.0,0.0,0.0,0.0,0.0,0.0,0.0,0.0,0.0,0.0,0.0,0.0,0.0,0.0,0.0,0.0,0.0,0.0,0.0,0.0,0.0,0.0,0.0,0.0,-1.275,-1.2627,-1.2591,0.0,0.0,0.0,0.0,0.0,0.0,-1.3772,-1.4416,-1.5147,0.0,0.0,0.0,0.0,0.0,0.0,0.0,0.0,0.0,0.0,-1.9369,-2.0004,-2.0403,0.0,-2.19,-2.2647,0.0,-2.4704,-2.5313,-2.5623,-2.607,-2.6258,-2.626,-2.6046,-2.5919,-2.5754,-2.5486,-2.4792,-2.4178,-2.4142,-2.3238,-2.2512,-2.2541,-2.221,-2.1957,-2.2046,-2.2156,-2.2469,-2.3169,-2.3243,-2.3305,-2.3576,-2.3335,-2.3226,-2.3484,-2.3578,-2.3803,-2.42,-2.3841,-2.345,-2.311,-2.3067,-2.2979,-2.2803,-2.2539,-2.2318,-2.223,-2.2043,-2.2043,-2.223,-2.2441,-2.2618,-2.2803,-2.3493,-2.4133,-2.4807,-2.5779,-2.6887,-2.8155,-2.9381,-3.0532,-3.1649,-3.3108,-3.4225,-3.5139,-3.6258,-3.7164,-3.786,0.0,0.0,0.0,0.0,0.0,0.0,0.0,0.0,0.0,0.0,0.0,0.0,0.0,0.0,0.0,0.0,0.0,0.0,0.0,0.0,0.0,0.0,0.0,0.0,0.0,0.0,-1.2908,-1.275,-1.2745,-1.2656,0.0,0.0,-1.252,-1.2585,0.0,0.0,0.0,0.0,0.0,0.0,0.0,0.0,0.0,0.0,0.0,0.0,0.0,0.0,0.0,0.0,0.0,0.0,0.0,0.0,0.0,0.0,-2.4592,-2.4895,-2.5408,-2.5593,-2.556,-2.5368,-2.5154,-2.492,-2.4654,-2.3863,-2.32,-2.3248,-2.25,-2.1807,-2.175,-2.1591,-2.1459,-2.1534,-2.1535,-2.1892,-2.3034,-2.2922,-2.2925,-2.3517,-2.3187,-2.2972,-2.3111,-2.3349,-2.3515,-2.3523,-2.3424,-2.3188,-2.2803,-2.2671,-2.2583,-2.2583,-2.2274,-2.2052,-2.1963,-2.1776,-2.1776,-2.2008,-2.2264,-2.253,-2.2803,-2.3493,-2.4219,-2.5031,-2.5904,-2.7021,-2.8287,-2.9588,-3.0645,-3.1649,-3.3178,-3.424,-3.5041,-3.6211,-3.7059,-3.7714,0.0,0.0,0.0,0.0,0.0,0.0,0.0,0.0,0.0,0.0,0.0,0.0,0.0,0.0,0.0,0.0,0.0,0.0,0.0,0.0,0.0,0.0,0.0,0.0,0.0,0.0,-1.3112,-1.2896,-1.2838,-1.275,-1.2709,-1.2709,-1.2709,-1.2709,0.0,0.0,0.0,0.0,0.0,0.0,0.0,0.0,0.0,0.0,0.0,0.0,0.0,0.0,0.0,0.0,0.0,0.0,0.0,0.0,0.0,0.0,-2.3902,-2.4098,-2.4033,-2.4017,-2.3968,-2.3769,-2.3515,-2.3253,-2.2986,-2.2549,-2.2095,-2.163,-2.1567,-2.1427,-2.0818,-2.0764,-2.0951,-2.1333,-2.1083,-2.1361,-2.2987,-2.2673,-2.2636,-2.3517,-2.3075,-2.2821,-2.3073,-2.3349,-2.3355,-2.2954,-2.304,-2.3013,-2.2794,-2.2362,-2.2097,-2.2097,-2.2097,-2.1963,-2.1696,-2.1696,-2.1696,-2.1687,-2.2176,-2.253,-2.2803,-2.3493,-2.4305,-2.5242,-2.6113,-2.7144,-2.8287,-2.9716,-3.0771,-3.1649,-3.3178,-3.424,-3.5041,-3.6116,-3.6861,-3.7506,0.0,0.0,0.0,0.0,0.0,0.0,0.0,0.0,0.0,0.0,0.0,0.0,0.0,0.0,0.0,0.0,0.0,0.0,0.0,0.0,0.0,0.0,0.0,0.0,0.0,0.0,-1.3203,-1.2896,-1.3258,-1.3368,-1.3252,-1.3614,-1.3821,-1.3859,-1.3985,-1.4265,0.0,0.0,0.0,0.0,0.0,0.0,-1.7323,0.0,0.0,0.0,0.0,0.0,0.0,0.0,0.0,0.0,0.0,0.0,0.0,-2.1192,-2.2305,-2.3433,-2.3819,-2.3968,-2.3935,-2.3634,-2.341,-2.3131,-2.2789,-2.201,-2.1504,-2.1945,-2.1368,-2.0886,-2.1248,-2.0959,-2.081,-2.1305,-2.1043,-2.1361,-2.2987,-2.2684,-2.2566,-2.3323,-2.2628,-2.2175,-2.2449,-2.2554,-2.2615,-2.2627,-2.278,-2.2715,-2.2362,-2.2185,-2.2097,-2.2097,-2.1919,-2.1785,-2.1696,-2.1696,-2.1696,-2.1696,-2.2176,-2.2441,-2.2574,-2.3406,-2.4305,-2.5242,-2.6113,-2.7226,-2.8498,-2.9793,-3.0771,-3.1649,-3.3101,-3.4187,-3.5008,-3.5943,-3.6754,-3.7476,0.0,0.0,0.0,0.0,0.0,0.0,0.0,0.0,0.0,0.0,0.0,0.0,0.0,0.0,0.0,0.0,0.0,0.0,0.0,0.0,0.0,0.0,0.0,0.0,0.0,-1.3459,-1.3372,-1.3202,-1.3545,-1.374,-1.3807,-1.4132,-1.4348,-1.4408,-1.4538,-1.4767,0.0,0.0,0.0,0.0,0.0,0.0,-1.724,0.0,0.0,0.0,0.0,0.0,0.0,0.0,0.0,0.0,0.0,0.0,0.0,0.0,-2.0646,-2.1774,0.0,-2.3013,-2.2932,-2.2702,-2.24,-2.209,-2.1735,-2.0996,-2.0569,-2.1196,-2.0727,-2.0384,-2.0931,-2.0873,-2.0887,-2.1247,-2.11,-2.1409,-2.2866,-2.2582,-2.2402,-2.2881,-2.2289,-2.1806,-2.1832,-2.1969,-2.2065,-2.213,-2.238,-2.2407,-2.2097,-2.1928,-2.1839,-2.1839,-2.1651,-2.1562,-2.1454,-2.1562,-2.1616,-2.1607,-2.2132,-2.2441,-2.2574,-2.3406,-2.4348,-2.5369,-2.6155,-2.7267,0.0,-2.9793,-3.0771,-3.1663,-3.3044,-3.4085,-3.4909,-3.5784,-3.66,-3.7282,0.0,0.0,0.0,0.0,0.0,0.0,0.0,0.0,0.0,0.0,0.0,0.0,0.0,0.0,0.0,0.0,0.0,0.0,0.0,0.0,0.0,0.0,0.0,0.0,0.0,-1.3518,-1.3591,-1.3705,-1.3778,-1.4008,-1.4349,-1.4385,-1.4437,-1.4517,-1.4649,-1.5072,-1.5691,-1.6266,-1.6556,-1.6667,-1.6675,-1.6876,0.0,0.0,0.0,0.0,0.0,0.0,0.0,0.0,0.0,0.0,0.0,0.0,0.0,0.0,0.0,0.0,0.0,-2.1305,-2.1197,-2.1183,-2.0827,-2.0426,-2.0135,-1.9726,0.0,-1.9704,-1.9845,-1.9947,-2.0137,-2.0614,-2.1044,-2.1185,-2.1143,-2.1537,-2.2712,-2.2445,-2.2209,-2.2334,-2.1997,-2.1617,-2.1205,-2.1489,-2.1661,-2.1451,-2.1819,-2.2024,-2.2052,-2.1616,-2.1347,-2.1347,-2.1347,-2.1248,-2.0997,-2.1248,-2.1392,-2.1401,-2.2043,-2.2485,-2.2794,-2.345,-2.4391,-2.5538,-2.6196,-2.7267,-2.859,-2.9793,-3.0771,-3.1663,-3.3009,-3.3968,-3.4695,-3.5623,-3.6383,-3.6981,0.0,0.0,0.0,0.0,0.0,0.0,0.0,0.0,0.0,0.0,0.0,0.0,0.0,0.0,0.0,0.0,0.0,0.0,0.0,0.0,0.0,0.0,0.0,0.0,0.0,-1.385,-1.3928,-1.3705,-1.457,-1.4947,-1.4842,-1.5262,-1.5516,-1.5624,-1.5764,-1.5966,-1.6206,-1.6364,-1.6383,-1.6331,-1.6491,-1.6586,0.0,0.0,0.0,0.0,-1.8002,-1.8065,0.0,0.0,0.0,0.0,0.0,0.0,0.0,0.0,-1.7947,-1.8265,-1.92,0.0,-2.0398,-2.0798,-2.0662,-2.0342,0.0,-1.9705,-1.9587,-2.0253,0.0,-2.0084,-2.0671,-2.0913,-2.1017,-2.1045,-2.1254,-2.1704,-2.2557,-2.2611,-2.2418,-2.2004,-2.1578,-2.1195,-2.077,-2.0965,-2.1087,-2.0987,-2.1185,-2.1401,-2.1553,-2.1284,-2.1006,-2.0888,-2.0835,-2.0925,-2.0997,-2.1042,-2.1195,-2.1392,-2.1741,-2.2087,-2.253,-2.3232,-2.4176,-2.5327,-2.6155,-2.7267,-2.859,-2.9651,-3.062,-3.1626,-3.2725,-3.3728,-3.4695,-3.5479,-3.6243,-3.6996,0.0,0.0,0.0,0.0,0.0,0.0,0.0,0.0,0.0,0.0,0.0,0.0,0.0,0.0,0.0,0.0,0.0,0.0,0.0,0.0,0.0,0.0,0.0,0.0,-1.3459,-1.3938,-1.4161,-1.4072,-1.4971,-1.5386,-1.5372,-1.566,-1.5869,-1.6022,-1.6144,-1.6231,-1.6318,-1.6318,-1.6275,-1.6222,-1.6318,0.0,0.0,0.0,0.0,0.0,-1.7176,-1.7131,0.0,-1.6979,-1.7028,-1.6988,0.0,0.0,0.0,0.0,-1.6916,-1.7232,-1.8247,-1.9138,-1.983,-2.008,-2.0144,-2.005,-1.9795,0.0,0.0,0.0,0.0,0.0,-2.0869,-2.1052,-2.1169,-2.147,-2.1661,-2.1945,-2.2385,-2.2349,-2.2187,-2.1845,-2.1272,-2.0848,-2.0605,-2.048,-2.0492,-2.0652,-2.0759,-2.095,-2.1221,-2.1006,-2.0826,-2.0699,-2.0564,-2.0564,-2.069,-2.0826,-2.0961,-2.1239,-2.1562,-2.1954,-2.2441,-2.3144,-2.4057,-2.5115,-2.5977,-2.7103,-2.8459,-2.9457,-3.0431,-3.1479,-3.2475,-3.3485,-3.4476,-3.5187,-3.6006,-3.6784,0.0,0.0,0.0,0.0,0.0,0.0,0.0,0.0,0.0,0.0,0.0,0.0,0.0,0.0,0.0,0.0,0.0,0.0,0.0,0.0,0.0,0.0,0.0,-1.3497,-1.3518,-1.4047,-1.4419,-1.4636,-1.5241,-1.5618,-1.5792,-1.5792,-1.5869,-1.5988,-1.6122,-1.6178,-1.6178,-1.6156,-1.6134,-1.6134,-1.6134,0.0,0.0,0.0,0.0,0.0,0.0,0.0,0.0,-1.5654,-1.5752,-1.5887,-1.552,0.0,0.0,0.0,0.0,0.0,-1.7639,-1.8577,-1.926,-1.9427,-1.9636,-1.9714,-1.945,0.0,0.0,0.0,0.0,0.0,0.0,-2.1091,-2.1346,-2.192,-2.2087,-2.2162,-2.2255,-2.2019,-2.1769,-2.1617,-2.1031,-2.0566,-2.0401,-2.0024,-1.9957,-2.0276,-2.0343,-2.0474,-2.0792,-2.0656,-2.0564,-2.0518,-2.0292,-2.0201,-2.0201,-2.0473,-2.0736,-2.0952,-2.1374,-2.1865,-2.2397,-2.3101,-2.397,-2.4946,-2.5821,-2.6928,-2.8207,-2.9211,-3.0203,-3.127,-3.2223,-3.322,-3.4153,-3.4872,-3.5703,-3.6507,0.0,0.0,0.0,0.0,0.0,0.0,0.0,0.0,0.0,0.0,0.0,0.0,0.0,0.0,0.0,0.0,0.0,0.0,0.0,0.0,0.0,0.0,-1.334,-1.3607,-1.4072,-1.4556,-1.4937,-1.5266,-1.5807,-1.5983,-1.5792,-1.5792,-1.5869,-1.5988,-1.6022,-1.6044,-1.6022,-1.5903,-1.5826,-1.5782,-1.5782,0.0,0.0,0.0,0.0,0.0,0.0,0.0,0.0,-1.5031,-1.4952,-1.4784,-1.4949,0.0,0.0,0.0,0.0,0.0,-1.6743,-1.7402,-1.8216,-1.9565,-1.9808,-1.9654,-1.9376,0.0,0.0,0.0,0.0,0.0,0.0,-2.1022,-2.1144,-2.1525,-2.1958,-2.2244,-2.2147,-2.1945,-2.154,-2.0876,-2.0683,-2.0333,-1.9578,-1.9436,-1.9407,-1.9495,-1.9585,-1.9748,-1.9902,-1.9977,-1.9936,-1.9762,-1.9725,-1.9725,-1.9725,-2.0164,-2.0473,-2.0744,-2.0997,-2.1454,-2.2185,-2.2838,-2.3787,-2.4946,-2.5821,-2.6835,-2.7931,-2.8831,-2.9883,-3.1009,-3.1873,-3.2868,-3.3942,-3.4654,-3.5412,-3.6242,0.0,0.0,0.0,0.0,0.0,0.0,0.0,0.0,0.0,0.0,0.0,0.0,0.0,0.0,0.0,0.0,0.0,0.0,0.0,0.0,0.0,-1.3659,-1.3743,-1.3892,-1.4127,-1.4928,-1.5341,-1.5389,-1.593,-1.6057,-1.5792,-1.5792,-1.5814,-1.5836,-1.5836,-1.5802,-1.5736,-1.5669,-1.5614,-1.5592,0.0,0.0,0.0,0.0,0.0,0.0,0.0,0.0,0.0,0.0,-1.4246,-1.4278,-1.456,0.0,0.0,0.0,0.0,0.0,-1.6697,-1.7166,-1.7726,-1.9107,-1.9431,-1.9394,-1.9493,-1.9671,0.0,0.0,0.0,0.0,0.0,-2.1092,-2.132,-2.1699,-2.2099,-2.2243,-2.1966,-2.1492,-2.0992,-2.0644,-2.0167,-1.9736,-1.9341,-1.9024,-1.8833,-1.8935,-1.8885,-1.8982,-1.9287,-1.9399,-1.9463,-1.9579,-1.9587,-1.9587,-1.9587,-1.9808,-2.0119,-2.0473,-2.0817,-2.141,-2.2097,-2.2794,-2.3701,-2.4722,-2.5622,-2.6652,-2.7701,-2.8593,-2.9613,-3.0697,-3.1519,-3.2453,-3.3514,-3.4839,-3.5799,-3.6492,0.0,0.0,0.0,0.0,0.0,0.0,0.0,0.0,0.0,0.0,0.0,0.0,0.0,0.0,0.0,0.0,0.0,0.0,0.0,0.0,-1.3378,-1.406,-1.4229,-1.4337,-1.4462,-1.5286,-1.5666,-1.5594,-1.5991,-1.6057,-1.5792,-1.577,-1.576,-1.5693,-1.5671,-1.5592,-1.5491,-1.5468,-1.5424,-1.5401,0.0,0.0,0.0,0.0,0.0,0.0,0.0,0.0,0.0,0.0,0.0,0.0,0.0,0.0,0.0,-1.4859,-1.5141,-1.5638,-1.6795,-1.7196,-1.7536,-1.8649,-1.9094,-1.931,-1.9575,-1.9872,-2.0138,-2.027,0.0,0.0,-2.1149,-2.1332,-2.1551,-2.1833,-2.2103,-2.2101,-2.1731,-2.1031,-2.0527,-2.0323,-1.9696,-1.9222,-1.9103,-1.8594,-1.8313,-1.8393,-1.8296,-1.8346,-1.8649,-1.8712,-1.8848,-1.9089,-1.9133,-1.9182,-1.9227,-1.9355,-1.9671,-2.0201,-2.069,-2.1275,-2.1963,-2.2706,-2.3517,-2.438,-2.5327,-2.6332,-2.7348,-2.8195,-2.9184,-3.0241,-3.1097,-3.2151,-3.3374,-3.4957,-3.5958,-3.6616,0.0,0.0,0.0,0.0,0.0,0.0,0.0,0.0,0.0,0.0,0.0,0.0,0.0,0.0,0.0,0.0,0.0,0.0,0.0,0.0,-1.3265,-1.406,-1.4576,-1.5072,-1.5567,-1.5655,-1.5853,-1.6139,-1.6175,-1.6057,-1.5792,-1.5738,-1.5693,-1.5693,-1.557,-1.5513,-1.5491,-1.5368,-1.5233,-1.5131,-1.4983,0.0,0.0,0.0,0.0,0.0,0.0,0.0,0.0,0.0,0.0,0.0,0.0,0.0,-1.4367,-1.4499,-1.5061,-1.5842,-1.6621,-1.7146,-1.7679,-1.8503,-1.9191,-1.9632,-1.9471,-2.0041,-2.0669,-2.082,-2.0913,-2.1156,-2.1642,-2.1844,-2.1866,-2.1572,-2.1712,-2.1693,-2.132,-2.0886,-2.0284,-1.9499,-1.9341,-1.9063,-1.8514,-1.8201,-1.7968,-1.7774,-1.7937,-1.7945,-1.7707,-1.7808,-1.7826,-1.7647,-1.773,-1.7847,-1.8088,-1.8631,-1.9242,-1.9928,-2.0473,-2.0979,-2.1482,-2.2407,-2.3188,-2.3874,-2.4861,-2.5737,-2.6652,-2.7528,-2.849,-2.9574,-3.0558,-3.2101,-3.3839,-3.4654,-3.5412,-3.6132,0.0,0.0,0.0,0.0,0.0,0.0,0.0,0.0,0.0,0.0,0.0,0.0,0.0,0.0,0.0,0.0,0.0,0.0,0.0,0.0,-1.3408,-1.4563,-1.479,-1.5311,-1.6183,-1.6208,-1.6214,-1.62,-1.6025,-1.5893,-1.5738,-1.5715,-1.5604,-1.5447,-1.539,-1.5289,-1.5119,-1.5074,-1.5006,-1.4903,-1.4857,-1.4811,0.0,0.0,0.0,0.0,0.0,0.0,0.0,0.0,-1.2791,-1.3017,-1.3425,-1.3758,-1.4023,-1.4146,-1.4793,-1.5595,-1.6257,-1.6899,-1.7524,-1.8121,-1.8962,0.0,0.0,-1.9989,-2.0457,-2.0861,-2.098,-2.1043,-2.1231,-2.1506,-2.1549,-2.109,-2.1355,-2.1425,-2.0886,-2.0342,-1.9824,-1.9341,-1.8984,-1.8594,-1.8193,-1.7951,-1.7659,-1.7335,-1.722,-1.7191,-1.7154,-1.7091,-1.7133,-1.7247,-1.729,-1.7458,-1.7763,-1.8129,-1.8621,-1.9242,-2.0065,-2.0798,-2.1437,-2.2185,-2.3013,-2.3841,-2.4647,-2.5527,-2.6351,-2.7133,-2.8063,-2.9184,-3.0709,-3.2151,-3.3374,-3.4119,-3.4872,-3.5591,0.0,0.0,0.0,0.0,0.0,0.0,0.0,0.0,0.0,0.0,0.0,0.0,0.0,0.0,0.0,0.0,0.0,0.0,-1.2878,-1.2896,-1.3408,-1.4614,-1.4815,-1.5324,-1.6233,-1.6391,-1.6371,-1.62,-1.5903,-1.5738,-1.5693,-1.5604,-1.5447,-1.5233,-1.5187,-1.5062,-1.488,-1.488,-1.4823,-1.473,-1.4696,-1.4661,0.0,0.0,0.0,0.0,0.0,0.0,0.0,0.0,-1.2508,-1.275,-1.3099,-1.3425,-1.3708,-1.3818,-1.461,-1.5531,-1.5991,-1.6722,-1.7451,-1.7806,0.0,0.0,-1.9445,-1.9841,-2.0374,-2.0998,-2.1144,-2.1045,-2.083,-2.0985,-2.096,-2.0481,-2.0743,-2.0831,-2.0361,-1.9817,-1.9399,-1.9152,-1.8634,-1.8201,-1.791,-1.7659,-1.7375,-1.7017,-1.673,-1.6627,-1.666,-1.6423,-1.6402,-1.6657,-1.6684,-1.6858,-1.7174,-1.7573,-1.8068,-1.8661,-1.9459,-2.0246,-2.1069,-2.182,-2.2608,-2.3406,-2.4219,-2.5062,-2.5946,-2.6693,-2.7782,-2.9145,-3.0658,-3.1859,-3.2797,-3.3624,-3.4375,-3.5121,0.0,0.0,0.0,0.0,0.0,0.0,0.0,0.0,0.0,0.0,0.0,0.0,0.0,0.0,0.0,0.0,0.0,0.0,-1.2878,-1.2896,-1.3265,-1.406,-1.4614,-1.5148,-1.568,-1.6161,-1.634,-1.62,-1.5871,-1.5693,-1.5693,-1.5425,-1.5233,-1.5085,-1.496,-1.4857,-1.4811,-1.4811,-1.473,-1.4581,-1.4454,-1.4326,-1.4079,0.0,0.0,0.0,0.0,0.0,0.0,0.0,-1.2222,-1.2449,-1.2715,-1.3082,-1.3425,-1.356,-1.4589,-1.5729,-1.5877,-1.6676,-1.7529,-1.7659,0.0,0.0,-1.8763,-1.9583,-2.0579,-2.1245,-2.138,-2.123,-2.07,-2.0422,-2.0181,-1.9861,-1.9865,-1.9837,-1.961,-1.9386,-1.9143,-1.8723,-1.8273,-1.7902,-1.7683,-1.7326,-1.6968,-1.673,-1.6517,-1.6312,-1.6087,-1.5824,-1.5692,-1.5692,-1.5823,-1.6035,-1.6284,-1.6892,-1.7575,-1.8303,-1.8607,-1.9325,-2.0337,-2.1284,-2.1954,-2.2441,-2.3406,-2.4305,-2.5242,-2.6155,-2.7649,-2.9457,-3.0279,-3.122,-3.22,-3.3122,-3.3953,-3.4743,0.0,0.0,0.0,0.0,0.0,0.0,0.0,0.0,0.0,0.0,0.0,0.0,0.0,0.0,0.0,0.0,0.0,0.0,-1.2878,-1.299,-1.336,-1.406,-1.4614,-1.5121,-1.555,-1.5926,-1.611,-1.6066,-1.5814,-1.5637,-1.5558,-1.5368,-1.5187,-1.496,-1.4926,-1.4811,-1.465,-1.465,-1.4534,-1.4326,-1.428,-1.4186,-1.395,0.0,0.0,0.0,0.0,0.0,0.0,0.0,0.0,0.0,-1.2609,-1.2873,-1.3174,-1.3773,-1.465,-1.5533,-1.6028,-1.6724,0.0,-1.7337,0.0,0.0,-1.8331,-1.9217,-2.0177,-2.0366,-2.0377,-2.0315,-2.0128,-2.0021,-1.9793,-1.9263,-1.9354,-1.9251,-1.8639,-1.8375,-1.8031,-1.7496,-1.7197,-1.6896,-1.6546,-1.6265,-1.6134,-1.6156,-1.5648,-1.542,-1.5602,-1.5235,-1.4985,-1.4985,-1.5042,-1.529,-1.582,-1.6125,-1.6713,-1.7538,-1.8135,-1.9089,-2.0337,-2.0916,-2.1588,-2.223,-2.296,-2.3777,-2.4627,-2.6133,-2.7447,-2.8569,-2.9575,-3.057,-3.1566,-3.239,-3.329,-3.4167,0.0,0.0,0.0,0.0,0.0,0.0,0.0,0.0,0.0,0.0,0.0,0.0,0.0,0.0,0.0,0.0,0.0,0.0,0.0,-1.306,-1.3296,-1.3727,-1.4425,-1.5102,-1.5693,-1.583,-1.5913,-1.5869,-1.5703,-1.5547,-1.5413,-1.5233,-1.504,-1.4857,-1.4811,-1.4651,-1.4454,-1.4454,-1.4314,-1.4116,-1.4069,-1.3975,-1.382,0.0,0.0,0.0,0.0,0.0,0.0,0.0,0.0,0.0,-1.2401,-1.2644,-1.2983,-1.3777,-1.455,-1.5287,-1.5995,-1.6625,0.0,-1.7002,-1.7677,-1.8339,-1.8363,-1.9087,-1.9697,-1.9568,-1.9655,-1.9653,-1.9533,-1.9446,-1.9206,-1.8621,-1.8715,-1.859,-1.7962,-1.7777,-1.7503,-1.696,-1.6636,-1.6302,-1.5912,-1.5682,-1.5545,-1.5488,-1.5108,-1.494,-1.508,-1.4837,-1.4692,-1.4692,-1.4692,-1.4867,-1.5241,-1.5612,-1.6089,-1.6699,-1.7368,-1.8252,-1.9357,-2.0281,-2.1051,-2.1731,-2.2794,-2.3557,-2.4134,-2.5598,-2.6548,-2.7239,-2.8315,-2.9441,-3.0557,-3.1509,-3.2603,-3.3722,0.0,0.0,0.0,0.0,0.0,0.0,0.0,0.0,0.0,0.0,0.0,0.0,0.0,0.0,0.0,0.0,0.0,0.0,0.0,0.0,-1.3141,-1.3181,-1.4138,-1.509,-1.5976,-1.5859,-1.5748,-1.5693,-1.5547,-1.5401,-1.5289,-1.5028,-1.4857,-1.4776,-1.4627,-1.4454,-1.4199,-1.4199,-1.4093,-1.3962,-1.3844,-1.3787,-1.3669,-1.2683,0.0,0.0,0.0,0.0,0.0,0.0,0.0,0.0,-1.2138,-1.2419,-1.2848,-1.3686,-1.4374,-1.5041,-1.5833,-1.6429,-1.6803,-1.676,-1.7438,-1.8227,-1.8639,-1.8963,-1.9121,-1.8885,-1.9056,-1.9184,-1.8913,-1.8799,-1.8566,-1.8066,-1.7983,-1.7877,-1.744,-1.7368,-1.7182,-1.6781,-1.6392,-1.5983,-1.5624,-1.5365,-1.5119,-1.4748,-1.4756,-1.4673,-1.4569,-1.4586,-1.4622,-1.4657,-1.4657,-1.465,-1.465,-1.5241,-1.5612,-1.5841,-1.6461,-1.7056,-1.7751,-1.9382,-2.0406,-2.1025,-2.2581,-2.3393,-2.3701,-2.4577,-2.5214,-2.5708,-2.6713,-2.7953,-2.9309,-3.0404,-3.1815,-3.329,0.0,0.0,0.0,0.0,0.0,0.0,0.0,0.0,0.0,0.0,0.0,0.0,0.0,0.0,0.0,0.0,0.0,0.0,0.0,0.0,-1.3163,-1.3124,-1.3988,-1.4947,-1.5976,-1.5814,-1.5659,-1.5536,-1.5413,-1.5278,-1.5131,-1.4983,-1.4811,-1.4627,-1.45,-1.435,-1.4199,-1.4104,-1.3962,-1.3844,-1.3821,-1.3739,-1.3541,-1.2628,-1.2307,0.0,0.0,0.0,0.0,0.0,0.0,0.0,-1.2059,-1.233,-1.277,-1.3881,-1.4421,-1.4906,-1.5998,-1.6339,0.0,-1.6896,-1.7614,-1.8193,-1.8243,-1.8219,-1.8237,-1.8321,-1.8189,-1.8171,-1.8438,-1.8291,-1.8015,-1.7794,-1.7552,-1.7193,-1.6642,-1.6333,-1.6036,-1.5616,-1.5227,-1.49,-1.4689,-1.4367,-1.4149,-1.4176,-1.383,-1.3807,-1.4095,-1.394,-1.3965,-1.4201,-1.4208,-1.4286,-1.4482,-1.4593,-1.4873,-1.5375,-1.5871,-1.63,-1.6764,-1.8053,-1.9297,-2.0418,-2.1151,-2.1861,-2.2582,-2.3318,-2.4161,-2.5072,-2.5939,-2.7022,-2.8247,-2.9249,-3.0613,-3.209,0.0,0.0,0.0,0.0,0.0,0.0,0.0,0.0,0.0,0.0,0.0,0.0,0.0,0.0,0.0,0.0,0.0,0.0,0.0,0.0,-1.3218,-1.3324,-1.4027,-1.4744,-1.5461,-1.555,-1.5547,-1.539,-1.5198,-1.5085,-1.5006,-1.4903,-1.4731,-1.45,-1.435,-1.4186,-1.3999,-1.3939,-1.3821,-1.3692,-1.3692,-1.3668,-1.3493,-1.2628,-1.2307,-1.2204,-1.1455,0.0,0.0,0.0,0.0,0.0,0.0,0.0,-1.262,-1.3917,-1.4368,-1.4731,-1.5957,0.0,0.0,-1.6974,0.0,-1.7795,-1.7958,-1.781,-1.7612,-1.7556,-1.7524,-1.7529,-1.7616,-1.7636,-1.7583,-1.7322,-1.7148,-1.6864,-1.6377,-1.6,-1.5655,-1.524,-1.4848,-1.4497,-1.4281,-1.3891,-1.3638,-1.3622,-1.3346,-1.3258,-1.3502,-1.3467,-1.3567,-1.3868,-1.3874,-1.3983,-1.4237,-1.4356,-1.4558,-1.4801,-1.5142,-1.5525,-1.5956,-1.7518,-1.8715,-1.9614,-2.0301,-2.0893,-2.1442,-2.2221,-2.2974,-2.3755,-2.4657,-2.5769,-2.7029,-2.8051,-2.9403,-3.0909,0.0,0.0,0.0,0.0,0.0,0.0,0.0,0.0,0.0,0.0,0.0,0.0,0.0,0.0,0.0,0.0,0.0,0.0,0.0,0.0,0.0,-1.3581,-1.398,-1.4377,-1.4743,-1.5052,-1.5191,-1.5128,-1.4914,-1.4801,-1.4846,-1.4788,-1.4627,-1.435,-1.4233,-1.4022,-1.3797,-1.3773,-1.3692,-1.3597,-1.3597,-1.3597,-1.3504,-1.2711,-1.24,-1.2307,-1.1571,-1.132,-1.1348,-1.1451,0.0,0.0,0.0,0.0,-1.2451,-1.3712,-1.4157,-1.4474,-1.5633,0.0,-1.622,-1.6942,-1.7217,-1.7413,-1.7768,-1.7562,-1.7194,-1.6874,-1.6982,-1.7061,-1.6807,-1.6974,-1.708,-1.6746,-1.668,-1.6526,-1.6147,-1.5835,-1.5492,-1.5149,-1.4744,-1.4389,-1.4129,-1.3702,-1.3346,-1.3156,-1.3019,-1.2951,-1.2968,-1.3025,-1.3187,-1.3479,-1.3445,-1.3584,-1.3924,-1.4079,-1.4183,-1.4272,-1.4524,-1.4859,-1.5333,-1.697,-1.8061,-1.8616,-1.9412,-1.9934,-2.0323,-2.1134,-2.179,-2.2354,-2.3298,-2.4503,-2.5791,-2.6893,-2.8221,-2.9774,0.0,0.0,0.0,0.0,0.0,0.0,0.0,0.0,0.0,0.0,0.0,0.0,0.0,0.0,0.0,0.0,0.0,0.0,-1.3124,0.0,0.0,-1.3581,-1.3497,-1.3688,-1.4208,-1.4085,-1.4176,-1.451,-1.4368,-1.4406,-1.4639,-1.4627,-1.4477,-1.4222,-1.408,-1.3939,-1.3787,-1.3692,-1.3621,-1.3597,-1.3597,-1.3597,-1.3535,-1.3008,-1.2812,-1.2742,-1.2056,-1.1808,-1.1783,-1.1559,-1.1634,0.0,0.0,0.0,-1.2326,-1.298,-1.3537,-1.4099,-1.473,0.0,-1.6362,0.0,-1.7116,-1.7455,-1.767,-1.7518,-1.7194,-1.6874,-1.6644,-1.6523,-1.6557,-1.6375,-1.6265,-1.6284,-1.5938,-1.5626,-1.5373,-1.5069,-1.4836,-1.4759,-1.4423,-1.4165,-1.4093,-1.3593,-1.3156,-1.2973,-1.2751,-1.2696,-1.2808,-1.2671,-1.2713,-1.2981,-1.2828,-1.2883,-1.3118,-1.3159,-1.3406,-1.3822,-1.423,-1.4566,-1.4824,-1.5482,-1.636,-1.736,-1.7843,-1.8467,-1.9234,-1.9908,-2.0722,-2.169,-2.2542,-2.3567,-2.4741,-2.569,-2.7028,-2.8572,0.0,0.0,0.0,0.0,0.0,0.0,0.0,0.0,0.0,0.0,0.0,0.0,0.0,0.0,0.0,-1.2993,-1.303,-1.2995,-1.2938,-1.2838,-1.2859,-1.298,-1.3182,-1.3324,-1.3376,-1.3576,-1.3857,-1.4178,-1.4047,-1.4194,-1.4604,-1.4454,-1.428,-1.408,-1.3939,-1.3821,-1.3692,-1.3621,-1.3563,-1.3491,-1.3491,-1.3491,-1.344,-1.3022,-1.2859,-1.2834,-1.2447,-1.2286,-1.2295,-1.2285,-1.2212,-1.2146,-1.2173,0.0,0.0,0.0,-1.3392,-1.4023,-1.482,-1.5601,-1.6184,0.0,-1.6669,-1.7138,-1.7171,-1.7098,-1.6987,-1.6846,-1.6449,-1.6119,-1.6165,-1.5968,-1.5817,-1.5854,-1.5574,-1.531,-1.5222,-1.4737,-1.4371,-1.4371,-1.3863,-1.3619,-1.3767,-1.3142,-1.2783,-1.2886,-1.2599,-1.2395,-1.2335,-1.2267,-1.2297,-1.2486,-1.242,-1.2509,-1.279,-1.2796,-1.3012,-1.3502,-1.3995,-1.4321,-1.4566,-1.5033,-1.5699,-1.6574,-1.7139,-1.7821,-1.8665,-1.9301,-2.0128,-2.1088,-2.2025,-2.2953,-2.39,-2.4957,-2.6136,-2.7383,0.0,0.0,0.0,0.0,0.0,0.0,0.0,0.0,0.0,0.0,0.0,0.0,0.0,0.0,0.0,0.0,-1.2896,-1.2873,-1.2803,-1.275,-1.2662,-1.2508,-1.2822,-1.2885,-1.2632,-1.296,-1.334,-1.3781,-1.3683,-1.3917,-1.45,-1.4257,-1.4069,-1.3949,-1.3844,-1.3716,-1.3597,-1.3563,-1.3491,-1.3396,-1.3362,-1.3372,-1.3389,-1.3208,-1.3114,-1.3051,-1.2941,-1.286,-1.2786,-1.2849,-1.2743,-1.2587,-1.2687,-1.2429,0.0,0.0,0.0,-1.3979,0.0,0.0,-1.5811,-1.5735,-1.6142,-1.6584,-1.6769,-1.6721,-1.6669,-1.6786,-1.6363,-1.5943,-1.5914,-1.5673,-1.5486,-1.5455,-1.5225,-1.4983,-1.492,-1.4453,-1.4056,-1.3983,-1.3519,-1.3281,-1.3389,-1.2888,-1.26,-1.276,-1.2522,-1.2268,-1.2003,-1.1966,-1.1958,-1.1999,-1.1967,-1.2061,-1.2305,-1.2454,-1.2713,-1.3046,-1.3627,-1.3968,-1.4122,-1.4747,-1.5298,-1.588,-1.6607,-1.7375,-1.8144,-1.8865,-1.9657,-2.0527,-2.1492,-2.2402,-2.3298,-2.4396,-2.5406,-2.6443,0.0,0.0,0.0,0.0,0.0,0.0,0.0,0.0,0.0,0.0,0.0,0.0,-1.1134,-1.1748,-1.232,-1.2847,-1.2896,-1.2873,-1.2803,-1.2615,-1.2508,-1.2508,-1.2281,0.0,-1.213,-1.1986,-1.231,-1.3153,-1.3133,-1.3499,-1.4222,-1.408,-1.3949,-1.3821,-1.3797,-1.3716,-1.3586,-1.3467,-1.342,-1.3396,-1.3266,-1.329,-1.346,-1.3869,-1.384,-1.3579,-1.37,-1.3533,-1.3234,-1.2915,-1.291,-1.3087,-1.3211,-1.2966,-1.2688,0.0,0.0,0.0,0.0,-1.5131,0.0,-1.5596,-1.5635,-1.5782,-1.6613,-1.6461,-1.6265,-1.6722,-1.641,-1.6066,-1.5914,-1.5527,-1.5185,-1.5038,-1.4742,-1.4423,-1.4102,-1.4082,-1.3992,-1.3667,-1.3598,-1.3457,-1.3137,-1.3041,-1.2833,-1.2459,-1.2508,-1.2415,-1.2003,-1.1818,-1.1639,-1.1434,-1.1241,-1.1306,-1.1546,-1.2043,-1.2338,-1.2357,-1.3039,-1.3333,-1.338,-1.4317,-1.4866,-1.5215,-1.6072,-1.6812,-1.7514,-1.8385,-1.9222,-2.002,-2.0886,-2.1835,-2.2841,-2.3863,-2.4838,-2.5816,0.0,0.0,0.0,0.0,0.0,0.0,0.0,0.0,0.0,0.0,0.0,0.0,0.0,-1.1661,-1.2,-1.2543,-1.2591,-1.2573,-1.2538,-1.2484,-1.2518,-1.2679,-1.2608,-1.2605,-1.2737,-1.268,-1.286,-1.3347,-1.3347,-1.3594,-1.408,-1.3939,-1.3844,-1.3797,-1.3716,-1.3644,-1.3586,-1.3467,-1.3338,-1.3296,-1.3451,-1.3546,-1.3646,-1.4205,-1.4404,-1.4399,-1.4612,-1.4672,-1.4598,-1.4247,-1.4053,-1.3905,-1.3695,-1.3369,-1.3198,-1.3712,-1.3971,-1.4247,-1.4924,-1.5028,0.0,-1.5106,-1.5245,-1.5424,-1.5653,-1.5916,-1.6148,-1.6328,-1.622,-1.6066,-1.5914,-1.5585,-1.5254,-1.5039,-1.4715,-1.4419,-1.4228,-1.3922,-1.3655,-1.3563,-1.3199,-1.2996,-1.3023,-1.2612,-1.24,-1.2467,-1.2207,-1.1919,-1.1631,-1.1524,-1.1331,-1.1149,-1.1138,-1.116,-1.1224,-1.1611,-1.1868,-1.2037,-1.2584,-1.2919,-1.3093,-1.4029,-1.4488,-1.4666,-1.5741,-1.6574,-1.7261,-1.7951,-1.8745,-1.9618,-2.0644,-2.152,-2.244,-2.3434,-2.4479,-2.5558,0.0,0.0,0.0,0.0,0.0,0.0,0.0,0.0,0.0,-1.0109,0.0,0.0,0.0,0.0,-1.2089,-1.2589,-1.2636,-1.2617,-1.2599,-1.2562,-1.2603,-1.2758,-1.285,-1.2939,-1.3026,-1.3016,-1.314,-1.343,-1.343,-1.3608,-1.3939,-1.3844,-1.3773,-1.3716,-1.3644,-1.3586,-1.3515,-1.3396,-1.3357,-1.3381,-1.3565,-1.3748,-1.3977,-1.459,-1.482,-1.485,-1.5226,-1.5384,-1.5376,-1.5132,-1.486,-1.4593,-1.4379,-1.3939,-1.3621,-1.4119,-1.4276,-1.4379,-1.4869,-1.4926,-1.4834,-1.4753,-1.4905,-1.5064,-1.5096,-1.5523,-1.5967,-1.6073,-1.62,-1.621,-1.599,-1.5778,-1.5507,-1.5117,-1.4872,-1.4666,-1.4407,-1.4061,-1.3743,-1.3541,-1.3155,-1.2894,-1.2877,-1.2549,-1.232,-1.2343,-1.2123,-1.1806,-1.1423,-1.1366,-1.1233,-1.1006,-1.0998,-1.1021,-1.1111,-1.1298,-1.151,-1.1745,-1.222,-1.2549,-1.2798,-1.3713,-1.4125,-1.4179,-1.5282,-1.624,-1.7017,-1.7708,-1.8505,-1.942,-2.0401,-2.129,-2.2101,-2.315,-2.4166,-2.5158,0.0,0.0,0.0,0.0,0.0,0.0,0.0,0.0,-1.0356,-1.0501,0.0,0.0,0.0,0.0,0.0,-1.3053,-1.31,-1.3081,-1.3016,-1.2889,-1.2792,-1.2717,-1.299,-1.3059,-1.2933,-1.286,-1.2979,-1.3306,-1.3306,-1.3472,-1.3787,-1.3787,-1.3716,-1.3586,-1.3586,-1.3515,-1.3386,-1.3266,-1.3391,-1.3694,-1.3576,-1.3831,-1.4396,-1.5072,-1.5134,-1.4926,-1.5522,-1.5641,-1.5477,-1.5446,-1.5315,-1.517,-1.5273,-1.4717,-1.4048,-1.4037,-1.4026,-1.4138,0.0,0.0,0.0,-1.4627,-1.4604,-1.4679,-1.5009,-1.5329,-1.5676,-1.6015,-1.6345,-1.6475,-1.6171,-1.6114,-1.5912,-1.5323,-1.5215,-1.5029,-1.4597,-1.4499,-1.4261,-1.3601,-1.3511,-1.3277,-1.2683,-1.2861,-1.2739,-1.2086,-1.2314,-1.2185,-1.143,-1.1375,-1.1266,-1.1024,-1.0827,-1.084,-1.1099,-1.1105,-1.1223,-1.1416,-1.1929,-1.2299,-1.2504,-1.3397,-1.3803,-1.3842,-1.4715,-1.5684,-1.6747,-1.7602,-1.8479,-1.9344,-2.0216,-2.1078,-2.1901,-2.2905,-2.379,-2.4695,0.0,0.0,0.0,0.0,0.0,0.0,-1.0032,-1.0151,-1.0376,0.0,0.0,0.0,-1.2208,-1.2695,-1.3037,-1.3153,-1.3164,-1.3164,-1.3155,-1.3103,-1.3168,-1.3334,-1.3412,-1.3542,-1.3684,-1.3672,-1.3667,-1.3655,-1.3655,-1.3671,-1.3668,-1.3668,-1.3586,-1.3467,-1.3467,-1.3358,-1.3186,-1.3204,-1.3391,-1.3714,-1.3864,-1.4219,-1.4771,-1.5836,-1.6193,-1.62,-1.6906,-1.7156,-1.7143,-1.6592,-1.6449,-1.6331,-1.5554,-1.5123,-1.4882,-1.4653,-1.4575,-1.462,-1.4766,0.0,0.0,0.0,0.0,0.0,-1.4571,-1.4855,-1.5182,-1.552,-1.5864,-1.6081,-1.611,-1.6114,-1.5999,-1.574,-1.5488,-1.5225,-1.4911,-1.4656,-1.444,-1.4261,-1.3911,-1.358,-1.3268,-1.3102,-1.2858,-1.2453,-1.2287,-1.2015,-1.1568,-1.1259,-1.1108,-1.1086,-1.112,-1.1188,-1.1227,-1.1458,-1.1558,-1.1632,-1.1901,-1.217,-1.237,-1.3158,-1.3686,-1.4006,-1.4773,-1.5529,-1.6257,-1.6918,-1.7679,-1.8497,-1.9331,-2.0356,-2.147,-2.2295,-2.3377,-2.4623,0.0,0.0,0.0,0.0,0.0,-1.0375,-1.0487,-1.0729,-1.1028,0.0,0.0,0.0,-1.2705,-1.3172,-1.3461,-1.3535,-1.3482,-1.345,-1.3398,-1.3323,-1.3336,-1.3475,-1.3657,-1.3802,-1.3915,-1.3915,-1.3844,-1.3716,-1.3716,-1.3644,-1.3515,-1.3515,-1.3443,-1.3314,-1.3314,-1.3238,-1.3099,-1.3128,-1.3437,-1.3867,-1.4033,-1.4609,-1.5429,-1.6208,-1.6638,-1.6931,-1.741,-1.775,-1.7861,-1.7514,-1.7281,-1.6949,-1.584,-1.5521,-1.5466,-1.5277,-1.5224,-1.5224,-1.5224,-1.5165,-1.5092,-1.5092,0.0,0.0,-1.4679,-1.4849,-1.5034,-1.5174,-1.5658,-1.6048,-1.6022,-1.6162,-1.6239,-1.6019,-1.5826,-1.5565,-1.5225,-1.501,-1.4795,-1.4617,-1.43,-1.4001,-1.3722,-1.3498,-1.3164,-1.2805,-1.259,-1.2274,-1.184,-1.1323,-1.1106,-1.1263,-1.1136,-1.1163,-1.1394,-1.1488,-1.1629,-1.1818,-1.1929,-1.215,-1.2459,-1.297,-1.3397,-1.3829,-1.4494,-1.5103,-1.5596,-1.6292,-1.7174,-1.8193,-1.8985,-1.9955,-2.0943,-2.1618,-2.2684,-2.3851,0.0,0.0,0.0,-1.0687,-1.095,-1.1174,-1.124,-1.168,-1.2007,0.0,-1.2518,-1.2957,-1.3246,-1.3685,-1.4016,-1.4139,-1.4049,-1.3938,-1.3826,-1.3647,-1.348,-1.3359,-1.3774,-1.3926,-1.3763,-1.3763,-1.3692,-1.3563,-1.3563,-1.3491,-1.3386,-1.3386,-1.3314,-1.3194,0.0,0.0,-1.3085,-1.3135,-1.3509,-1.4104,-1.4104,-1.4912,-1.6125,-1.6305,-1.6756,-1.7312,-1.7572,-1.7802,-1.8061,-1.8224,-1.7865,-1.7191,-1.6258,-1.5931,-1.5876,-1.5822,-1.5811,-1.5811,-1.5811,-1.5811,-1.5811,-1.5811,-1.5484,0.0,-1.5192,-1.5192,-1.5132,-1.5009,-1.5638,-1.617,-1.5964,-1.6262,-1.6451,-1.6189,-1.6171,-1.5999,-1.5536,-1.5439,-1.5264,-1.4834,-1.4647,-1.4449,-1.41,-1.398,-1.3679,-1.3164,-1.305,-1.2767,-1.2212,-1.156,-1.1312,-1.1556,-1.1067,-1.1034,-1.151,-1.1475,-1.1631,-1.2031,-1.2063,-1.2305,-1.2673,-1.2863,-1.3193,-1.3601,-1.4173,-1.4649,-1.5043,-1.5788,-1.6848,-1.8064,-1.8841,-1.9639,-2.0419,-2.1008,-2.1851,-2.2775,-1.0303,0.0,0.0,-1.0592,-1.112,-1.1527,-1.1596,-1.2087,-1.2456,-1.2477,-1.3223,-1.3916,-1.4347,-1.4807,-1.5096,-1.5121,-1.5096,-1.491,-1.4526,-1.447,-1.4227,-1.3718,-1.3792,-1.3716,-1.3491,-1.3491,-1.3409,-1.329,-1.329,-1.3266,-1.3242,-1.3242,-1.3214,-1.3123,-1.3123,-1.3051,-1.2949,-1.3292,-1.3672,-1.4104,-1.4104,-1.4912,-1.6164,-1.6672,-1.7236,-1.7817,-1.8354,-1.8674,-1.8842,-1.8797,-1.8259,-1.7554,-1.7141,-1.671,-1.6291,-1.592,-1.5811,-1.5811,-1.5811,-1.5811,-1.5811,-1.5811,-1.5735,0.0,-1.5669,-1.5669,-1.5644,-1.5506,-1.562,-1.579,-1.6014,-1.6125,-1.625,-1.6461,-1.6485,-1.6353,-1.5875,-1.5701,-1.5546,-1.5294,-1.5167,-1.4941,-1.4597,-1.4538,-1.433,-1.383,-1.3285,-1.295,-1.2836,-1.2243,-1.1933,-1.1969,-1.1671,-1.1563,-1.1649,-1.2006,-1.2211,-1.2344,-1.2592,-1.2863,-1.3083,-1.3309,-1.3601,-1.3985,-1.4389,-1.4856,-1.5434,-1.5885,-1.6501,-1.7208,-1.7941,-1.8953,-1.9997,-2.0548,-2.1472,-2.2571,-1.0303,-1.0548,-1.0775,-1.0835,-1.1348,-1.1756,-1.1788,-1.2252,-1.2595,-1.2595,-1.339,-1.4134,-1.464,-1.4899,-1.5086,-1.5128,-1.5086,-1.494,-1.4727,-1.464,-1.4476,-1.4164,-1.4164,-1.4078,-1.3952,-1.3952,-1.3816,-1.3545,-1.3545,-1.341,-1.3152,-1.3152,-1.3113,-1.3002,-1.3002,-1.3072,-1.3203,-1.3418,-1.3877,-1.4463,-1.4463,-1.5234,-1.6426,-1.6735,-1.7377,-1.8161,-1.8526,-1.8875,-1.9135,-1.887,-1.8625,-1.838,-1.7983,-1.7564,-1.7213,-1.6956,-1.6716,-1.6557,-1.6557,-1.6557,-1.6557,-1.6557,-1.6334,0.0,0.0,-1.5974,-1.5785,-1.5697,-1.5697,-1.5797,-1.6127,-1.6197,-1.6319,-1.6648,-1.6694,-1.6609,-1.6392,-1.6095,-1.5836,-1.5662,-1.5527,-1.5352,-1.5089,-1.4981,-1.4784,-1.4389,-1.3821,-1.3498,-1.3498,-1.2889,-1.2552,-1.2552,-1.2124,-1.1963,-1.2093,-1.2083,-1.2233,-1.2544,-1.2628,-1.2898,-1.3346,-1.3455,-1.3811,-1.4346,-1.4641,-1.5078,-1.5691,-1.6167,-1.6612,-1.7107,-1.7769,-1.8578,-1.9484,-1.9922,-2.0775,-2.1751,-1.042,-1.0764,-1.1082,-1.1202,-1.1652,-1.1995,-1.2027,-1.2408,-1.2719,-1.2809,-1.3581,-1.4345,-1.4868,-1.4999,-1.5124,-1.5331,-1.5243,-1.5141,-1.505,-1.4878,-1.4743,-1.4627,-1.4547,-1.4496,-1.447,-1.447,-1.429,-1.3951,-1.3871,-1.3591,-1.3179,-1.31,-1.3052,-1.3023,-1.3023,-1.3232,-1.3633,-1.3721,-1.415,-1.4795,-1.4989,-1.5713,-1.6716,-1.6794,-1.7432,-1.8303,-1.8516,-1.8841,-1.9222,-1.8846,-1.8924,-1.9081,-1.8683,-1.8362,-1.813,-1.813,-1.7791,-1.7448,-1.7448,-1.7383,-1.7306,-1.7306,-1.6961,-1.6667,0.0,0.0,0.0,-1.5964,-1.5942,-1.6036,-1.6283,-1.6332,-1.6455,-1.6789,-1.6835,-1.6835,-1.6818,-1.6467,-1.6181,-1.6029,-1.5914,-1.5759,-1.5507,-1.5371,-1.5176,-1.4922,-1.4449,-1.4189,-1.4189,-1.3558,-1.3194,-1.3194,-1.2582,-1.2344,-1.255,-1.2129,-1.2159,-1.2673,-1.2628,-1.2927,-1.3512,-1.3608,-1.4,-1.4605,-1.4856,-1.5292,-1.5903,-1.6403,-1.6846,-1.7314,-1.7872,-1.8472,-1.9142,-1.9506,-2.0194,-2.0955,-1.084,-1.0879,-1.1077,-1.1543,-1.2024,-1.239,-1.2511,-1.2765,-1.31,-1.3521,-1.444,-1.5242,-1.5713,-1.6076,-1.6467,-1.689,-1.693,-1.6728,-1.6337,-1.5945,-1.5564,-1.5134,-1.4733,-1.4443,-1.4327,-1.4327,-1.4254,-1.4089,-1.3717,-1.3512,-1.3453,-1.3081,-1.3101,-1.3437,-1.3437,-1.3672,-1.4065,-1.4473,-1.4697,-1.4882,-1.5635,-1.624,-1.6746,-1.7168,-1.773,-1.8337,-1.864,-1.8908,-1.9131,-1.9212,-1.9092,-1.8956,-1.9061,-1.8892,-1.8611,-1.8611,-1.8283,-1.7923,-1.7923,-1.7606,-1.7306,-1.7306,-1.7262,-1.7219,-1.7219,0.0,-1.6983,-1.6535,0.0,-1.6432,-1.646,0.0,0.0,-1.6935,-1.6983,-1.6937,-1.6807,-1.6761,-1.662,-1.6374,-1.6316,-1.6202,-1.5875,-1.5711,-1.5614,-1.5585,-1.5147,-1.4882,-1.4882,-1.4249,-1.389,-1.389,-1.3255,-1.2852,-1.277,-1.2703,-1.2632,-1.2545,-1.3108,-1.3417,-1.3532,-1.4042,-1.4425,-1.4605,-1.4991,-1.5524,-1.6096,-1.6438,-1.6934,-1.7539,-1.8076,-1.8607,-1.9164,-1.9671,-2.0291,-2.0987,-1.0833,-1.119,-1.1573,-1.1734,-1.2142,-1.2546,-1.2856,-1.3188,-1.3647,-1.4311,-1.4762,-1.5274,-1.6001,-1.6234,-1.6439,-1.6699,-1.6741,-1.6703,-1.663,-1.6443,-1.6296,-1.6078,-1.5891,-1.5763,-1.5704,-1.5449,-1.5184,-1.4845,-1.4453,-1.4121,-1.3841,-1.3691,-1.3701,-1.3851,-1.3851,-1.4085,-1.4521,-1.4707,-1.5097,-1.5606,-1.6201,-1.6709,-1.7129,-1.7314,-1.7803,-1.8438,-1.8583,-1.8841,-1.9108,-1.9175,-1.9149,-1.9155,-1.9361,-1.9232,-1.9,-1.9082,-1.8774,-1.8348,-1.8075,-1.7857,-1.7639,-1.7383,-1.7306,-1.7306,-1.7306,-1.7306,-1.724,-1.7005,0.0,0.0,0.0,0.0,0.0,0.0,-1.7172,-1.7145,-1.7099,-1.7071,-1.6987,-1.6676,-1.663,-1.6516,-1.6202,-1.5776,-1.5483,-1.5409,-1.489,-1.4655,-1.483,-1.4419,-1.4211,-1.4291,-1.383,-1.3467,-1.3216,-1.2943,-1.2814,-1.2787,-1.3117,-1.3412,-1.3708,-1.4269,-1.4669,-1.4955,-1.5355,-1.5815,-1.6237,-1.6751,-1.7201,-1.7691,-1.8202,-1.8707,-1.9164,-1.9704,-2.0313,-2.0987,-1.1027,-1.1487,-1.1963,-1.1983,-1.2366,-1.2783,-1.3148,-1.3666,-1.4223,-1.4778,-1.51,-1.5593,-1.6443,-1.6529,-1.6646,-1.7006,-1.7025,-1.7092,-1.7243,-1.7193,-1.7125,-1.7125,-1.6977,-1.6882,-1.6882,-1.6475,-1.6035,-1.5586,-1.5166,-1.4736,-1.428,-1.4163,-1.4172,-1.428,-1.428,-1.4551,-1.4961,-1.5116,-1.5527,-1.6144,-1.668,-1.7168,-1.7549,-1.7549,-1.7945,-1.8448,-1.8482,-1.8707,-1.9042,-1.9065,-1.9175,-1.9351,-1.9539,-1.9511,-1.9414,-1.9563,-1.9277,-1.8818,-1.849,-1.8206,-1.7923,-1.7573,-1.7405,-1.7306,-1.7306,-1.7306,-1.7306,-1.7306,-1.6983,0.0,0.0,0.0,-1.6852,-1.724,0.0,-1.7351,-1.7351,-1.739,-1.7267,-1.6892,-1.6807,-1.668,-1.6339,-1.5894,-1.5499,-1.527,-1.4784,-1.4613,-1.4931,-1.4608,-1.4516,-1.4756,-1.4359,-1.4001,-1.3692,-1.3224,-1.3019,-1.3091,-1.3222,-1.3492,-1.3905,-1.4434,-1.4892,-1.5311,-1.5655,-1.6008,-1.6403,-1.6959,-1.7442,-1.7852,-1.8371,-1.8808,-1.9208,-1.9769,-2.0377,-2.1094,-1.1598,-1.1687,-1.1955,-1.241,-1.2818,-1.3157,-1.3456,-1.4279,-1.4835,-1.4706,-1.5548,-1.6472,-1.7285,-1.737,-1.771,-1.8532,-1.8644,-1.8644,-1.8654,-1.84,-1.8232,-1.8232,-1.7702,-1.7396,-1.7396,-1.6934,-1.6494,-1.6075,-1.5605,-1.5176,-1.4784,-1.4299,-1.4328,-1.4793,-1.4793,-1.5,-1.542,-1.588,-1.6065,-1.6163,-1.7044,-1.7617,-1.7988,-1.7988,-1.8124,-1.8303,-1.8448,-1.864,-1.8841,-1.9031,-1.9175,-1.9351,-1.9539,-1.9726,-1.9911,-2.002,-1.9747,-1.9355,-1.9344,-1.8709,-1.7999,-1.7988,-1.7628,-1.7306,-1.7306,-1.7306,-1.7306,-1.7306,-1.7295,-1.7284,-1.7306,-1.7295,-1.7284,-1.7306,-1.7396,0.0,0.0,-1.7617,-1.7507,-1.7039,-1.6881,-1.6637,-1.6142,-1.6089,-1.5898,-1.5447,-1.5149,-1.5141,-1.5557,-1.5016,-1.4904,-1.5371,-1.4795,-1.4389,-1.4189,-1.3722,-1.342,-1.3294,-1.3607,-1.3891,-1.4098,-1.4646,-1.5114,-1.5505,-1.5726,-1.6105,-1.6603,-1.7028,-1.752,-1.8042,-1.8573,-1.9008,-1.9374,-1.9911,-2.056,-2.1296,-1.2122,-1.2092,-1.2137,-1.2375,-1.246,-1.2806,-1.3717,-1.4342,-1.4867,-1.5308,-1.5882,-1.6535,-1.7177,-1.7496,-1.788,-1.8461,-1.8489,-1.8573,-1.8693,-1.8624,-1.8611,-1.8757,-1.8559,-1.8375,-1.8188,-1.7793,-1.7363,-1.6966,-1.6232,-1.5801,-1.5654,-1.5186,-1.5059,-1.5205,-1.5205,-1.5439,-1.588,-1.6026,-1.6427,-1.7024,-1.7568,-1.7881,-1.8008,-1.8008,-1.811,-1.8303,-1.8448,-1.864,-1.8841,-1.9042,-1.9131,-1.9208,-1.9506,-1.9638,-1.9736,-2.0009,-1.9998,-1.9802,-1.9475,-1.9179,-1.8796,-1.8163,-1.7879,-1.7671,-1.7383,-1.7306,-1.7306,-1.7306,-1.7306,-1.7306,-1.7306,-1.7379,-1.7423,-1.7423,-1.7534,-1.7617,0.0,-1.7673,-1.7645,-1.7479,-1.7066,-1.652,-1.5848,-1.5489,-1.5192,-1.4952,-1.457,-1.4468,-1.4738,-1.4838,-1.4897,-1.4942,-1.5032,-1.4854,-1.4389,-1.4121,-1.3791,-1.3428,-1.3937,-1.4156,-1.4115,-1.4917,-1.5434,-1.5726,-1.6,-1.6377,-1.683,-1.722,-1.7701,-1.8236,-1.864,-1.9175,-1.9736,-2.0161,-2.0679,-2.138,-1.252,-1.244,-1.2387,-1.252,-1.2698,-1.3157,-1.4059,-1.4675,-1.521,-1.5829,-1.6263,-1.6786,-1.7439,-1.7837,-1.8196,-1.856,-1.8683,-1.8768,-1.8891,-1.8976,-1.908,-1.9193,-1.9191,-1.9128,-1.8957,-1.8455,-1.8027,-1.7607,-1.6917,-1.6398,0.0,0.0,0.0,-1.541,-1.541,-1.5654,-1.6105,-1.6261,-1.6719,-1.7455,-1.7842,-1.8008,-1.8008,-1.8008,-1.8076,-1.8212,-1.8414,-1.8573,-1.8741,-1.9008,-1.9108,-1.9164,-1.9506,-1.9605,-1.9681,-2.0009,-2.0118,-2.0042,-1.9725,-1.9518,-1.9235,-1.8654,-1.8381,-1.8163,-1.7886,-1.7809,-1.7766,-1.7647,-1.7614,-1.7588,-1.7467,-1.7507,-1.7562,-1.7562,-1.7673,-1.7783,0.0,-1.7838,-1.7754,-1.7558,-1.7109,-1.6561,-1.5895,-1.5364,-1.4942,-1.4682,-1.4309,-1.4212,-1.4507,-1.4826,-1.5008,-1.5024,-1.5272,-1.5206,-1.4824,-1.4478,-1.4222,-1.4061,-1.4423,-1.4628,-1.4739,-1.5393,-1.5823,-1.6008,-1.6351,-1.6691,-1.7038,-1.7495,-1.7974,-1.8506,-1.8841,-1.9363,-2.002,-2.0356,-2.0999,-2.1894,-1.2856,-1.2753,-1.2724,-1.2863,-1.3537,-1.4174,-1.4581,-1.523,-1.5839,-1.6245,-1.6651,-1.7218,-1.8009,-1.8279,-1.8566,-1.8993,-1.9219,-1.9338,-1.9356,-1.9534,-1.9662,-1.9662,-1.9649,-1.964,-1.9621,-1.8986,-1.8451,-1.8037,-1.7627,-1.6995,0.0,0.0,0.0,0.0,-1.541,-1.5664,-1.6153,-1.6553,-1.697,-1.7451,-1.7852,-1.8008,-1.8008,-1.8008,-1.8008,-1.8076,-1.8381,-1.8516,-1.8583,-1.8975,-1.9108,-1.9164,-1.9506,-1.9605,-1.9681,-2.0009,-2.0118,-2.0118,-2.0118,-1.978,-1.942,-1.943,-1.9069,-1.872,-1.8698,-1.8717,-1.8616,-1.8313,-1.8242,-1.8156,-1.7807,-1.7745,-1.7734,-1.7711,-1.7826,-1.7963,-1.8084,-1.8084,-1.7885,-1.7311,-1.7051,-1.6711,-1.6207,-1.5661,-1.5112,-1.4648,-1.4373,-1.4404,-1.4858,-1.4959,-1.5194,-1.5564,-1.549,-1.5439,-1.541,-1.4824,-1.474,-1.5102,-1.4985,-1.5244,-1.5808,-1.6026,-1.6202,-1.6342,-1.6726,-1.7038,-1.727,-1.7803,-1.8313,-1.8841,-1.9206,-1.9713,-2.027,-2.0583,-2.1517,-2.2825,-1.3342,-1.3843,-1.4156,-1.4227,-1.4383,-1.4642,-1.4972,-1.548,-1.5885,-1.6247,-1.6914,-1.7483,-1.7847,-1.8333,-1.886,-1.9399,-1.9638,-1.9847,-2.0182,-2.0251,-2.0334,-2.049,-2.0391,-2.0261,-2.0052,-1.9713,-1.9192,-1.8442,-1.8057,-1.7402,-1.6553,0.0,0.0,0.0,-1.541,-1.584,-1.6541,-1.6648,-1.7126,-1.7852,-1.7969,-1.8008,-1.8008,-1.8008,-1.8076,-1.8245,-1.8414,-1.8617,-1.8741,-1.9008,-1.9108,-1.9164,-1.9506,-1.9605,-1.9681,-2.0009,-2.0118,-2.0118,-2.0118,-2.002,-1.9845,-1.9475,-1.9321,-1.9135,-1.8774,-1.8808,-1.8895,-1.8803,-1.887,-1.8813,-1.8367,-1.8374,-1.8306,-1.7922,-1.7963,-1.8057,-1.8084,-1.8084,-1.8038,-1.7885,-1.7531,-1.6846,-1.5787,-1.5536,-1.5244,-1.4787,-1.4604,-1.4508,-1.4535,-1.5107,-1.5363,-1.5163,-1.581,-1.5894,-1.541,-1.5235,-1.516,-1.5102,-1.5369,-1.5605,-1.5808,-1.6095,-1.6412,-1.676,-1.6874,-1.7245,-1.7803,-1.794,-1.8405,-1.9106,-1.982,-2.0973,-2.2237,-2.2076,-2.2536,-2.3473,-1.4063,-1.4641,-1.5061,-1.5172,-1.5368,-1.5512,-1.5454,-1.5934,-1.6422,-1.6781,-1.7201,-1.7613,-1.7864,-1.832,-1.8802,-1.9429,-1.9629,-1.9966,-2.0451,-2.0521,-2.0563,-2.068,-2.063,-2.0543,-2.0375,-2.0081,-1.9553,-1.8926,-1.8461,-1.772,-1.6697,0.0,0.0,0.0,-1.541,-1.5878,-1.6726,-1.7096,-1.7535,-1.8008,-1.8008,-1.8008,0.0,-1.8008,-1.8178,-1.8414,-1.8482,-1.864,-1.8841,-1.9042,-1.9108,-1.9164,-1.9506,-1.9605,-1.9681,-2.0009,-2.0118,-2.0118,-2.0118,-2.0118,-2.0053,-1.9769,-1.9704,-1.9627,-1.9355,-1.9487,-1.9576,-1.9427,-1.9515,-1.952,-1.9111,-1.8885,-1.8623,-1.8071,-1.8057,-1.8084,-1.8084,-1.8084,-1.8139,-1.8232,-1.8005,-1.7482,-1.66,-1.596,-1.5387,-1.4891,-1.4742,-1.465,-1.4581,-1.5277,-1.5569,-1.5362,-1.6081,-1.6278,-1.5836,-1.5899,-1.5888,-1.5807,-1.6149,-1.6397,-1.6535,-1.6729,-1.6943,-1.7185,-1.7323,-1.7632,-1.8042,-1.8347,-1.8954,-1.9777,-2.0936,-2.2071,-2.3147,-2.3487,-2.3831,-2.4254,-1.4847,-1.529,-1.5648,-1.5835,-1.6339,-1.6501,-1.605,-1.6539,-1.7107,-1.7462,-1.7548,-1.7672,-1.7957,-1.8241,-1.8658,-1.9303,-1.9537,-1.9974,-2.0607,-2.0677,-2.0677,-2.0677,-2.066,-2.0661,-2.0661,-2.0217,-1.9766,-1.9287,-1.887,-1.8032,-1.6785,0.0,0.0,0.0,-1.5498,-1.5986,-1.6833,-1.7676,-1.8008,-1.8008,-1.8008,-1.8008,-1.8008,-1.8008,-1.8212,-1.8516,-1.8516,-1.865,-1.8875,-1.9042,-1.9108,-1.9164,-1.9506,-1.9605,-1.9681,-2.0009,-2.0118,-2.0118,-2.0118,-2.0118,-2.0118,-2.0118,-2.0118,-2.0118,-2.0118,-2.0281,-2.0353,-2.0089,-2.0186,-2.0224,-1.9854,-1.9298,-1.8747,-1.8283,-1.8157,-1.8111,-1.815,-1.8139,-1.822,-1.8394,-1.8422,0.0,-1.7843,-1.6631,-1.5644,-1.5097,-1.4914,-1.4822,-1.4822,-1.546,-1.5836,-1.5811,-1.6373,-1.662,-1.6431,-1.6573,-1.6687,-1.677,-1.7028,-1.7321,-1.7573,-1.7573,-1.7573,-1.7632,-1.7906,-1.8076,-1.8212,-1.8903,-1.9807,-2.0874,-2.2298,-2.3118,-2.3631,-2.482,-2.5166,-2.5254,-1.5692,-1.598,-1.6167,-1.6204,-1.6715,-1.7066,-1.6978,-1.7218,-1.7437,-1.7497,-1.774,-1.7923,-1.7991,-1.8241,-1.8763,-1.9718,-1.9958,-2.0485,-2.1431,-2.1476,-2.1476,-2.1476,-2.125,-2.1106,-2.1106,-2.071,-2.0106,-1.9287,-1.9209,-1.8525,-1.7256,-1.6863,-1.6455,-1.5977,-1.5977,-1.6467,-1.7305,-1.7793,-1.8008,-1.8008,-1.8008,-1.8008,-1.8008,-1.8008,-1.8212,-1.8516,-1.8516,-1.8741,-1.9031,-1.9108,-1.9108,-1.9164,-1.9506,-1.9605,-1.9681,-2.0009,-2.0118,-2.0118,-2.0118,-2.0118,-2.0118,-2.0118,-2.0118,-2.0151,-2.0313,-2.0508,-2.0667,-2.0694,-2.0873,-2.0882,-2.0377,-1.9516,-1.8862,-1.8782,-1.8387,-1.8166,-1.8313,-1.834,-1.8394,-1.8545,-1.856,-1.836,-1.7843,-1.7168,-1.6522,-1.5927,-1.5372,-1.4994,-1.4892,-1.5684,-1.603,-1.5811,-1.6683,-1.6987,-1.6581,-1.6808,-1.7002,-1.7116,-1.7375,-1.7644,-1.7906,-1.7906,-1.8008,-1.8168,-1.8202,-1.8506,-1.8962,-1.9445,-2.0783,-2.2525,-2.3305,-2.4143,-2.5012,-2.5736,-2.626,-2.6724,-1.6092,-1.6305,-1.6436,-1.6544,-1.6967,-1.7336,-1.7447,-1.7647,-1.7766,-1.7766,-1.788,-1.8,-1.8,-1.8121,-1.8589,-1.949,-1.9856,-2.0436,-2.133,-2.1568,-2.1696,-2.1696,-2.1562,-2.1395,-2.1188,-2.1009,-2.0478,-1.9609,-1.9394,-1.874,-1.7695,-1.7275,-1.6836,-1.6416,-1.6682,-1.7024,-1.7445,-1.7832,-1.8008,-1.8008,-1.8008,-1.8008,-1.8008,-1.811,-1.8313,-1.8516,-1.8617,-1.8841,-1.9108,-1.9108,-1.9142,-1.9241,-1.9506,-1.9671,-1.9802,-2.0042,-2.0118,-2.0118,-2.0118,-2.0118,-2.0118,-2.0118,-2.0118,-2.014,-2.0346,-2.0572,-2.0733,-2.0871,-2.1063,-2.104,-2.0504,-2.001,-1.9597,-1.9344,-1.916,-1.898,-1.8781,-1.8857,-1.8862,-1.8714,-1.8706,-1.8626,-1.8455,-1.793,-1.7226,-1.6279,-1.566,-1.5244,-1.5108,-1.5927,-1.6322,-1.612,-1.7035,-1.7323,-1.6987,-1.7568,-1.7746,-1.746,-1.809,-1.8328,-1.8245,-1.8245,-1.8313,-1.8414,-1.8607,-1.8875,-1.9193,-2.0394,-2.18,-2.3278,-2.4096,-2.492,-2.5676,-2.6233,-2.6816,-2.7323,-1.6464,-1.6497,-1.6605,-1.6748,-1.7113,-1.7473,-1.7619,-1.7829,-1.8,-1.8,-1.8,-1.8,-1.8,-1.8,-1.8357,-1.9232,-1.9585,-2.0171,-2.1028,-2.142,-2.1595,-2.1687,-2.1696,-2.1551,-2.1188,-2.1171,-2.0722,-1.9912,-1.958,-1.8984,-1.8135,-1.7715,-1.7285,-1.6853,-1.7227,-1.748,-1.7676,-1.8008,-1.8193,-1.8271,-1.8184,-1.8144,-1.8135,-1.8275,-1.8371,-1.8516,-1.8741,-1.8942,-1.9108,-1.9108,-1.9175,-1.9351,-1.9539,-1.9736,-1.9944,-2.0042,-2.0118,-2.0118,-2.0118,-2.0118,-2.0118,-2.0118,-2.0118,-2.0151,-2.041,-2.0572,-2.0765,-2.0935,-2.1094,-2.1075,-2.0641,-2.0481,-2.0285,-1.9907,-1.9894,-1.9762,-1.9355,-1.9385,-1.9329,-1.9039,-1.8911,-1.8866,-1.8987,-1.8506,-1.7794,-1.6788,-1.6196,-1.5751,-1.5532,-1.6366,-1.6773,-1.6621,-1.7375,-1.7701,-1.7572,-1.8331,-1.8498,-1.8072,-1.8855,-1.9042,-1.8741,-1.8741,-1.8741,-1.8751,-1.9075,-1.9379,-1.9754,-2.1414,-2.274,-2.3827,-2.472,-2.5453,-2.6072,-2.6577,-2.7087,-2.759,-1.7041,-1.6822,-1.6683,-1.6723,-1.7082,-1.74,-1.7432,-1.7757,-1.8,-1.8,-1.8,-1.8,-1.8,-1.8,-1.8357,-1.9232,-1.9336,-1.9841,-2.101,-2.1145,-2.1337,-2.1678,-2.1521,-2.1381,-2.1188,-2.1017,-2.0574,-1.9912,-1.9873,-1.9414,-1.8539,-1.8144,-1.7725,-1.7324,-1.7363,-1.7803,-1.849,-1.8529,-1.8809,-1.9131,-1.8705,-1.8539,-1.8535,-1.835,-1.8371,-1.8516,-1.8741,-1.8942,-1.9108,-1.9108,-1.9175,-1.9351,-1.9539,-1.9736,-1.9944,-2.0042,-2.0118,-2.0118,-2.0118,-2.0118,-2.0118,-2.0118,-2.0118,-2.0216,-2.0572,-2.0701,-2.0797,-2.1106,-2.119,-2.1178,-2.1132,-2.0722,-2.04,-2.0354,-2.0084,-1.9907,-1.9995,-1.9767,-1.9614,-1.9693,-1.9287,-1.8987,-1.8987,-1.8506,-1.8144,-1.8036,-1.7397,-1.6788,-1.6233,-1.7148,-1.7559,-1.7301,-1.7798,-1.8175,-1.8401,-1.8614,-1.8886,-1.9228,-1.9458,-1.9539,-1.9517,-1.9517,-1.9517,-1.9506,-1.9539,-2.0229,-2.1426,-2.2263,-2.3398,-2.4648,-2.5099,-2.5721,-2.638,-2.6837,-2.731,-2.7842,-1.752,-1.7435,-1.7294,-1.7096,-1.739,-1.7648,-1.7425,-1.7757,-1.8,-1.8,-1.8,-1.8,-1.8,-1.8,-1.8262,-1.8873,-1.9176,-1.9707,-2.068,-2.097,-2.1291,-2.1668,-2.1762,-2.1745,-2.1556,-2.1349,-2.1086,-2.0664,-2.0176,-1.9699,-1.9358,-1.8975,-1.8682,-1.8525,-1.8525,-1.8711,-1.9023,-1.9023,-1.9131,-1.9268,-1.9102,-1.8831,-1.8623,-1.877,-1.8713,-1.8549,-1.8875,-1.9042,-1.9098,-1.9208,-1.9341,-1.9473,-1.9572,-1.978,-2.0042,-2.0074,-2.0118,-2.0118,-2.0118,-2.0118,-2.0118,-2.0118,-2.0118,-2.0216,-2.0604,-2.0701,-2.0797,-2.1138,-2.119,-2.119,-2.119,-2.1029,-2.0922,-2.1004,-2.0977,-2.0897,-2.073,-2.0396,-2.0113,-1.9844,-1.9338,-1.8987,-1.8987,-1.8806,-1.8542,-1.8229,-1.7651,-1.7194,-1.6871,-1.7534,-1.7822,-1.7641,-1.8062,-1.8419,-1.8754,-1.898,-1.9202,-1.9387,-1.9727,-1.9791,-1.9605,-1.9605,-1.9704,-1.9889,-1.9889,-2.0797,-2.2263,-2.2582,-2.3641,-2.5087,-2.5488,-2.6025,-2.6645,-2.7108,-2.7812,-2.8585,-1.7814,-1.7814,-1.7743,-1.7504,-1.7805,-1.8011,-1.7747,-1.8086,-1.8333,-1.8333,-1.8333,-1.8247,-1.8025,-1.8,-1.8161,-1.8571,-1.8949,-1.9424,-2.0185,-2.0671,-2.1117,-2.1485,-2.181,-2.1901,-2.1706,-2.1627,-2.1416,-2.112,-2.0528,-2.0166,-1.9902,-1.9482,-1.9287,-1.9287,-1.9287,-1.9355,-1.9473,-1.9473,-1.9551,-1.9648,-1.9521,-1.9209,-1.8818,-1.9088,-1.8907,-1.8549,-1.8975,-1.9108,-1.9108,-1.9241,-1.944,-1.9605,-1.9671,-1.9878,-2.0118,-2.0118,-2.0118,-2.0118,-2.0118,-2.0118,-2.0118,-2.0118,-2.0151,-2.0281,-2.0637,-2.0733,-2.085,-2.1138,-2.119,-2.119,-2.119,-2.119,-2.1253,-2.1388,-2.158,-2.16,-2.1376,-2.1033,-2.0651,-2.0081,-1.9607,-1.9221,-1.9064,-1.9093,-1.8974,-1.8586,-1.8198,-1.7833,-1.7517,-1.8005,-1.831,-1.8322,-1.8619,-1.8969,-1.942,-1.96,-1.9749,-1.9848,-2.0158,-2.015,-1.99,-1.99,-2.0064,-2.028,-2.0366,-2.1294,-2.2719,-2.2911,-2.3963,-2.5418,-2.5886,-2.6349,-2.6888,-2.7585,-2.835,-2.9107,-1.7814,-1.7814,-1.7814,-1.7806,-1.8205,-1.8508,-1.85,-1.8896,-1.9204,-1.9204,-1.9204,-1.887,-1.8085,-1.8,-1.8121,-1.8402,-1.858,-1.8941,-1.9561,-2.0176,-2.0704,-2.1099,-2.1511,-2.1592,-2.1404,-2.1654,-2.1503,-2.0888,-2.111,-2.0732,-1.9902,-1.9482,-1.9287,-1.9287,-1.9287,-1.9512,-1.9902,-1.9902,-2.0156,-2.0546,-2.0078,-1.9648,-1.9275,-1.9208,-1.8907,-1.8549,-1.8975,-1.9108,-1.9108,-1.9241,-1.944,-1.9638,-1.9835,-1.9976,-2.0118,-2.0118,-2.0118,-2.0118,-2.0118,-2.0118,-2.0118,-2.0118,-2.0248,-2.0443,-2.0637,-2.0786,-2.0967,-2.1158,-2.119,-2.119,-2.119,-2.119,-2.1253,-2.1388,-2.158,-2.1749,-2.1862,-2.1595,-2.1199,-2.0641,-2.0241,-1.9779,-1.9257,-1.9328,-1.9394,-1.9382,-1.9382,-1.9033,-1.8217,-1.8698,-1.9174,-1.9575,-1.9571,-1.9927,-2.0663,-2.0492,-2.056,-2.0892,-2.0754,-2.0701,-2.0701,-2.0701,-2.0701,-2.0701,-2.1042,-2.1765,-2.2753,-2.3494,-2.4488,-2.5641,-2.6186,-2.6645,-2.7122,-2.8258,-2.8822,-2.916,-1.8494,-1.8494,-1.8414,-1.8168,-1.8535,-1.8762,-1.8549,-1.8912,-1.9213,-1.9213,-1.9213,-1.9076,-1.8836,-1.8571,-1.8499,-1.8713,-1.873,-1.8981,-1.9552,-2.0167,-2.0695,-2.1089,-2.1511,-2.1765,-2.1857,-2.1674,-2.1617,-2.1784,-2.1527,-2.1175,-2.0761,-2.0361,-2.0194,-2.0194,-2.0194,-2.0273,-2.04,-2.04,-2.0478,-2.0595,-2.0449,-2.0017,-1.9515,-1.9573,-1.9228,-1.8741,-1.8998,-1.9108,-1.9142,-1.9407,-1.955,-1.9638,-1.9944,-2.0085,-2.0118,-2.0118,-2.0118,-2.0118,-2.0118,-2.0118,-2.0118,-2.0281,-2.0346,-2.0475,-2.0786,-2.0967,-2.1126,-2.119,-2.119,-2.119,-2.119,-2.1285,-2.14,-2.1592,-2.1718,-2.1906,-2.2092,-2.171,-2.1373,-2.1281,-2.0843,-2.0539,-2.0493,-2.0524,-2.0579,-2.0579,-2.0579,-2.0223,-1.9458,-1.9591,-1.9875,-2.0289,-2.0203,-2.041,-2.0959,-2.0717,-2.0757,-2.1094,-2.0903,-2.0786,-2.0701,-2.0701,-2.0765,-2.0839,-2.1094,-2.1939,-2.3137,-2.3606,-2.459,-2.5863,-2.6405,-2.7023,-2.7717,-2.8586,-2.9451,-3.0298,-1.8781,-1.8781,-1.871,-1.8533,-1.8909,-1.9158,-1.8971,-1.9326,-1.959,-1.959,-1.959,-1.959,-1.959,-1.9247,-1.8947,-1.8789,-1.876,-1.8908,-1.9241,-1.9969,-2.0546,-2.0879,-2.1385,-2.1785,-2.1963,-2.1757,-2.1727,-2.1921,-2.162,-2.1404,-2.119,-2.0947,-2.0723,-2.0605,-2.0605,-2.0605,-2.0605,-2.0605,-2.0605,-2.0605,-2.0605,-2.022,-1.9608,-1.9769,-1.9384,-1.8841,-1.9042,-1.9108,-1.9142,-1.9473,-1.9605,-1.9671,-1.9976,-2.0118,-2.0118,-2.0118,-2.0118,-2.0118,-2.0118,-2.0118,-2.0151,-2.0346,-2.0475,-2.0593,-2.0935,-2.1094,-2.119,-2.119,-2.119,-2.119,-2.119,-2.1305,-2.1463,-2.1667,-2.1812,-2.1956,-2.2154,-2.1909,-2.1681,-2.1625,-2.1355,-2.119,-2.1165,-2.1237,-2.1253,-2.1253,-2.1253,-2.1119,-2.0802,-2.0494,-2.0516,-2.0945,-2.084,-2.0974,-2.1407,-2.1223,-2.1233,-2.1403,-2.119,-2.1031,-2.0882,-2.0946,-2.0999,-2.1115,-2.1348,-2.223,-2.3506,-2.3839,-2.4826,-2.6129,-2.6624,-2.7344,-2.8183,-2.9027,-2.9982,-3.0931,-1.8781,-1.8781,-1.8781,-1.8781,-1.9212,-1.9587,-1.9587,-1.9982,-2.0292,-2.0292,-2.0292,-2.0292,-2.0292,-1.9992,-1.9435,-1.8733,-1.8856,-1.8906,-1.8758,-1.9689,-2.0322,-2.0515,-2.1275,-2.1696,-2.1696,-2.1919,-2.1866,-2.1432,-2.1541,-2.1453,-2.1239,-2.121,-2.0996,-2.0605,-2.0605,-2.0605,-2.0605,-2.0605,-2.0605,-2.0605,-2.0605,-2.023,-1.9684,-1.9779,-1.9404,-1.8882,-1.9052,-1.9108,-1.9164,-1.9473,-1.9605,-1.9671,-2.0009,-2.0118,-2.0118,-2.0118,-2.0118,-2.0118,-2.0118,-2.0107,-2.0183,-2.0378,-2.0572,-2.083,-2.1138,-2.119,-2.119,-2.119,-2.119,-2.119,-2.119,-2.1305,-2.1463,-2.1667,-2.1812,-2.1999,-2.2154,-2.2228,-2.2097,-2.171,-2.1785,-2.1765,-2.1443,-2.155,-2.1606,-2.1606,-2.1606,-2.1775,-2.2155,-2.1378,-2.1168,-2.1666,-2.1542,-2.1632,-2.1925,-2.1894,-2.1843,-2.1698,-2.1506,-2.1368,-2.1221,-2.1368,-2.142,-2.1431,-2.1769,-2.2615,-2.3839,-2.4169,-2.5115,-2.6449,-2.6829,-2.761,-2.8572,-2.9542,-3.0387,-3.1217,-1.8781,-1.8781,-1.8781,-1.8781,-1.9058,-1.9342,-1.9587,-1.9799,-2.0065,-2.0292,-2.0292,-2.0292,-2.0292,-2.0215,-1.9975,-1.946,-1.941,-1.9414,-1.9545,-2.0245,-2.0764,-2.097,-2.1421,-2.1696,-2.1696,-2.1785,-2.1828,-2.1947,-2.2021,-2.1813,-2.1431,-2.1265,-2.0996,-2.0605,-2.0605,-2.0605,-2.0605,-2.0605,-2.0605,-2.0605,-2.0605,-2.0483,-2.0239,-1.9925,-1.9702,-1.9517,-1.9199,-1.9175,-1.9274,-1.9506,-1.9704,-1.9868,-2.0042,-2.0118,-2.0118,-2.0118,-2.0118,-2.0118,-2.0118,-2.0216,-2.0378,-2.0572,-2.085,-2.1106,-2.119,-2.119,-2.119,-2.119,-2.119,-2.119,-2.119,-2.1423,-2.1624,-2.1698,-2.1949,-2.2166,-2.2185,-2.2278,-2.2384,-2.2445,-2.2572,-2.266,-2.2672,-2.2689,-2.2719,-2.2719,-2.2719,-2.2769,-2.2847,-2.2556,-2.2406,-2.2451,-2.2268,-2.2207,-2.2297,-2.2018,-2.1843,-2.1698,-2.1667,-2.1624,-2.1561,-2.1624,-2.1624,-2.1624,-2.1812,-2.2615,-2.3839,-2.4169,-2.5115,-2.6449,-2.6829,-2.7868,-2.9149,-2.9701,-3.0655,-3.1761,-1.8781,-1.8781,-1.8781,-1.8781,-1.9004,-1.9242,-1.9387,-1.9708,-1.9928,-2.011,-2.0201,-2.0292,-2.0292,-2.0292,-2.0215,-2.0009,-1.9729,-1.9652,-1.9786,-2.0346,-2.0779,-2.1108,-2.1511,-2.1696,-2.1696,-2.1696,-2.183,-2.2097,-2.1938,-2.1736,-2.1492,-2.1182,-2.0907,-2.0605,-2.0605,-2.0605,-2.0605,-2.0605,-2.0605,-2.0605,-2.0605,-2.0542,-2.0454,-1.9965,-1.9809,-1.973,-1.9264,-1.9175,-1.9318,-1.955,-1.9736,-1.99,-2.0042,-2.0118,-2.0118,-2.0118,-2.0118,-2.0118,-2.0118,-2.0248,-2.0464,-2.0722,-2.101,-2.119,-2.119,-2.119,-2.119,-2.119,-2.119,-2.1221,-2.1273,-2.1517,-2.173,-2.1781,-2.203,-2.2197,-2.2197,-2.234,-2.2482,-2.269,-2.304,-2.3343,-2.3496,-2.3722,-2.3873,-2.3873,-2.3873,-2.3873,-2.3873,-2.3585,-2.3213,-2.28,-2.2616,-2.2482,-2.2389,-2.2154,-2.1937,-2.1781,-2.1781,-2.1761,-2.1698,-2.1761,-2.1781,-2.1812,-2.2018,-2.2838,-2.407,-2.4333,-2.5328,-2.6679,-2.6909,-2.8049,-2.9579,-2.9824,-3.0819,-3.2059,-1.8781,-1.8781,-1.8781,-1.8781,-1.9012,-1.9142,-1.9188,-1.9563,-1.9837,-1.9882,-2.011,-2.0246,-2.0292,-2.0292,-2.0292,-2.0292,-2.0009,-1.9824,-1.9928,-2.0341,-2.0738,-2.1122,-2.1504,-2.1696,-2.1696,-2.1696,-2.183,-2.2052,-2.1668,-2.1471,-2.1451,-2.1051,-2.0778,-2.0605,-2.0605,-2.0605,-2.0605,-2.0605,-2.0605,-2.0605,-2.0605,-2.062,-2.0554,-2.0066,-1.9941,-1.9938,-1.9471,-1.9416,-1.9584,-1.9751,-1.9961,-2.0193,-2.0292,-2.0336,-2.0336,-2.0336,-2.0369,-2.0336,-2.0183,-2.0313,-2.0561,-2.0871,-2.1063,-2.119,-2.119,-2.119,-2.119,-2.119,-2.119,-2.1253,-2.1388,-2.1549,-2.173,-2.1874,-2.2061,-2.2252,-2.2325,-2.2492,-2.2671,-2.2954,-2.3517,-2.3916,-2.4086,-2.4512,-2.4788,-2.4788,-2.4788,-2.4788,-2.4788,-2.4293,-2.3716,-2.3088,-2.2837,-2.2616,-2.2389,-2.2278,-2.2123,-2.1968,-2.1968,-2.1874,-2.1761,-2.1906,-2.1968,-2.1999,-2.2351,-2.3208,-2.4378,-2.466,-2.566,-2.699,-2.7024,-2.8208,-2.9894,-2.9894,-3.089,-3.2218,-1.8781,-1.8781,-1.8781,-1.8781,-1.8827,-1.892,-1.9188,-1.9279,-1.9463,-1.9837,-1.9928,-2.0065,-2.0292,-2.0292,-2.0292,-2.0292,-2.024,-2.0316,-2.0525,-2.0792,-2.1051,-2.1346,-2.157,-2.1696,-2.1696,-2.1696,-2.1741,-2.1785,-2.1581,-2.1386,-2.1252,-2.101,-2.0778,-2.0605,-2.0605,-2.0605,-2.0605,-2.0605,-2.0605,-2.0605,-2.0605,-2.0808,-2.1054,-2.0564,-2.0602,-2.0845,-2.0379,-2.0435,-2.0737,-2.0772,-2.1016,-2.1328,-2.1363,-2.1363,-2.1363,-2.1363,-2.1501,-2.1427,-2.0566,-2.0593,-2.0871,-2.1094,-2.1169,-2.119,-2.119,-2.119,-2.119,-2.119,-2.119,-2.1253,-2.1388,-2.1549,-2.173,-2.1874,-2.2061,-2.2404,-2.2977,-2.3196,-2.357,-2.4231,-2.4516,-2.463,-2.4662,-2.4738,-2.4788,-2.4788,-2.4788,-2.4788,-2.4788,-2.4293,-2.3954,-2.3835,-2.3188,-2.2726,-2.2389,-2.2389,-2.2309,-2.2154,-2.2154,-2.2123,-2.2135,-2.2123,-2.2216,-2.2352,-2.2863,-2.3646,-2.4611,-2.5256,-2.6122,-2.7024,-2.718,-2.8344,-2.9894,-2.9894,-3.089,-3.2218,-1.8658,-1.8743,-1.8781,-1.8781,-1.8781,-1.8827,-1.8966,-1.9104,-1.9279,-1.9509,-1.9745,-1.9928,-2.0065,-2.0201,-2.0292,-2.0292,-2.0292,-2.0337,-2.0473,-2.069,-2.1015,-2.1392,-2.1482,-2.1607,-2.1696,-2.1696,-2.1696,-2.1696,-2.1185,-2.0959,-2.0973,-2.0569,-2.0398,-2.045,-2.0566,-2.0605,-2.0605,-2.0605,-2.0605,-2.0605,-2.0605,-2.0848,-2.1155,-2.0675,-2.0754,-2.1052,-2.055,-2.0655,-2.0995,-2.0995,-2.1277,-2.1592,-2.1592,-2.1592,-2.1592,-2.1592,-2.1732,-2.184,-2.1543,-2.1395,-2.1355,-2.155,-2.1397,-2.119,-2.119,-2.119,-2.119,-2.119,-2.1253,-2.1368,-2.1549,-2.1718,-2.1843,-2.203,-2.2395,-2.2754,-2.3154,-2.3607,-2.4082,-2.4549,-2.4973,-2.5234,-2.5234,-2.5523,-2.5699,-2.5699,-2.5699,-2.5699,-2.5699,-2.4908,-2.4443,-2.4443,-2.3449,-2.2818,-2.2665,-2.2482,-2.2359,-2.2309,-2.2216,-2.2247,-2.2309,-2.2309,-2.2402,-2.2592,-2.3212,-2.3931,-2.4748,-2.5496,-2.6332,-2.718,-2.7268,-2.8379,-2.9894,-2.9894,-3.089,-3.2218,-1.8481,-1.8612,-1.8743,-1.8781,-1.8781,-1.8781,-1.8781,-1.8958,-1.9142,-1.9188,-1.9517,-1.9745,-1.9799,-2.0073,-2.0201,-2.0201,-2.0246,-2.0292,-2.0292,-2.0473,-2.0789,-2.1212,-2.1347,-2.1482,-2.1607,-2.1696,-2.1696,-2.1696,-2.0872,-2.0596,-2.0778,-2.0129,-1.999,-2.0303,-2.045,-2.0566,-2.0605,-2.0605,-2.0605,-2.0605,-2.0605,-2.0848,-2.1175,-2.0785,-2.0907,-2.1228,-2.0829,-2.0969,-2.1314,-2.1314,-2.16,-2.192,-2.192,-2.192,-2.192,-2.192,-2.2097,-2.2323,-2.2388,-2.2162,-2.1956,-2.2078,-2.1812,-2.1546,-2.1546,-2.1454,-2.1374,-2.1406,-2.1429,-2.1463,-2.1686,-2.1843,-2.2004,-2.2323,-2.2746,-2.3192,-2.3595,-2.4181,-2.4698,-2.5,-2.5494,-2.5799,-2.5799,-2.6235,-2.6499,-2.6499,-2.6499,-2.6499,-2.6499,-2.5536,-2.4883,-2.4612,-2.3542,-2.2939,-2.2909,-2.2635,-2.2512,-2.2482,-2.2371,-2.2371,-2.2482,-2.2482,-2.2647,-2.296,-2.3629,-2.4354,-2.5106,-2.5851,-2.6614,-2.7302,-2.7403,-2.8433,-2.9894,-2.9929,-3.089,-3.2218,-1.8435,-1.8527,-1.8574,-1.8781,-1.8781,-1.8781,-1.8781,-1.8827,-1.892,-1.9188,-1.9234,-1.9333,-1.9587,-1.9808,-1.9936,-1.9936,-2.0155,-2.0292,-2.0292,-2.0337,-2.0473,-2.0744,-2.1167,-2.1401,-2.1446,-2.1607,-2.1696,-2.1696,-2.0872,-2.0596,-2.0778,-1.9978,-1.9872,-2.0303,-2.0303,-2.042,-2.0605,-2.0605,-2.0605,-2.0605,-2.0605,-2.0848,-2.1205,-2.1175,-2.1423,-2.1745,-2.1714,-2.1968,-2.2307,-2.2307,-2.2558,-2.2903,-2.2903,-2.2903,-2.2903,-2.2903,-2.315,-2.3327,-2.2615,-2.2514,-2.2627,-2.2627,-2.2638,-2.2604,-2.2604,-2.2203,-2.1903,-2.2078,-2.1737,-2.1494,-2.1831,-2.1894,-2.2123,-2.2847,-2.3071,-2.3595,-2.4807,-2.5169,-2.5581,-2.6276,-2.6411,-2.6436,-2.6436,-2.6461,-2.6499,-2.6499,-2.6499,-2.6499,-2.6499,-2.5908,-2.5084,-2.4092,-2.3434,-2.3017,-2.2909,-2.2878,-2.2787,-2.2678,-2.2678,-2.2678,-2.2678,-2.2678,-2.301,-2.3672,-2.4263,-2.5006,-2.5864,-2.6616,-2.7074,-2.7335,-2.7656,-2.8637,-2.9929,-3.0019,-3.0996,-3.2218,-1.7962,-1.8148,-1.8326,-1.8566,-1.8612,-1.8658,-1.8781,-1.8781,-1.8827,-1.892,-1.9096,-1.9234,-1.9333,-1.9571,-1.9754,-1.9891,-1.9973,-2.011,-2.0292,-2.0292,-2.0428,-2.0699,-2.1015,-2.1239,-2.1392,-2.1482,-2.1562,-2.1696,-2.0872,-2.0554,-2.0578,-1.9897,-1.9754,-2.0059,-2.0225,-2.042,-2.0605,-2.0605,-2.0605,-2.0605,-2.0731,-2.0935,-2.1205,-2.1359,-2.154,-2.1807,-2.1807,-2.2073,-2.2402,-2.2402,-2.2665,-2.3001,-2.3001,-2.3001,-2.3038,-2.3298,-2.3482,-2.3588,-2.354,-2.3326,-2.3121,-2.3121,-2.2914,-2.2719,-2.2719,-2.2637,-2.2506,-2.2259,-2.2189,-2.2135,-2.1922,-2.1999,-2.2303,-2.2895,-2.3373,-2.4009,-2.4967,-2.5565,-2.6055,-2.644,-2.6499,-2.6499,-2.6499,-2.6499,-2.6499,-2.6499,-2.6499,-2.6499,-2.6499,-2.5946,-2.5259,-2.4531,-2.3966,-2.3441,-2.303,-2.2939,-2.2878,-2.283,-2.2739,-2.2911,-2.3325,-2.3325,-2.3729,-2.4404,-2.5116,-2.5679,-2.6138,-2.6881,-2.7268,-2.7469,-2.7689,-2.8671,-2.9929,-3.0054,-3.0996,-3.2218,-1.7675,-1.7861,-1.8048,-1.8334,-1.8381,-1.8473,-1.8651,-1.8697,-1.8743,-1.8781,-1.8966,-1.905,-1.905,-1.9296,-1.9525,-1.9654,-1.9745,-1.9891,-2.0155,-2.0246,-2.0382,-2.0564,-2.0781,-2.1006,-2.1167,-2.1302,-2.1482,-2.1607,-2.1,-2.064,-2.0503,-1.9955,-1.9718,-1.9833,-2.0059,-2.0303,-2.0489,-2.0566,-2.0605,-2.0605,-2.0819,-2.1022,-2.1205,-2.1436,-2.1617,-2.1807,-2.1807,-2.2073,-2.2402,-2.2402,-2.2665,-2.3001,-2.3001,-2.3038,-2.315,-2.3482,-2.3629,-2.3787,-2.4116,-2.3936,-2.3637,-2.3637,-2.342,-2.319,-2.326,-2.3236,-2.3117,-2.2704,-2.2666,-2.2555,-2.2094,-2.2224,-2.2638,-2.3232,-2.3895,-2.4597,-2.5351,-2.593,-2.6339,-2.6499,-2.6499,-2.6499,-2.6499,-2.6499,-2.6499,-2.6499,-2.6499,-2.6499,-2.6499,-2.5946,-2.5435,-2.5039,-2.4544,-2.4067,-2.3634,-2.3379,-2.3318,-2.3492,-2.3399,-2.3598,-2.4053,-2.4053,-2.4448,-2.5161,-2.5691,-2.6169,-2.6593,-2.708,-2.7436,-2.7623,-2.7822,-2.8738,-2.9985,-3.0137,-3.1032,-3.2218,-1.7628,-1.7675,-1.7768,-1.804,-1.8087,-1.8187,-1.8481,-1.8481,-1.8566,-1.8781,-1.8781,-1.8781,-1.8781,-1.905,-1.9188,-1.9188,-1.9433,-1.9671,-1.9882,-2.0155,-2.0292,-2.0292,-2.0564,-2.0699,-2.0699,-2.1159,-2.1392,-2.1392,-2.1187,-2.0906,-2.0512,-2.0076,-1.9795,-1.9606,-1.9833,-2.0069,-2.0303,-2.0489,-2.0605,-2.0605,-2.0819,-2.1022,-2.1205,-2.1436,-2.1617,-2.1807,-2.1807,-2.2073,-2.2402,-2.2402,-2.2665,-2.3001,-2.3001,-2.315,-2.3335,-2.3519,-2.3751,-2.3934,-2.4164,-2.42,-2.42,-2.42,-2.42,-2.4261,-2.4454,-2.4083,-2.3653,-2.3522,-2.3078,-2.2619,-2.2262,-2.263,-2.3212,-2.3895,-2.4609,-2.5364,-2.6092,-2.6361,-2.6499,-2.6499,-2.6499,-2.6499,-2.6499,-2.6499,-2.6499,-2.6499,-2.6499,-2.6499,-2.6499,-2.5912,-2.5598,-2.5598,-2.5096,-2.48,-2.48,-2.4293,-2.428,-2.4788,-2.4788,-2.4788,-2.48,-2.48,-2.5219,-2.5902,-2.5902,-2.644,-2.7302,-2.7302,-2.749,-2.7822,-2.8,-2.8933,-3.0123,-3.0336,-3.1151,-3.2218,-1.738,-1.7426,-1.752,-1.7768,-1.7815,-1.7908,-1.8187,-1.8234,-1.8326,-1.8566,-1.8566,-1.8651,-1.8781,-1.8874,-1.9012,-1.9188,-1.9288,-1.9433,-1.9671,-1.9891,-2.0019,-2.0019,-2.0292,-2.0518,-2.0699,-2.0835,-2.1069,-2.1392,-2.1065,-2.088,-2.0915,-2.0204,-1.9942,-2.0006,-1.9955,-2.0069,-2.0303,-2.0489,-2.0605,-2.0644,-2.0964,-2.1138,-2.1244,-2.1578,-2.1769,-2.1807,-2.1807,-2.2073,-2.2402,-2.2402,-2.2665,-2.3001,-2.3001,-2.315,-2.3335,-2.3519,-2.3751,-2.3934,-2.4164,-2.42,-2.42,-2.42,-2.4309,-2.4418,-2.4502,-2.4577,-2.4554,-2.4148,-2.3759,-2.3331,-2.2847,-2.2871,-2.3212,-2.3895,-2.4609,-2.5364,-2.6092,-2.6361,-2.6499,-2.6499,-2.6499,-2.6499,-2.6499,-2.6499,-2.6499,-2.6499,-2.6499,-2.6499,-2.6499,-2.6336,-2.6235,-2.6235,-2.5661,-2.5561,-2.5996,-2.5046,-2.4625,-2.4788,-2.4788,-2.5008,-2.5372,-2.5504,-2.5919,-2.6473,-2.6742,-2.7046,-2.7302,-2.7403,-2.759,-2.7822,-2.8,-2.8933,-3.0123,-3.0336,-3.1151,-3.2182,-1.7153,-1.72,-1.7246,-1.7481,-1.7527,-1.7621,-1.7908,-1.7947,-1.8048,-1.8334,-1.8334,-1.8427,-1.8651,-1.8697,-1.8789,-1.9004,-1.9142,-1.9288,-1.9433,-1.9662,-1.9799,-1.9882,-2.0065,-2.0246,-2.0518,-2.0654,-2.0835,-2.1114,-2.1051,-2.102,-2.0969,-2.058,-2.0269,-2.007,-2.0151,-2.0142,-2.0147,-2.045,-2.0605,-2.0644,-2.1051,-2.1205,-2.1244,-2.1655,-2.1807,-2.1807,-2.1883,-2.2138,-2.2402,-2.2478,-2.274,-2.3001,-2.3075,-2.3261,-2.3446,-2.3677,-2.3861,-2.4043,-2.4164,-2.42,-2.4236,-2.4309,-2.4418,-2.4538,-2.461,-2.4885,-2.4968,-2.4466,-2.4054,-2.371,-2.3384,-2.3357,-2.3623,-2.431,-2.5028,-2.5713,-2.6255,-2.643,-2.6499,-2.6499,-2.6499,-2.6499,-2.6499,-2.6555,-2.6589,-2.6589,-2.6589,-2.6555,-2.6499,-2.6499,-2.6499,-2.6499,-2.616,-2.6135,-2.6499,-2.5866,-2.5526,-2.5473,-2.5473,-2.5657,-2.6026,-2.6173,-2.6464,-2.6964,-2.7201,-2.7335,-2.7403,-2.7469,-2.7669,-2.7934,-2.8046,-2.8966,-3.024,-3.037,-3.1116,-3.2073,-1.6925,-1.6979,-1.7066,-1.7239,-1.7286,-1.738,-1.7628,-1.7675,-1.7768,-1.804,-1.804,-1.8187,-1.8435,-1.8481,-1.8566,-1.8743,-1.9012,-1.9142,-1.9142,-1.9433,-1.9671,-1.9837,-1.9882,-2.0019,-2.0246,-2.0518,-2.0699,-2.0699,-2.1122,-2.1158,-2.0876,-2.0996,-2.0662,-1.998,-2.0383,-2.0339,-1.9942,-2.0372,-2.0566,-2.0644,-2.1051,-2.1205,-2.1254,-2.1706,-2.1849,-2.1845,-2.2077,-2.2246,-2.244,-2.2665,-2.2852,-2.3038,-2.3224,-2.3446,-2.3629,-2.3824,-2.4043,-2.42,-2.42,-2.42,-2.4236,-2.4454,-2.449,-2.4574,-2.479,-2.4992,-2.5003,-2.4664,-2.4194,-2.3878,-2.3899,-2.3999,-2.431,-2.5013,-2.5738,-2.627,-2.6465,-2.6499,-2.6499,-2.6499,-2.6499,-2.6521,-2.6521,-2.6658,-2.6726,-2.6726,-2.6726,-2.6658,-2.6568,-2.6521,-2.6521,-2.6521,-2.6521,-2.6521,-2.6521,-2.6658,-2.6658,-2.6521,-2.6533,-2.6589,-2.6726,-2.676,-2.6964,-2.7302,-2.7302,-2.7403,-2.749,-2.7523,-2.7736,-2.8125,-2.8179,-2.9087,-3.0418,-3.0438,-3.1064,-3.189,-1.6636,-1.6878,-1.7026,-1.7066,-1.72,-1.7333,-1.738,-1.738,-1.7473,-1.7768,-1.7768,-1.7908,-1.8141,-1.8187,-1.828,-1.852,-1.8743,-1.8874,-1.8874,-1.915,-1.9288,-1.9333,-1.97,-1.9936,-1.9973,-2.0246,-2.0473,-2.0699,-2.0789,-2.0979,-2.1257,-2.0976,-2.0689,-2.0374,-2.0309,-2.0129,-1.9902,-2.0225,-2.0459,-2.0644,-2.1051,-2.1205,-2.1284,-2.2056,-2.2118,-2.1849,-2.2443,-2.253,-2.244,-2.2815,-2.2964,-2.3038,-2.3224,-2.3446,-2.3629,-2.3824,-2.4043,-2.42,-2.42,-2.42,-2.4236,-2.4454,-2.461,-2.479,-2.4992,-2.5147,-2.524,-2.512,-2.4723,-2.4396,-2.4544,-2.4611,-2.4783,-2.5264,-2.5828,-2.627,-2.6465,-2.6499,-2.6499,-2.6499,-2.6589,-2.6658,-2.6658,-2.6841,-2.6943,-2.6943,-2.6943,-2.6909,-2.6875,-2.6875,-2.6875,-2.6875,-2.6875,-2.6875,-2.6875,-2.6909,-2.6841,-2.6658,-2.6807,-2.6909,-2.6943,-2.71,-2.7201,-2.7302,-2.7403,-2.7469,-2.749,-2.7656,-2.7868,-2.8165,-2.8752,-2.9551,-3.0438,-3.0759,-3.1308,-3.1853,-1.6359,-1.6501,-1.665,-1.6784,-1.6918,-1.7005,-1.7153,-1.7153,-1.7246,-1.7481,-1.7527,-1.7621,-1.7861,-1.7908,-1.8048,-1.8481,-1.8612,-1.8697,-1.8781,-1.8912,-1.9058,-1.9188,-1.9425,-1.9654,-1.9882,-2.0019,-2.0246,-2.0518,-2.0654,-2.088,-2.1195,-2.1122,-2.0982,-2.0787,-2.0796,-2.0576,-2.0245,-2.0502,-2.0605,-2.0644,-2.1051,-2.1205,-2.1274,-2.1922,-2.2014,-2.1877,-2.2422,-2.2653,-2.2703,-2.2927,-2.3075,-2.3187,-2.3372,-2.3593,-2.3787,-2.397,-2.4116,-2.42,-2.42,-2.4273,-2.4381,-2.461,-2.4778,-2.4957,-2.5087,-2.5218,-2.5312,-2.5312,-2.4856,-2.4637,-2.5109,-2.5054,-2.5139,-2.5682,-2.6105,-2.6361,-2.6499,-2.6499,-2.6499,-2.6499,-2.6624,-2.6794,-2.6964,-2.7079,-2.7146,-2.7146,-2.7146,-2.7113,-2.7024,-2.699,-2.699,-2.699,-2.699,-2.699,-2.699,-2.7113,-2.71,-2.6998,-2.7011,-2.7045,-2.7146,-2.7235,-2.7335,-2.7403,-2.7469,-2.749,-2.7523,-2.7723,-2.7934,-2.8179,-2.8919,-2.9612,-3.0335,-3.0836,-3.1271,-3.1545,-1.6028,-1.613,-1.6265,-1.6494,-1.6588,-1.6683,-1.6885,-1.6932,-1.7019,-1.7239,-1.7239,-1.7333,-1.7581,-1.7675,-1.7869,-1.8342,-1.8435,-1.8566,-1.8743,-1.8781,-1.892,-1.9096,-1.9188,-1.9347,-1.9708,-1.979,-1.9926,-2.0198,-2.0423,-2.0604,-2.0802,-2.1007,-2.1047,-2.0915,-2.1118,-2.0992,-2.0616,-2.0797,-2.0787,-2.0713,-2.1081,-2.1205,-2.1254,-2.1747,-2.188,-2.1856,-2.2347,-2.273,-2.3001,-2.3001,-2.315,-2.3335,-2.3519,-2.3751,-2.3934,-2.4152,-2.42,-2.4212,-2.4292,-2.4472,-2.4689,-2.5,-2.5217,-2.5326,-2.5266,-2.5277,-2.5312,-2.5312,-2.4963,-2.4898,-2.5533,-2.546,-2.5496,-2.6161,-2.6396,-2.6499,-2.6499,-2.6499,-2.6499,-2.6499,-2.6658,-2.6897,-2.7268,-2.7302,-2.7335,-2.7335,-2.7335,-2.7268,-2.7079,-2.7079,-2.7079,-2.7079,-2.7079,-2.7079,-2.7079,-2.7235,-2.7335,-2.7335,-2.718,-2.718,-2.7335,-2.7335,-2.7403,-2.749,-2.749,-2.749,-2.7523,-2.7723,-2.7934,-2.8179,-2.9027,-2.9658,-3.0183,-3.0824,-3.1133,-3.1198,-1.5588,-1.5933,-1.6224,-1.6272,-1.6454,-1.6636,-1.6636,-1.6636,-1.673,-1.7019,-1.7019,-1.7113,-1.7333,-1.7574,-1.7721,-1.7815,-1.8241,-1.8527,-1.8527,-1.8697,-1.8827,-1.8874,-1.9096,-1.9096,-1.8848,-1.9279,-1.959,-1.9776,-1.9821,-1.9869,-1.997,-2.0013,-2.0012,-2.0067,-2.0448,-2.0597,-2.0616,-2.0616,-2.083,-2.1113,-2.1172,-2.1205,-2.1284,-2.2097,-2.2159,-2.1897,-2.2717,-2.302,-2.3001,-2.3001,-2.315,-2.3335,-2.3519,-2.3751,-2.3934,-2.4152,-2.42,-2.4292,-2.4705,-2.498,-2.5331,-2.5951,-2.6245,-2.6314,-2.6032,-2.5601,-2.5312,-2.5312,-2.5369,-2.5521,-2.5828,-2.5953,-2.6148,-2.6418,-2.6499,-2.6499,-2.6499,-2.6499,-2.6499,-2.6499,-2.6773,-2.7045,-2.7268,-2.7403,-2.7469,-2.7469,-2.7469,-2.7469,-2.7436,-2.7436,-2.7436,-2.7436,-2.7436,-2.7436,-2.7436,-2.7469,-2.7469,-2.7469,-2.7469,-2.7469,-2.7469,-2.7469,-2.7503,-2.749,-2.749,-2.749,-2.7523,-2.7723,-2.7934,-2.8232,-2.9483,-3.0021,-3.0188,-3.0977,-3.1169,-3.1024,-1.5493,-1.5689,-1.5832,-1.5974,-1.6069,-1.6204,-1.6359,-1.6359,-1.6447,-1.6737,-1.6925,-1.7026,-1.7113,-1.734,-1.7527,-1.7675,-1.8048,-1.8334,-1.8481,-1.8697,-1.8781,-1.8781,-1.892,-1.8897,-1.8694,-1.9026,-1.9083,-1.8939,-1.9281,-1.9506,-1.9632,-1.9768,-1.9891,-2.0083,-2.0592,-2.0875,-2.0958,-2.0926,-2.1048,-2.1191,-2.1192,-2.1205,-2.1274,-2.1881,-2.1983,-2.1866,-2.2484,-2.2837,-2.3001,-2.3001,-2.3224,-2.3482,-2.3556,-2.3824,-2.4137,-2.4485,-2.4602,-2.4742,-2.5362,-2.5689,-2.5948,-2.6361,-2.6621,-2.6713,-2.6585,-2.6345,-2.6009,-2.5432,-2.5453,-2.5641,-2.5863,-2.6062,-2.627,-2.6465,-2.6499,-2.6499,-2.6499,-2.6499,-2.6521,-2.6589,-2.6726,-2.6909,-2.7113,-2.718,-2.7214,-2.7214,-2.7214,-2.7214,-2.7214,-2.7335,-2.7403,-2.7403,-2.7469,-2.749,-2.749,-2.749,-2.749,-2.749,-2.749,-2.749,-2.749,-2.749,-2.749,-2.749,-2.749,-2.749,-2.7523,-2.7723,-2.8053,-2.8518,-2.9526,-3.0294,-3.0777,-3.1051,-3.1024,-3.0798]}]]